[[{"header":{"parameterUnit":"m.s-1","parameterCategory":1,"la1":30.6,"la2":29.2853,"lo1":-89.7004,"lo2":-87.6739,"dy":0.0162,"dx":0.0183,"nx":112,"ny":82,"refTime":"2023-08-21T18:00:00:Z","depth":0,"parameterNumber":2,"parameterNumberName":"U-component_of_WINDS"},"data":[0.0,0.0,0.0,0.0,0.0,0.0,0.0,0.0,0.0,0.0,0.0,0.0,0.0,0.0,0.0,0.0,0.0,0.0,0.0,0.0,0.0,0.0,0.0,0.0,0.0,0.0,0.0,0.0,0.0,0.0,0.0,0.0,0.0,0.0,0.0,0.0,0.0,0.0,0.0,0.0,0.0,0.0,0.0,0.0,0.0,0.0,0.0,0.0,0.0,0.0,0.0,0.0,0.0,0.0,0.0,0.0,0.0,0.0,0.0,0.0,0.0,0.0,0.0,0.0,0.0,0.0,0.0,0.0,0.0,0.0,0.0,0.0,0.0,0.0,0.0,0.0,0.0,0.0,0.0,0.0,0.0,0.0,0.0,0.0,0.0,0.0,0.0,0.0,0.0,0.0,3.5053,3.5053,3.4793,3.4398,3.3842,3.3807,3.3807,3.3807,0.0,0.0,0.0,0.0,0.0,0.0,0.0,0.0,0.0,0.0,0.0,0.0,0.0,0.0,0.0,0.0,0.0,0.0,0.0,0.0,0.0,0.0,0.0,0.0,0.0,0.0,0.0,0.0,0.0,0.0,0.0,0.0,0.0,0.0,0.0,0.0,0.0,0.0,0.0,0.0,0.0,0.0,0.0,0.0,0.0,0.0,0.0,0.0,0.0,0.0,0.0,0.0,0.0,0.0,0.0,0.0,0.0,0.0,0.0,0.0,0.0,0.0,0.0,0.0,0.0,0.0,0.0,0.0,0.0,0.0,0.0,0.0,0.0,0.0,0.0,0.0,0.0,0.0,0.0,0.0,0.0,0.0,0.0,0.0,0.0,0.0,0.0,0.0,0.0,0.0,0.0,0.0,0.0,0.0,0.0,0.0,0.0,0.0,0.0,0.0,0.0,0.0,0.0,0.0,3.4754,3.4754,3.4467,3.4165,3.3815,3.3807,3.3807,3.3807,0.0,0.0,0.0,0.0,0.0,0.0,0.0,0.0,0.0,0.0,0.0,0.0,0.0,0.0,0.0,0.0,0.0,0.0,0.0,0.0,0.0,0.0,0.0,0.0,0.0,0.0,0.0,0.0,0.0,0.0,0.0,0.0,0.0,0.0,0.0,0.0,0.0,0.0,0.0,0.0,0.0,0.0,0.0,0.0,0.0,0.0,0.0,0.0,0.0,0.0,0.0,0.0,0.0,0.0,0.0,0.0,0.0,0.0,0.0,0.0,0.0,0.0,0.0,0.0,0.0,0.0,0.0,0.0,0.0,0.0,0.0,0.0,0.0,0.0,0.0,0.0,0.0,0.0,0.0,0.0,0.0,0.0,0.0,0.0,0.0,0.0,0.0,0.0,0.0,0.0,0.0,0.0,0.0,0.0,0.0,0.0,0.0,0.0,0.0,0.0,0.0,0.0,0.0,3.4695,3.4694,3.4694,3.4401,3.4074,3.3815,3.3807,3.3807,3.3807,3.3807,0.0,0.0,0.0,0.0,0.0,0.0,0.0,0.0,0.0,0.0,0.0,0.0,0.0,0.0,0.0,0.0,0.0,0.0,0.0,0.0,0.0,0.0,0.0,0.0,0.0,0.0,0.0,0.0,0.0,0.0,0.0,0.0,0.0,0.0,0.0,0.0,0.0,0.0,0.0,0.0,0.0,0.0,0.0,0.0,0.0,0.0,0.0,0.0,0.0,0.0,0.0,0.0,0.0,0.0,0.0,0.0,0.0,0.0,0.0,0.0,0.0,0.0,0.0,0.0,0.0,0.0,0.0,0.0,0.0,0.0,0.0,0.0,0.0,0.0,0.0,0.0,0.0,0.0,0.0,0.0,0.0,0.0,0.0,0.0,0.0,0.0,0.0,0.0,0.0,0.0,0.0,0.0,0.0,0.0,0.0,0.0,0.0,0.0,0.0,0.0,0.0,0.0,3.4889,3.4754,3.4713,3.4401,3.4074,3.3815,3.3807,3.3807,3.3807,3.3707,0.0,0.0,0.0,0.0,0.0,0.0,0.0,0.0,0.0,0.0,0.0,0.0,0.0,0.0,0.0,0.0,0.0,0.0,0.0,0.0,0.0,0.0,0.0,0.0,0.0,0.0,0.0,0.0,0.0,0.0,0.0,0.0,0.0,0.0,0.0,0.0,0.0,0.0,0.0,0.0,0.0,0.0,0.0,0.0,0.0,0.0,0.0,0.0,0.0,0.0,0.0,0.0,0.0,0.0,0.0,0.0,0.0,0.0,0.0,0.0,0.0,0.0,0.0,0.0,0.0,0.0,0.0,0.0,0.0,0.0,0.0,0.0,0.0,0.0,0.0,0.0,0.0,0.0,0.0,0.0,0.0,0.0,0.0,0.0,0.0,0.0,0.0,0.0,0.0,0.0,0.0,0.0,0.0,0.0,0.0,0.0,0.0,0.0,0.0,0.0,0.0,0.0,3.4926,3.4981,3.4733,3.4401,3.4074,3.3815,3.3807,3.3807,3.3807,3.3465,0.0,0.0,0.0,0.0,0.0,0.0,0.0,0.0,0.0,0.0,0.0,0.0,0.0,0.0,0.0,0.0,0.0,0.0,0.0,0.0,0.0,0.0,0.0,0.0,0.0,0.0,0.0,0.0,0.0,0.0,0.0,0.0,0.0,0.0,0.0,0.0,0.0,0.0,0.0,0.0,0.0,0.0,0.0,0.0,0.0,0.0,0.0,0.0,0.0,0.0,0.0,0.0,0.0,0.0,0.0,0.0,0.0,0.0,0.0,0.0,0.0,0.0,0.0,0.0,0.0,0.0,0.0,0.0,0.0,0.0,0.0,0.0,0.0,0.0,0.0,0.0,0.0,0.0,0.0,0.0,0.0,0.0,0.0,0.0,0.0,0.0,0.0,0.0,0.0,0.0,0.0,0.0,0.0,0.0,0.0,0.0,0.0,0.0,0.0,0.0,0.0,0.0,3.4614,3.4574,3.4694,3.4237,3.3902,3.3807,3.3807,3.3807,3.3807,0.0,0.0,0.0,0.0,0.0,0.0,0.0,0.0,0.0,0.0,0.0,0.0,0.0,0.0,0.0,0.0,0.0,0.0,0.0,0.0,0.0,0.0,0.0,0.0,0.0,0.0,0.0,0.0,0.0,0.0,0.0,0.0,0.0,0.0,0.0,0.0,0.0,0.0,0.0,0.0,0.0,0.0,0.0,0.0,0.0,0.0,0.0,0.0,0.0,0.0,0.0,0.0,0.0,0.0,0.0,0.0,0.0,0.0,0.0,0.0,0.0,0.0,0.0,0.0,0.0,0.0,0.0,0.0,0.0,0.0,0.0,0.0,0.0,0.0,0.0,0.0,0.0,0.0,0.0,0.0,0.0,0.0,0.0,0.0,0.0,0.0,0.0,0.0,0.0,0.0,0.0,0.0,0.0,0.0,0.0,0.0,0.0,0.0,0.0,0.0,0.0,0.0,3.4674,3.4574,3.4532,3.4674,3.4237,3.3902,3.3807,3.3807,3.3734,3.3625,0.0,0.0,0.0,0.0,0.0,0.0,0.0,0.0,0.0,0.0,0.0,0.0,0.0,0.0,0.0,0.0,0.0,0.0,0.0,0.0,0.0,0.0,0.0,0.0,0.0,0.0,0.0,0.0,0.0,0.0,0.0,0.0,0.0,0.0,0.0,0.0,0.0,0.0,0.0,0.0,0.0,0.0,0.0,0.0,0.0,0.0,0.0,0.0,0.0,0.0,0.0,0.0,0.0,0.0,0.0,0.0,0.0,0.0,0.0,0.0,0.0,0.0,0.0,0.0,0.0,0.0,0.0,0.0,0.0,0.0,0.0,0.0,0.0,0.0,0.0,0.0,0.0,0.0,0.0,0.0,0.0,0.0,0.0,0.0,0.0,0.0,0.0,0.0,0.0,0.0,0.0,0.0,0.0,0.0,0.0,0.0,0.0,0.0,0.0,0.0,0.0,0.0,3.4694,3.4926,3.4981,3.4714,3.4401,3.4093,3.3815,3.3807,3.3625,0.0,0.0,0.0,0.0,0.0,0.0,0.0,0.0,0.0,0.0,0.0,0.0,0.0,0.0,0.0,0.0,0.0,0.0,0.0,0.0,0.0,0.0,0.0,0.0,0.0,0.0,0.0,0.0,0.0,0.0,0.0,0.0,0.0,0.0,0.0,0.0,0.0,0.0,0.0,0.0,0.0,0.0,0.0,0.0,0.0,0.0,0.0,0.0,0.0,0.0,0.0,0.0,0.0,0.0,0.0,0.0,0.0,0.0,0.0,0.0,0.0,0.0,0.0,0.0,0.0,0.0,0.0,0.0,0.0,0.0,0.0,0.0,0.0,0.0,0.0,0.0,0.0,0.0,0.0,0.0,0.0,0.0,0.0,0.0,0.0,0.0,0.0,0.0,0.0,0.0,0.0,0.0,0.0,0.0,0.0,0.0,0.0,0.0,0.0,0.0,0.0,0.0,0.0,3.4379,3.4614,3.4714,3.4379,3.4093,3.3876,3.3807,3.3807,3.3625,3.3214,0.0,0.0,0.0,0.0,0.0,0.0,0.0,0.0,0.0,0.0,0.0,0.0,0.0,0.0,0.0,0.0,0.0,0.0,0.0,0.0,0.0,0.0,0.0,0.0,0.0,0.0,0.0,0.0,0.0,0.0,0.0,0.0,0.0,0.0,0.0,0.0,0.0,0.0,0.0,0.0,0.0,0.0,0.0,0.0,0.0,0.0,0.0,0.0,0.0,0.0,0.0,0.0,0.0,0.0,0.0,0.0,0.0,0.0,0.0,0.0,0.0,0.0,0.0,0.0,0.0,0.0,0.0,0.0,0.0,0.0,0.0,0.0,0.0,0.0,0.0,0.0,0.0,0.0,0.0,0.0,0.0,0.0,0.0,0.0,0.0,0.0,0.0,0.0,0.0,0.0,0.0,0.0,0.0,0.0,0.0,0.0,0.0,0.0,0.0,0.0,0.0,0.0,3.4242,3.4379,3.4423,3.4223,3.3961,3.3807,3.3807,3.3807,3.3625,3.3214,0.0,0.0,0.0,0.0,0.0,0.0,0.0,0.0,0.0,0.0,0.0,0.0,0.0,0.0,0.0,0.0,0.0,0.0,0.0,0.0,0.0,0.0,0.0,0.0,0.0,0.0,0.0,0.0,0.0,0.0,0.0,0.0,0.0,0.0,0.0,0.0,0.0,0.0,0.0,0.0,0.0,0.0,0.0,0.0,0.0,0.0,0.0,0.0,0.0,0.0,0.0,0.0,0.0,0.0,0.0,0.0,0.0,0.0,0.0,0.0,0.0,0.0,0.0,0.0,0.0,0.0,0.0,0.0,0.0,0.0,0.0,0.0,0.0,0.0,0.0,0.0,0.0,0.0,0.0,0.0,0.0,0.0,0.0,0.0,0.0,0.0,0.0,0.0,0.0,0.0,0.0,0.0,0.0,0.0,0.0,0.0,0.0,0.0,0.0,0.0,0.0,0.0,3.4171,3.4176,3.4176,3.4171,3.3954,3.3807,3.3807,3.3807,3.3625,3.3214,0.0,0.0,0.0,0.0,0.0,0.0,0.0,0.0,0.0,0.0,0.0,0.0,0.0,0.0,0.0,0.0,0.0,0.0,0.0,0.0,0.0,0.0,0.0,0.0,0.0,0.0,0.0,0.0,0.0,0.0,0.0,0.0,0.0,0.0,0.0,0.0,0.0,0.0,0.0,0.0,0.0,0.0,0.0,0.0,0.0,0.0,0.0,0.0,0.0,0.0,0.0,0.0,0.0,0.0,0.0,0.0,0.0,0.0,0.0,0.0,3.4963,3.4944,0.0,0.0,0.0,0.0,0.0,0.0,0.0,0.0,0.0,0.0,0.0,0.0,0.0,0.0,0.0,0.0,0.0,0.0,0.0,0.0,0.0,0.0,0.0,0.0,0.0,0.0,0.0,0.0,0.0,0.0,0.0,0.0,0.0,0.0,0.0,0.0,0.0,0.0,0.0,0.0,3.3928,3.4068,3.4123,3.3902,3.3842,3.3807,3.3807,3.3807,3.3625,3.3214,3.3124,0.0,0.0,0.0,0.0,0.0,0.0,0.0,0.0,0.0,0.0,0.0,0.0,0.0,0.0,0.0,0.0,0.0,0.0,0.0,0.0,0.0,0.0,0.0,0.0,0.0,0.0,0.0,0.0,0.0,0.0,0.0,0.0,0.0,0.0,0.0,0.0,0.0,0.0,0.0,0.0,0.0,0.0,0.0,0.0,0.0,0.0,0.0,0.0,0.0,0.0,0.0,0.0,0.0,0.0,0.0,0.0,0.0,0.0,0.0,3.5501,3.5155,0.0,0.0,0.0,0.0,0.0,0.0,0.0,0.0,0.0,0.0,0.0,0.0,0.0,0.0,0.0,0.0,0.0,0.0,0.0,0.0,0.0,0.0,0.0,0.0,0.0,0.0,0.0,0.0,0.0,0.0,0.0,0.0,0.0,0.0,0.0,0.0,0.0,0.0,0.0,0.0,3.3815,3.391,3.3961,3.3815,3.3807,3.3807,3.3807,3.3807,3.3707,3.3494,3.3302,0.0,0.0,0.0,0.0,0.0,0.0,0.0,0.0,0.0,0.0,0.0,0.0,0.0,0.0,0.0,0.0,0.0,0.0,0.0,0.0,0.0,0.0,0.0,0.0,0.0,0.0,0.0,0.0,0.0,0.0,0.0,0.0,0.0,0.0,0.0,0.0,0.0,0.0,0.0,0.0,0.0,0.0,0.0,0.0,0.0,0.0,0.0,0.0,0.0,0.0,0.0,0.0,0.0,3.6829,3.718,3.7175,3.7183,3.73,3.745,3.6288,3.5699,3.5546,3.5179,0.0,0.0,0.0,0.0,0.0,0.0,0.0,0.0,0.0,0.0,0.0,0.0,0.0,0.0,0.0,0.0,0.0,0.0,0.0,0.0,0.0,0.0,3.4754,3.4714,3.4908,3.5035,3.4754,0.0,0.0,0.0,0.0,0.0,0.0,0.0,0.0,0.0,0.0,0.0,3.3807,3.3807,3.3807,3.3807,3.3807,3.3807,3.3807,3.3807,3.3807,3.3807,3.3494,3.3273,0.0,0.0,0.0,0.0,0.0,0.0,0.0,0.0,0.0,0.0,0.0,0.0,0.0,0.0,0.0,0.0,0.0,0.0,0.0,0.0,0.0,0.0,0.0,0.0,0.0,0.0,0.0,0.0,0.0,0.0,0.0,0.0,3.5147,3.5097,0.0,0.0,0.0,0.0,0.0,0.0,0.0,0.0,0.0,0.0,0.0,0.0,0.0,3.6389,3.6447,3.6543,3.6596,3.6596,3.6938,3.711,3.7114,3.7105,3.713,3.7165,3.6969,0.0,3.5778,3.5076,0.0,0.0,0.0,0.0,0.0,0.0,0.0,0.0,0.0,0.0,0.0,0.0,0.0,0.0,0.0,0.0,0.0,0.0,0.0,0.0,0.0,0.0,3.4981,3.4773,3.4908,3.5035,3.4754,3.4694,3.4674,3.4653,3.4632,3.4529,0.0,0.0,0.0,0.0,0.0,0.0,3.3807,3.3807,3.3807,3.3807,3.3807,3.3807,3.3807,3.3807,3.3807,3.3807,3.3734,3.355,3.3214,3.3154,0.0,0.0,0.0,0.0,0.0,0.0,0.0,0.0,0.0,0.0,0.0,0.0,0.0,0.0,0.0,0.0,0.0,0.0,0.0,0.0,0.0,0.0,0.0,0.0,0.0,0.0,0.0,0.0,0.0,3.4789,3.4585,3.4587,3.466,3.4604,0.0,0.0,0.0,0.0,0.0,0.0,0.0,0.0,0.0,3.6684,3.6714,3.678,3.6925,3.7361,3.7606,3.7609,3.8201,3.8507,3.8525,3.8503,3.8506,3.8489,3.7995,3.7478,3.6953,3.6162,3.5677,3.5417,0.0,0.0,0.0,0.0,3.4486,3.444,3.4127,3.4018,3.4018,3.4018,0.0,0.0,0.0,0.0,0.0,0.0,0.0,3.3993,3.4171,3.4383,3.4615,3.4694,3.4774,3.4832,3.4733,3.4694,3.4653,3.4464,3.4423,3.4311,3.4037,3.3986,0.0,0.0,0.0,3.3807,3.3807,3.3807,3.3807,3.3807,3.3807,3.3807,3.3807,3.3807,3.3807,3.3807,3.3807,3.3734,3.355,3.3302,3.3014,0.0,0.0,0.0,0.0,0.0,0.0,0.0,0.0,0.0,0.0,0.0,0.0,0.0,0.0,0.0,0.0,0.0,0.0,0.0,0.0,0.0,0.0,0.0,0.0,0.0,0.0,0.0,0.0,3.4718,3.4712,3.463,3.5162,3.5321,0.0,0.0,0.0,0.0,0.0,0.0,3.6929,3.6961,3.7091,3.7299,3.7319,3.7408,3.7613,3.8151,3.8401,3.842,3.905,3.9357,3.9357,3.9357,3.9364,3.9322,3.8691,3.8284,3.8015,3.711,3.6675,3.6589,3.638,3.6303,3.6211,3.5587,3.5349,3.5285,3.4888,3.4748,3.4748,3.4748,3.4575,3.4346,3.3923,0.0,0.0,0.0,0.0,3.3842,3.4043,3.4147,3.4242,3.442,3.4508,3.4551,3.4464,3.4483,3.4442,3.4357,3.4334,3.4242,3.3935,3.3902,0.0,3.3815,3.3807,3.3807,3.3807,3.3807,3.3807,3.3807,3.3807,3.3807,3.3807,3.3807,3.3807,3.3807,3.3807,3.3807,3.3807,3.3522,3.3302,3.3214,0.0,0.0,0.0,0.0,0.0,0.0,0.0,0.0,0.0,0.0,0.0,0.0,0.0,0.0,0.0,0.0,0.0,0.0,0.0,0.0,0.0,0.0,0.0,0.0,0.0,0.0,0.0,0.0,0.0,3.583,3.7022,0.0,0.0,0.0,0.0,3.7037,3.6856,3.6952,3.7428,3.7704,3.8181,3.8958,3.8988,3.8983,3.8995,3.8781,3.8689,3.8689,3.8726,3.8744,3.8744,3.8744,3.8744,3.8738,3.8701,3.8664,3.8566,3.7219,3.6562,3.6313,3.6303,3.6303,3.6285,3.6248,3.6229,3.6229,3.6203,3.6185,3.6185,3.6185,3.5634,3.4798,3.4045,3.3807,0.0,0.0,3.3807,3.3788,3.3815,3.3993,3.4147,3.3902,3.4043,3.4147,3.3902,3.3842,3.4005,3.4569,3.4674,3.4572,3.4242,0.0,3.4074,3.3842,3.3807,3.3807,3.3807,3.3807,3.3807,3.3807,3.3807,3.3807,3.3807,3.3807,3.3807,3.3807,3.3807,3.3807,3.3807,3.378,3.3578,3.3214,3.3184,0.0,0.0,0.0,0.0,0.0,0.0,0.0,0.0,0.0,0.0,0.0,0.0,0.0,0.0,0.0,0.0,0.0,0.0,0.0,0.0,0.0,0.0,0.0,0.0,0.0,0.0,0.0,0.0,3.6767,3.7471,0.0,3.7352,3.8151,3.8479,3.7974,3.8539,3.8777,3.8546,3.8607,3.8726,3.8836,3.8836,3.8836,3.8836,3.8744,3.8707,3.8707,3.8707,3.8707,3.8707,3.8707,3.8707,3.8707,3.8707,3.8707,3.8652,3.8166,3.7945,3.7845,3.7845,3.7845,3.7771,3.7257,3.7055,3.6982,3.6468,3.6303,3.6303,3.6303,3.6083,3.5789,3.5495,3.5404,3.5404,3.5404,3.5404,3.5404,3.5404,3.5469,3.5532,3.5432,3.5469,3.5532,3.5432,3.4981,3.4632,3.4858,3.4482,3.4087,3.3961,3.3935,3.3902,3.3815,3.3807,3.3807,3.3807,3.3807,3.3807,3.3807,3.3807,3.3807,3.3807,3.3807,3.3807,3.3807,3.3807,3.3807,3.3807,3.3807,3.3734,3.3578,3.3578,3.3166,0.0,0.0,0.0,0.0,0.0,0.0,0.0,0.0,0.0,0.0,0.0,0.0,0.0,0.0,0.0,0.0,0.0,0.0,0.0,0.0,0.0,0.0,0.0,0.0,0.0,3.7217,3.7927,3.7631,3.8338,3.8618,3.8063,3.8962,3.9304,3.8693,3.9339,3.9534,3.8995,3.8977,3.8903,3.8707,3.8707,3.8707,3.8707,3.8707,3.8707,3.8707,3.8707,3.8707,3.8707,3.8707,3.8707,3.8707,3.8707,3.8707,3.8707,3.8707,3.8707,3.8707,3.8707,3.8707,3.8634,3.8102,3.79,3.7826,3.7294,3.711,3.7055,3.678,3.6688,3.6652,3.6376,3.6303,3.6303,3.6303,3.6303,3.6303,3.6303,3.6303,3.6303,3.6303,3.6303,3.6303,3.6303,3.5862,3.5459,3.5459,3.4559,3.3807,3.3807,3.3807,3.3807,3.3807,3.3807,3.3807,3.3807,3.3807,3.3807,3.3807,3.3807,3.3807,3.3807,3.3807,3.3807,3.3807,3.3807,3.3807,3.3807,3.368,3.3606,3.3606,3.3447,3.3087,3.2484,0.0,0.0,0.0,0.0,0.0,0.0,0.0,0.0,0.0,0.0,0.0,0.0,0.0,0.0,0.0,0.0,0.0,0.0,0.0,0.0,0.0,0.0,0.0,3.7425,3.823,3.8822,3.849,3.9658,4.0258,3.9665,3.99,3.9807,3.9141,3.9108,3.8977,3.8707,3.8707,3.8707,3.8707,3.8707,3.8707,3.8707,3.8707,3.8707,3.8707,3.8707,3.8707,3.8707,3.8707,3.8707,3.8707,3.8707,3.8707,3.8707,3.8707,3.8707,3.8707,3.8707,3.8707,3.8707,3.8707,3.8707,3.8707,3.8707,3.8707,3.8579,3.7771,3.7533,3.7386,3.6597,3.6376,3.6376,3.6376,3.6376,3.6376,3.6376,3.6376,3.6376,3.6376,3.6376,3.6376,3.6376,3.6358,3.634,3.634,3.5,3.388,3.388,3.388,3.388,3.388,3.3844,0.0,3.3844,3.3825,3.3807,3.3807,3.3807,3.3807,3.3807,3.3807,3.3807,3.3807,3.3807,3.3807,3.3807,3.3437,3.3214,3.3214,3.2745,3.2517,3.2517,0.0,0.0,0.0,0.0,0.0,0.0,0.0,0.0,0.0,0.0,0.0,0.0,0.0,0.0,0.0,0.0,0.0,0.0,0.0,0.0,0.0,3.9345,3.9471,3.8575,3.9371,3.9961,3.9656,3.9962,4.0065,3.9646,3.9675,3.9552,3.9133,3.9106,3.8977,3.8707,3.8707,3.8707,3.8707,3.8707,3.8707,3.8707,3.8707,3.8707,3.8707,3.8707,3.8707,3.8707,3.8707,3.8707,3.8707,3.8707,3.8707,3.8707,3.8707,3.8707,3.8707,3.8707,3.8707,3.8707,3.8707,3.8707,3.8707,3.8707,3.8707,3.867,3.8432,3.8377,3.8322,3.8102,3.8046,3.8046,3.8046,3.8046,3.8046,3.8046,3.8046,3.8046,3.8046,3.8046,3.8046,3.8046,3.7569,3.7165,3.7165,3.6321,3.5605,3.5605,3.5605,3.5605,3.5605,3.5073,3.4688,3.4688,3.4174,3.3807,3.3807,3.3807,3.3807,3.3807,3.3807,3.3807,3.3807,3.3807,3.3807,3.3807,3.3707,3.3652,3.3652,3.3225,3.3014,0.0,0.0,0.0,0.0,0.0,0.0,0.0,0.0,0.0,0.0,0.0,0.0,0.0,0.0,0.0,0.0,0.0,0.0,0.0,0.0,0.0,0.0,3.9668,3.973,3.9257,3.9852,4.0212,3.9924,3.9907,3.9753,3.9413,3.9388,3.9265,3.8958,3.894,3.8854,3.8707,3.8707,3.8707,3.8707,3.8707,3.8707,3.8707,3.8707,3.8707,3.8707,3.8707,3.8707,3.8707,3.8707,3.8707,3.8707,3.8707,3.8707,3.8707,3.8707,3.8707,3.8707,0.0,0.0,0.0,0.0,3.8707,3.8707,3.8707,3.8707,3.8707,3.8707,3.8707,3.8707,3.8707,3.8707,3.8707,3.8707,3.8707,3.8707,3.8707,3.8707,3.8707,3.8707,3.8707,3.8707,3.8707,3.8322,3.7991,3.7991,3.7624,0.0,3.7312,3.6743,3.6303,3.6303,3.5881,3.555,3.555,3.5147,3.4853,3.4853,3.4523,3.4302,3.4302,3.399,0.0,0.0,0.0,3.3734,3.355,3.355,0.0,0.0,0.0,3.3214,3.3214,3.3105,0.0,0.0,3.2745,3.289,0.0,0.0,0.0,0.0,0.0,0.0,0.0,0.0,0.0,0.0,0.0,0.0,0.0,0.0,0.0,0.0,3.9364,3.9599,3.9552,3.9819,3.9906,3.9572,3.9566,3.9458,3.9146,3.9148,3.9032,3.8762,3.8744,3.8762,3.8817,3.8836,0.0,0.0,0.0,3.8977,3.8977,3.8977,3.8977,3.8977,3.8977,3.8977,3.8977,3.8977,3.8977,3.8977,3.8977,3.8977,3.8977,3.8977,3.8977,3.8958,3.8762,3.8707,3.8707,3.8707,3.8707,3.8707,3.8707,0.0,0.0,3.8707,3.8707,3.8707,3.8707,3.8707,3.8707,3.8707,3.8707,3.8707,3.8707,3.8707,3.8707,3.8707,3.8707,3.8707,3.8707,3.8707,3.8707,3.8707,3.8707,3.8707,3.8707,3.7514,3.656,3.656,3.6486,3.6431,3.6431,3.6358,3.6303,3.6303,3.5624,0.0,3.5137,3.4504,3.4045,3.3935,3.3844,3.3634,3.3273,3.3273,3.3273,3.3273,3.3273,3.3273,3.3273,3.3625,3.3625,3.3273,3.284,3.2872,0.0,0.0,0.0,0.0,0.0,0.0,0.0,0.0,0.0,0.0,0.0,0.0,0.0,0.0,0.0,3.9099,3.9364,3.9505,3.9238,3.9505,3.958,3.9252,3.9444,3.9467,3.9141,3.9338,3.9357,3.905,3.9013,3.9209,3.9626,3.9663,3.9982,4.0615,4.0634,4.0634,4.0634,4.0634,4.0634,4.0634,4.0634,0.0,4.0634,4.0634,4.0634,4.0634,4.0634,4.0634,4.0634,4.0634,4.0634,4.0492,3.9209,3.8707,3.8707,3.8707,3.8707,3.8707,3.8707,3.8707,3.8707,3.8707,3.8707,3.8707,3.8707,3.8707,0.0,3.8707,3.8707,3.8707,3.8707,3.8707,3.8707,3.8707,3.8707,3.8707,3.8707,3.8707,3.8707,3.8707,3.8707,3.8707,3.8707,3.845,3.8248,3.8248,3.7679,3.7257,3.7257,3.6688,3.6303,3.6303,3.6156,3.6046,3.6046,3.5899,3.5514,3.4807,3.4174,3.378,3.368,3.368,3.368,3.368,3.368,3.368,3.368,3.3762,3.3762,3.368,3.3578,3.3606,0.0,0.0,0.0,0.0,0.0,0.0,0.0,0.0,0.0,0.0,0.0,3.8707,3.8707,0.0,3.8894,3.8894,3.9144,3.9289,3.9107,3.9389,3.9481,3.9133,3.9411,3.952,3.9368,3.9701,3.988,3.9705,3.997,4.022,4.0492,4.0501,4.0694,4.1093,4.1093,4.1093,4.1093,4.1093,4.1093,4.1093,4.1093,4.1093,4.1093,4.1093,4.1093,4.1093,4.1093,4.1093,4.1093,4.1093,4.1093,4.102,4.0207,3.9653,3.9246,3.8836,3.8707,3.8707,3.8707,3.8707,3.8707,3.8707,3.8707,3.8707,3.8707,3.8707,3.8707,3.8707,3.8707,3.8707,3.8707,3.8707,3.8707,3.8707,3.8707,3.8707,3.8707,3.8707,3.8707,3.8707,3.8707,3.8707,3.8707,3.8707,3.8707,3.8707,3.8358,3.8102,3.8102,3.7753,3.7496,3.7496,3.7129,3.689,3.689,3.6523,3.6101,3.5679,3.4871,3.4412,3.4412,3.4009,3.3807,3.3807,3.3807,3.3807,3.3807,3.3807,3.3807,3.3807,3.3807,3.3807,0.0,0.0,0.0,0.0,0.0,0.0,0.0,3.7773,3.8183,3.8627,3.8707,3.8707,3.8707,3.8707,3.8707,3.8707,3.8884,3.9008,3.9008,3.9439,3.9633,3.9368,3.9633,3.9815,3.9838,4.032,4.0607,4.054,4.0947,4.1254,4.1341,4.1306,4.1407,4.1535,4.1588,4.1588,4.1588,4.1588,4.1588,4.1588,4.1588,4.1588,4.1588,4.1588,4.1588,4.1588,4.1588,4.1588,4.1588,4.1588,4.1588,4.1535,4.1389,4.0958,4.0257,3.9454,3.9166,3.9166,3.9166,3.9166,3.9166,3.9166,3.9166,3.9148,3.8982,3.8927,3.8909,3.8744,3.8707,3.8707,3.8707,3.8707,3.8707,3.8707,3.8707,3.8707,3.8707,3.8707,3.8707,3.8707,3.8707,3.8707,3.8707,3.8707,3.8707,3.8707,3.8707,3.8707,3.8707,3.8707,3.8707,3.8707,3.812,3.7716,3.7716,3.7,3.6523,3.6523,3.5734,3.5247,3.5247,3.4633,3.4211,3.4045,3.4027,3.3972,3.3807,3.3807,3.3807,3.3807,3.3807,3.3807,3.5622,3.6316,3.721,3.7649,3.815,3.8515,0.0,3.8578,3.8627,3.8707,3.8707,3.8707,3.8707,3.8707,3.8707,3.8707,3.8719,3.8732,3.8732,3.9592,4.0207,4.017,4.0471,4.0669,4.0674,4.1363,4.1704,4.1474,4.1512,4.1714,4.213,4.215,4.2496,4.3206,4.3224,4.3224,4.3224,4.3224,4.3224,4.3224,4.3224,4.3224,4.3224,4.3224,4.3224,4.3224,4.3224,4.3224,4.3224,4.3224,4.3224,4.3151,4.2459,4.2095,4.191,4.1126,4.0827,4.0827,4.0818,4.0836,4.0836,4.0836,4.0836,4.0708,3.9974,3.9772,3.9625,3.8909,3.8707,3.8707,3.8707,3.8707,3.8707,3.8707,3.8707,3.8707,3.8707,3.8707,3.8707,3.8707,3.8707,3.8707,3.8707,3.8707,3.8707,3.8707,3.8707,3.8707,3.8707,3.8707,3.8707,3.8707,3.8615,3.8579,3.8579,3.7826,3.7349,3.7349,3.6597,3.6156,3.6156,3.6064,3.5661,3.4862,3.4862,3.4523,3.3807,3.3807,3.3807,3.3807,3.3807,3.3807,3.6357,3.6865,3.7323,3.779,3.8065,3.8216,3.8216,3.8216,3.8332,3.8627,3.8707,3.8707,3.8707,3.8707,3.8707,3.8707,3.922,3.9626,3.9626,4.0588,4.129,4.129,4.1705,4.1844,4.1525,4.207,4.2425,4.2302,4.2558,4.2787,4.3004,4.3023,4.3151,4.3479,4.3497,4.3497,4.3497,4.3497,4.3497,4.3497,4.3497,4.3497,4.3497,4.3497,4.3497,4.3497,4.3497,4.3497,4.3497,4.3497,4.3497,4.3461,4.3133,4.3023,4.2823,4.158,4.1101,4.1111,4.1111,4.1111,4.1111,4.1111,4.1111,4.1056,4.0708,4.0598,4.0543,4.0194,4.0102,3.9992,3.9515,3.9405,3.9276,3.8817,3.8707,3.8707,3.8707,3.8707,3.8707,3.8707,3.8707,3.8707,3.8707,3.8707,3.8707,3.8707,3.8707,3.8707,3.8707,3.8707,3.8707,3.8707,3.8707,3.8707,3.8707,3.8395,3.8193,3.8193,3.7422,3.6982,3.6982,3.6541,3.6138,3.5771,3.5771,3.5349,3.4504,3.4504,3.4266,3.3807,3.3807,3.3807,3.6724,3.7114,3.7323,3.779,3.8013,3.8099,3.8099,3.8099,3.8216,3.8627,3.8707,3.8781,3.9001,3.9038,3.9111,3.9331,4.0018,4.0529,4.0529,4.1418,4.2089,4.2089,4.2627,4.2846,4.2455,4.2765,4.2984,4.2984,4.3299,4.3497,4.3497,4.3497,4.3497,4.3497,4.3497,4.3497,4.3497,4.3497,4.3497,4.3497,4.3497,4.3497,4.3497,4.3497,4.3497,4.3497,4.3497,4.3497,4.3497,4.3497,4.3497,4.3497,4.3497,4.3497,4.3369,4.2205,4.1766,4.1776,4.1772,4.1772,4.1772,4.1772,4.1772,4.1735,4.1515,4.1442,4.1387,4.1167,4.1111,4.0983,4.0377,4.023,4.0084,3.9496,3.9368,3.9368,3.9368,3.9203,3.9038,3.9038,3.8854,3.8707,3.8707,3.8707,3.8707,3.8707,3.8707,3.8707,3.8707,3.8707,3.8707,3.8707,3.8707,3.8707,3.8707,3.8707,3.8707,3.8707,3.8138,3.7826,3.7826,3.7257,3.6853,3.6633,3.6615,3.6211,3.5367,3.5367,3.5073,3.4486,3.4247,3.4137,3.6249,3.6803,3.7323,3.779,3.83,3.8676,3.8676,3.8676,3.8676,3.8707,3.8707,3.8946,3.9717,3.9845,4.012,4.091,4.1056,4.1075,4.1075,4.1787,4.2283,4.2283,4.2999,4.3477,4.344,4.3477,4.3495,4.3495,4.3479,4.3497,4.3497,4.3497,4.3497,4.3497,4.3497,4.3497,4.3497,4.3497,4.3497,4.3497,4.3497,4.3497,4.3497,4.3497,4.3497,4.3497,4.3497,4.3497,4.3497,4.3497,4.3497,4.3497,4.3497,4.3497,4.3479,4.3442,4.3424,4.3424,4.3424,4.3424,4.3424,4.3424,4.3424,4.3277,4.2506,4.2268,4.2103,4.1332,4.1111,4.1111,4.1075,4.1075,4.1075,4.1038,4.1038,4.1038,4.1038,4.0414,3.9845,3.9845,3.9239,3.8707,3.8707,3.8707,3.8707,3.8707,3.8707,3.8707,3.8707,3.8707,3.8707,3.8707,3.8707,3.8707,3.8707,3.8707,3.8707,3.8707,3.8689,3.867,3.867,3.8652,3.8267,3.7489,3.7441,3.7055,3.6266,3.6266,3.6248,3.6193,3.5367,3.4954,3.7155,3.7542,3.7808,3.83,3.8578,3.8836,3.9368,3.9496,3.9643,4.0194,4.0304,4.0396,4.0653,4.0708,4.0781,4.1075,4.1552,4.1901,4.1901,4.2598,4.3159,4.3397,4.3669,4.3943,4.4194,4.4004,4.3758,4.3513,4.3693,4.3726,4.3513,4.3497,4.3497,4.3497,4.3497,4.3497,4.3497,4.3497,4.3497,4.3497,4.3497,4.3497,4.3497,4.3497,4.3497,4.3497,4.3497,4.3497,4.3497,4.3497,4.3497,4.3497,4.3497,4.3497,4.3497,4.3497,4.3497,4.3497,4.3497,4.3497,4.3497,4.3497,4.3497,4.3442,4.3167,4.3094,4.3039,4.2763,4.269,4.2561,4.2029,4.1901,4.1772,4.124,4.1111,4.1111,4.1111,4.0891,4.0708,4.0708,4.0047,3.9496,3.9496,3.9056,3.8707,3.8707,3.8707,3.8707,3.8707,3.8707,3.8707,3.8707,3.8707,3.8707,3.8707,3.8707,3.8707,3.8707,3.8707,3.8707,3.8707,3.8707,3.8579,3.8303,3.8303,3.79,3.7092,3.7092,3.6817,3.6285,3.6009,3.5862,3.7685,3.7893,3.8086,3.8925,3.9129,3.935,4.0157,4.0322,4.0487,4.1001,4.1111,4.1203,4.1497,4.1534,4.1625,4.1919,4.2396,4.2727,4.2727,4.3266,4.3758,4.3986,4.4136,4.4337,4.458,4.4364,4.4076,4.3693,4.3881,4.3849,4.3513,4.3497,4.3497,4.3497,4.3497,4.3497,4.3497,4.3497,4.3497,4.3497,4.3497,4.3497,4.3497,4.3497,4.3497,4.3497,4.3497,4.3497,4.3497,4.3497,4.3497,4.3497,4.3497,4.3497,4.3497,4.3497,4.3497,4.3497,4.3497,4.3497,4.3497,4.3497,4.3497,4.3497,4.3497,4.3497,4.3497,4.3497,4.3497,4.3369,4.2855,4.2727,4.2598,4.2084,4.1974,4.1974,4.1974,4.1735,4.1534,4.1534,4.0891,4.0322,4.0322,3.9662,3.9038,3.8744,3.8707,3.8707,3.8707,3.8707,3.8707,3.8707,3.8707,3.8707,3.8707,3.8707,3.8707,3.8707,3.8707,3.8707,3.8707,3.8707,3.8707,3.8707,3.8707,3.845,3.7918,3.7918,3.7661,3.7147,3.6853,3.6725,3.779,3.7964,3.8301,3.9585,3.9918,4.0175,4.0983,4.1167,4.1185,4.1222,4.124,4.1479,4.2213,4.2359,4.2598,4.3369,4.3497,4.3497,4.3497,4.3804,4.4016,4.4046,4.4373,4.4631,4.4631,4.465,4.4474,4.4087,4.4028,4.3849,4.3513,4.3497,4.3497,4.3497,4.3497,4.3497,4.3497,4.3497,4.3497,4.3497,4.3497,4.3497,4.3497,4.3497,4.3497,4.3497,4.3497,4.3497,4.3497,4.3497,4.3497,4.3497,4.3497,4.3497,4.3497,4.3497,4.3497,4.3497,4.3497,4.3497,4.3497,4.3497,4.3497,4.3497,4.3497,4.3497,4.3497,4.3497,4.3497,4.3497,4.3497,4.3497,4.3497,4.3497,4.3497,4.3497,4.3497,4.2892,4.2359,4.2359,4.1717,4.1167,4.113,4.0469,3.968,3.8891,3.8762,3.8762,3.8707,3.8707,3.8707,3.8707,3.8707,3.8707,3.8707,3.8707,3.8707,3.8707,3.8707,3.8707,3.8707,3.8707,3.8707,3.8707,3.8707,3.8707,3.8707,3.8707,3.8707,3.8689,3.7918,3.7551,3.835,3.8935,3.9479,3.9795,4.0359,4.1001,4.1809,4.1992,4.2158,4.2763,4.2892,4.2947,4.3149,4.3185,4.3259,4.3461,4.3497,4.3497,4.3497,4.3804,4.4117,4.4419,4.4757,4.5074,4.5322,4.5118,4.4943,4.483,4.4299,4.3849,4.3513,4.3497,4.3497,4.3497,4.3497,4.3497,4.3497,4.3497,4.3497,4.3497,4.3497,4.3497,4.3497,4.3497,4.3497,4.3497,4.3497,4.3497,4.3497,4.3497,4.3497,4.3497,4.3497,4.3497,4.3497,4.3497,4.3497,4.3497,4.3497,4.3497,4.3497,4.3497,4.3497,4.3497,4.3497,4.3497,4.3497,4.3497,4.3497,4.3497,4.3497,4.3497,4.3497,4.3497,4.3497,4.3497,4.3497,4.3332,4.3185,4.3185,4.2543,4.1809,4.1203,4.0946,4.0524,3.9717,3.9588,3.9386,3.8781,3.8707,3.8707,3.8707,3.8707,3.8707,3.8707,3.8707,3.8707,3.8707,3.8707,3.8707,3.8707,3.8707,3.8707,3.8707,3.8707,3.8707,3.8707,3.8707,3.8707,3.8707,3.8487,3.8395,3.8627,3.9294,3.9974,4.0341,4.1038,4.1846,4.2635,4.2818,4.2947,4.3406,4.3497,4.3497,4.3497,4.3497,4.3497,4.3497,4.3497,4.3497,4.3497,4.3804,4.4146,4.4553,4.4896,4.5222,4.5568,4.5302,4.5052,4.4896,4.4346,4.3924,4.3726,4.3563,4.3497,4.3497,4.3826,4.4207,4.4554,4.4554,4.4554,4.4554,4.4554,4.4354,4.4026,4.4026,4.3807,4.3497,4.3497,4.3497,4.3497,4.3497,4.3497,4.3497,4.3497,4.3497,4.3497,4.3497,4.3497,4.3529,4.3669,4.372,4.3695,4.356,4.3497,4.3513,4.366,4.3726,4.3758,4.3931,4.3868,4.3726,4.3726,4.3631,4.3497,4.3497,4.3497,4.3497,4.3497,4.3497,4.3497,4.3497,4.313,4.2561,4.1772,4.1644,4.135,4.0561,4.012,3.9735,3.9276,3.8927,3.8707,3.8707,3.8707,3.8707,3.8707,3.8707,3.8707,3.8707,3.8707,3.8707,3.8707,3.8707,3.8707,3.8707,3.8707,3.8707,3.8707,3.8707,3.8707,3.8707,3.8707,3.8707,3.8836,3.9441,4.0249,4.1075,4.1864,4.2635,4.3332,4.3497,4.3497,4.3497,4.3497,4.3497,4.3497,4.3497,4.3497,4.3497,4.3497,4.3497,4.3497,4.3836,4.4204,4.4553,4.4943,4.5282,4.5568,4.5302,4.5007,4.4757,4.429,4.3986,4.3924,4.3646,4.3534,4.366,4.4448,4.5199,4.5895,4.5895,4.5895,4.5895,4.5895,4.5547,4.4869,4.4849,4.441,4.366,4.366,4.3605,4.3497,4.3497,4.3497,4.3497,4.3497,4.3497,4.3497,4.3497,4.3516,4.3615,4.3895,4.4018,4.4033,4.3738,4.3664,4.3712,4.3986,4.4087,4.4146,4.4501,4.4364,4.4087,4.4087,4.3836,4.3582,4.3582,4.3548,4.3497,4.3497,4.3497,4.3497,4.3497,4.3497,4.3277,4.258,4.2451,4.2194,4.1387,4.0671,4.0175,4.0065,3.9258,3.8707,3.8707,3.8707,3.8707,3.8707,3.8707,3.8707,3.8707,3.8707,3.8707,3.8707,3.8707,3.8707,3.8707,3.8707,3.8707,3.8707,3.8707,3.8707,3.8707,3.8707,3.8707,3.9515,4.0286,4.1093,4.1901,4.269,4.3314,4.3461,4.3497,4.3497,4.3497,4.3497,4.3497,4.3497,4.3497,4.3497,4.3497,4.3497,4.3497,4.3497,4.4065,4.4527,4.458,4.514,4.555,4.5586,4.5302,4.5201,4.5419,4.4542,4.3881,4.3597,4.3548,4.3789,4.4481,4.526,4.5752,4.59,4.59,4.59,4.59,4.59,4.5845,4.5698,4.5679,4.525,4.4499,4.4499,4.4099,4.3497,4.3497,4.3497,4.3497,4.3497,4.3497,4.3497,4.3497,4.3679,4.3915,4.3992,4.4229,4.4479,4.4442,4.4392,4.4419,4.4474,4.4501,4.4501,4.458,4.4553,4.4501,4.4501,4.4223,4.3893,4.3893,4.3693,4.3497,4.3497,4.3497,4.3497,4.3497,4.3497,4.3442,4.3314,4.3277,4.302,4.2213,4.1974,4.1644,4.0983,3.9625,3.8707,3.8707,3.8707,3.8707,3.8707,3.8707,3.8707,3.8707,3.8707,3.8707,3.8707,3.8707,3.8707,3.8707,3.8707,3.8707,3.8707,3.8707,3.8707,3.8707,3.8707,3.8707,3.979,4.0799,4.1827,4.2194,4.2892,4.3497,4.3497,4.3497,4.3497,4.3497,4.3497,4.3497,4.3497,4.3497,4.3497,4.3497,4.3646,4.3693,4.3513,4.4125,4.458,4.458,4.5052,4.5419,4.5586,4.5438,4.5342,4.5342,4.4858,4.4425,4.4083,4.4304,4.489,4.592,4.6542,4.6962,4.7145,4.7145,4.7145,4.7145,4.7366,4.7126,4.6519,4.6728,4.6049,4.4693,4.4706,4.4244,4.3497,4.3497,4.3497,4.3497,4.3497,4.3497,4.3516,4.3697,4.3879,4.4051,4.4448,4.469,4.4879,4.505,4.4877,4.4631,4.4825,4.4872,4.4896,4.5055,4.4988,4.4872,4.4872,4.4606,4.4261,4.4058,4.374,4.3497,4.3497,4.3497,4.3497,4.3497,4.3497,4.3497,4.3497,4.3497,4.3369,4.2983,4.2561,4.2158,4.1772,4.0689,3.979,3.9368,3.9313,3.9148,3.8744,3.8707,3.8707,3.8707,3.8707,3.8707,3.8707,3.8707,3.8707,3.8707,3.8707,3.8707,3.8707,3.8707,3.8707,3.8707,3.8707,3.8707,4.0102,4.1203,4.2341,4.2506,4.302,4.3497,4.3497,4.3497,4.3497,4.3497,4.3497,4.3497,4.3497,4.3497,4.3497,4.3497,4.3726,4.3836,4.3612,4.4165,4.465,4.4701,4.4988,4.5322,4.5568,4.5586,4.5495,4.5222,4.5317,4.5205,4.4871,4.5531,4.6334,4.7175,4.7721,4.8066,4.8306,4.8306,4.8306,4.8306,4.862,4.8311,4.7506,4.7813,4.7053,4.5455,4.5185,4.4628,4.3879,4.3624,4.3497,4.3497,4.3497,4.3516,4.3642,4.3915,4.4096,4.4322,4.4897,4.5163,4.5259,4.5509,4.5243,4.4853,4.5118,4.5201,4.5263,4.5532,4.5419,4.5201,4.5201,4.4919,4.4501,4.4106,4.3849,4.3744,4.3744,4.3679,4.3597,4.3597,4.3548,4.3497,4.3497,4.3497,4.3497,4.3497,4.2947,4.2561,4.2561,4.2011,4.1313,4.0487,4.0249,3.99,3.9276,3.9056,3.8964,3.8964,3.8799,3.8707,3.8707,3.8707,3.8707,3.8707,3.8707,3.8707,3.8707,3.8707,3.8707,3.8707,3.8707,3.8707,4.0799,4.1644,4.2488,4.3204,4.3442,4.3497,4.3497,4.3497,4.3497,4.3497,4.3497,4.3497,4.3497,4.3497,4.3497,4.3497,4.3513,4.3646,4.3912,4.4337,4.4707,4.503,4.5342,4.5568,4.5586,4.5586,4.5586,4.5568,4.5953,4.6027,4.5704,4.7182,4.7903,4.7654,4.8394,4.8638,4.8306,4.8306,4.8306,4.8306,4.8343,4.8488,4.8728,4.8777,4.8471,4.7901,4.6799,4.5872,4.5031,4.3952,4.3497,4.3497,4.3497,4.3697,4.397,4.3989,4.4412,4.5017,4.5089,4.5297,4.5547,4.5586,4.5568,4.5513,4.5531,4.5568,4.5568,4.5586,4.5568,4.5568,4.5568,4.5096,4.4501,4.4106,4.4252,4.4501,4.4501,4.4223,4.3955,4.3955,4.3693,4.3497,4.3497,4.3497,4.3497,4.3497,4.3424,4.3387,4.3387,4.3314,4.2965,4.2176,4.1442,4.0965,4.091,4.0212,3.979,3.979,3.9093,3.8707,3.8707,3.8707,3.8707,3.8707,3.8707,3.8707,3.8707,3.8707,3.8707,3.8707,3.8707,3.8707,4.1249,4.2207,4.3094,4.3406,4.3497,4.3497,4.3497,4.3497,4.3497,4.3497,4.3497,4.3497,4.3497,4.3497,4.3497,4.3497,4.3679,4.3849,4.3986,4.4508,4.4943,4.5074,4.54,4.5586,4.5586,4.5586,4.5586,4.5586,4.67,4.7338,4.7191,4.8118,4.8596,4.8433,4.899,4.8952,4.8324,4.8565,4.8565,4.8324,4.9044,4.9211,4.8915,4.94,4.9132,4.8226,4.7238,4.6223,4.5231,4.4226,4.3679,4.3516,4.3716,4.3897,4.407,4.4501,4.4853,4.5143,4.5336,4.549,4.5586,4.5586,4.5586,4.5586,4.5586,4.5586,4.5586,4.5586,4.5586,4.5586,4.5586,4.5243,4.4872,4.4688,4.4631,4.4527,4.429,4.4117,4.3924,4.3758,4.3597,4.3497,4.3497,4.3497,4.3497,4.3497,4.3497,4.3497,4.3497,4.3497,4.3369,4.3057,4.2304,4.1644,4.1148,4.0818,4.0616,4.0616,4.0322,4.0157,4.0157,3.968,3.9423,3.9423,3.8946,3.8707,3.8707,3.8707,3.8707,3.8707,3.8707,3.8707,4.195,4.2943,4.3823,4.3823,4.3823,4.3791,4.3679,4.3726,4.3791,4.3679,4.3726,4.3823,4.3823,4.3823,4.3823,4.3823,4.4016,4.4204,4.4299,4.4762,4.5137,4.5243,4.5476,4.5586,4.5586,4.5586,4.5701,4.597,4.7314,4.8218,4.8486,4.9086,4.9375,4.926,4.9415,4.9154,4.8471,4.8638,4.8587,4.8329,4.9159,4.9325,4.8931,4.9606,4.9509,4.8779,4.7934,4.6957,4.59,4.4846,4.4081,4.3679,4.3915,4.4068,4.4261,4.4879,4.5163,4.5278,4.5509,4.5586,4.5586,4.5586,4.5586,4.5586,4.5586,4.5586,4.5586,4.5586,4.5586,4.5568,4.5476,4.5342,4.5222,4.5118,4.5007,4.483,4.4542,4.4382,4.4233,4.3899,4.3744,4.3631,4.3513,4.3497,4.3497,4.3497,4.3497,4.3497,4.3497,4.3497,4.3497,4.3497,4.2983,4.2433,4.1864,4.1589,4.146,4.146,4.124,4.1111,4.1111,4.0561,4.0249,4.0249,3.9698,3.9423,3.9423,3.9166,3.9056,3.9056,3.8817,3.8707,4.2956,4.39,4.458,4.458,4.458,4.4474,4.4106,4.429,4.4474,4.4076,4.4318,4.458,4.458,4.458,4.458,4.458,4.458,4.4707,4.5052,4.5096,4.5222,4.5568,4.5586,4.5586,4.5586,4.5586,4.5951,4.6817,4.764,4.8486,4.9335,5.0221,5.0491,5.0086,4.9696,4.9303,4.8915,4.8489,4.8314,4.8298,4.8306,4.8514,4.8913,4.9317,4.9721,5.0029,4.9221,4.8375,4.7452,4.5907,4.4791,4.4007,4.4007,4.4233,4.4628,4.4972,4.5316,4.5586,4.5586,4.5586,4.5586,4.5586,4.5586,4.5586,4.5586,4.5586,4.5586,4.5586,4.5586,4.5513,4.5201,4.5342,4.5513,4.518,4.5342,4.5586,4.5586,4.5322,4.4988,4.4657,4.4261,4.3881,4.3582,4.3497,4.3497,4.3497,4.3497,4.3497,4.3497,4.3497,4.3497,4.3497,4.3479,4.3461,4.3461,4.2745,4.2286,4.2286,4.1552,4.1111,4.1111,4.1111,4.1093,4.1093,4.1093,4.1093,4.1075,4.0286,3.9882,3.9863,3.9074,3.8707,4.2522,4.3658,4.458,4.458,4.458,4.4553,4.4447,4.4501,4.4553,4.4447,4.4501,4.458,4.458,4.458,4.458,4.458,4.458,4.4726,4.5052,4.5096,4.5222,4.5568,4.5586,4.5586,4.5586,4.5586,4.5969,4.6833,4.7643,4.8489,4.9337,5.0221,5.051,5.0106,4.9973,4.9728,4.9303,4.9154,4.8992,4.8712,4.8975,4.9029,4.8912,4.9319,4.973,5.0048,4.9202,4.8375,4.7511,4.6192,4.4992,4.4026,4.4299,4.4467,4.4664,4.524,4.5509,4.5586,4.5586,4.5586,4.5586,4.5586,4.5586,4.5586,4.5586,4.5586,4.5586,4.5586,4.5586,4.5568,4.5476,4.5513,4.5568,4.5476,4.5513,4.555,4.5302,4.5161,4.5007,4.4676,4.4501,4.4308,4.3912,4.3849,4.3772,4.3548,4.3497,4.3497,4.3497,4.3497,4.3497,4.3497,4.3497,4.3497,4.3497,4.3259,4.3112,4.3112,4.2873,4.2745,4.2745,4.2213,4.1919,4.1919,4.1387,4.1111,4.1111,4.0855,4.0726,4.0726,4.0469,4.0359,4.2964,4.405,4.4988,4.4988,4.4988,4.4943,4.4825,4.4896,4.4943,4.4806,4.4896,4.4988,4.4988,4.4988,4.4988,4.4988,4.4988,4.5033,4.5263,4.5302,4.5381,4.5568,4.5586,4.5586,4.5586,4.5586,4.6103,4.7258,4.7817,4.8606,4.9836,5.0414,5.0587,5.0337,5.0183,4.992,4.9496,4.9365,4.9154,4.8915,4.9007,4.9007,4.8915,4.9321,4.9623,4.9846,4.9614,4.8856,0.0,4.6701,4.5456,4.4244,4.4336,4.4448,4.4664,4.522,4.549,4.5586,4.5586,4.5586,4.5586,4.5586,4.5586,4.5586,4.5586,4.5586,4.5586,4.5586,4.5586,4.5586,4.5586,4.5586,4.5586,4.5586,4.5586,4.5531,4.5342,4.5302,4.5201,4.4849,4.48,4.4682,4.429,4.4087,4.3924,4.3726,4.3563,4.3497,4.3497,4.3497,4.3497,4.3497,4.3497,4.3497,4.3497,4.3497,4.3497,4.3497,4.3497,4.3497,4.3497,4.302,4.2745,4.2745,4.2268,4.2011,4.2011,4.1699,4.1405,4.1111,4.1111,4.1111,0.0,4.4893,4.5586,4.5586,4.5586,4.5513,4.5201,4.5381,0.0,4.5201,4.5381,4.5586,4.5586,4.5586,4.5586,4.5586,4.5586,4.5586,4.5586,4.5586,4.5586,4.5586,4.5586,4.5586,4.5586,4.5663,4.6355,4.7971,4.8145,4.8914,5.0606,5.0702,5.0702,5.0702,5.0337,4.9952,4.9606,4.918,4.8988,4.8989,4.8568,4.8586,4.897,4.934,4.9508,4.9565,5.0316,4.9683,4.8049,4.7393,4.613,4.4573,4.4207,4.428,4.4652,4.4974,4.5316,4.5586,4.5586,4.5586,4.5586,4.5586,4.5586,4.5586,4.5586,4.5586,4.5586,4.5586,4.5586,4.5586,4.5586,4.5586,4.5586,4.5586,4.5586,4.5586,4.5586,4.5586,4.5513,4.5201,4.5137,4.503,4.4682,4.4318,4.4058,4.4016,4.3726,4.3513,4.3479,4.3497,4.3497,4.3497,4.3497,4.3497,4.3497,4.3497,4.3497,4.3497,4.3497,4.3497,4.3497,4.3497,4.3497,4.3497,4.3497,4.3497,4.3497,4.2745,4.2011,4.1277,4.1277,4.1277,4.3299,0.0,4.5586,4.5586,4.5586,4.5586,0.0,4.5531,4.5568,4.5495,4.555,4.5586,4.5586,4.5586,4.5586,4.5586,4.5586,4.5586,4.5586,4.5586,4.5586,4.5586,4.5586,4.5586,4.5586,4.6201,4.7009,4.8008,4.872,4.9548,5.0625,5.0702,5.0702,5.0702,5.0606,5.051,5.0414,5.0023,4.9837,4.9821,4.94,4.9267,4.9358,4.945,4.9664,4.9968,5.0159,4.9433,4.8087,4.7643,4.632,4.4591,4.4518,4.4531,4.4662,4.4993,4.5316,4.5586,4.5586,4.5586,4.5586,4.5586,4.5586,4.5586,4.5586,4.5586,4.5586,4.5586,4.5586,4.5586,4.5586,4.5586,4.5586,4.5586,4.5586,4.5586,4.5586,4.5586,4.5568,4.5495,4.5495,4.5381,4.5052,4.49,4.4638,4.4087,4.3924,4.3804,4.3548,4.3497,4.3497,4.3497,4.3497,4.3497,4.3497,4.3497,4.3497,4.3497,4.3497,4.3497,4.3497,4.3497,4.3497,4.3497,4.3497,4.3497,4.3497,4.3296,4.3112,4.2928,4.2928,4.2928,4.2989,4.4316,4.5586,4.5586,4.5586,4.5586,4.5586,4.5586,4.5586,4.5586,4.5586,4.5586,4.5586,4.5643,4.568,4.5605,4.5643,4.568,4.5605,4.5586,4.5586,4.5586,4.5586,4.5586,4.5586,4.6394,4.7221,4.8047,4.8913,4.9798,5.0644,5.0702,5.0702,5.0702,5.0702,5.0606,5.0433,5.0214,5.0086,5.0116,4.9675,4.9595,4.9784,4.9566,4.9701,5.0067,4.9683,4.8971,4.803,4.7142,4.5929,4.456,4.4216,4.4299,4.4628,4.4791,4.5182,4.5586,4.5586,4.5586,4.5586,4.5586,4.5586,4.5586,4.5586,4.5586,4.5586,4.5586,4.5586,4.5586,4.5586,4.5586,4.5586,4.5586,4.5586,4.5586,4.5586,4.5586,4.5586,4.5586,4.5586,4.5531,4.5362,4.5201,4.4966,4.4542,4.4233,4.3924,4.374,4.3597,4.3497,4.3497,4.3497,4.3497,4.3497,4.3497,4.3497,4.3497,4.3497,4.3497,4.3497,4.3497,4.3497,4.3497,4.3497,4.3497,4.3497,4.3497,4.3497,4.3497,4.3497,4.3497,4.2854,4.422,4.5432,4.5566,4.5586,4.5586,4.5586,4.5586,4.5586,4.5586,4.5586,4.5605,4.5624,4.5719,4.5738,4.5654,4.5697,4.5738,4.5605,4.5586,4.5586,4.5586,4.5586,4.5643,4.5778,4.6586,4.7432,4.824,4.9106,4.9913,5.0644,5.0702,5.0702,5.0702,5.0702,5.0529,5.0202,5.0202,5.0202,5.0202,4.9856,4.9836,5.0086,4.9817,4.9853,5.0049,4.9258,4.8548,4.7895,4.6471,4.5342,4.4452,4.3825,4.4007,4.4609,4.4601,4.501,4.5586,4.5586,4.5586,4.5586,4.5586,4.5586,4.5586,4.5586,4.5586,4.5586,4.5586,4.5586,4.5586,4.5586,4.5586,4.5586,4.5586,4.5586,4.5586,4.5586,4.5586,4.5586,4.5586,4.5586,4.5586,4.5586,4.5362,4.514,4.5052,4.4535,4.4117,4.3955,4.3726,4.3582,4.3532,4.3497,4.3497,4.3497,4.3497,4.3497,4.3497,4.3497,4.3497,4.3497,4.3497,4.3497,4.3497,4.3497,4.3497,4.3497,4.3497,4.3497,4.3497,4.3497,4.3497,4.2854,4.3778,4.4682,4.5413,4.5586,4.5586,4.5586,4.5586,4.5586,4.5586,4.5586,4.5624,4.5757,4.5699,4.5651,4.5757,4.5692,4.5605,4.5586,4.5586,4.5586,4.5586,4.5586,4.5893,4.6624,4.7451,4.8279,4.9144,5.001,5.0548,5.0683,5.0702,5.0702,5.0702,5.0702,5.0664,5.0606,5.0606,5.0606,5.0606,5.0548,5.0375,5.0106,5.0394,5.0355,5.0056,4.9534,4.8702,4.7584,4.6641,4.5384,4.4096,4.3981,4.4207,4.4609,4.4601,4.501,4.5586,4.5586,4.5586,4.5586,4.5586,4.5586,4.5586,4.5586,4.5586,4.5586,4.5586,4.5586,4.5586,4.5586,4.5586,4.5586,4.5586,4.5586,4.5586,4.5586,4.5586,4.5586,4.5586,4.5586,4.5586,4.5586,4.5568,4.5342,4.4757,4.4806,4.4612,4.3693,4.3772,4.3818,4.3548,4.3497,4.3497,4.3497,4.3497,4.3497,4.3497,4.3497,4.3497,4.3497,4.3497,4.3497,4.3497,4.3497,4.3497,4.3497,4.3497,4.3497,4.3497,4.3497,4.3497,4.2739,4.3374,4.397,4.5259,4.5586,4.5605,4.5699,4.5719,4.5719,4.5719,4.5719,4.5738,4.5796,4.5781,4.5777,4.5834,4.5764,4.568,4.5605,4.5586,4.5586,4.5586,4.5586,4.5932,4.6817,4.7625,4.8471,4.9336,5.0202,5.0702,5.0702,5.0702,5.0702,5.0702,5.0702,5.0702,5.0702,5.0702,5.0702,5.0702,5.0702,5.0587,5.0413,5.0377,5.0136,4.9683,4.8783,4.7818,4.6817,4.5784,4.4856,4.3989,4.3789,4.4081,4.4646,4.5001,4.5336,4.5586,4.5586,4.5586,4.5586,4.5586,4.5586,4.5586,4.5586,4.5586,4.5586,4.5586,4.5586,4.5586,4.5586,4.5586,4.5586,4.5586,4.5586,4.5586,4.5586,4.5586,4.5586,4.5586,4.5586,4.5586,4.5586,4.5586,4.5495,4.5182,4.4966,4.4707,4.4401,4.3986,4.3758,4.3772,4.3597,4.3497,4.3497,4.3497,4.3497,4.3497,4.3497,4.3497,4.3497,4.3497,4.3497,4.3497,4.3497,4.3497,4.3497,4.3497,4.3497,4.3497,4.3497,4.3497,4.2624,4.3104,4.3508,4.5182,4.5586,4.5624,4.5776,4.5796,4.5794,4.5831,4.5825,4.5815,4.5815,4.5852,4.5866,4.5828,4.5796,4.5719,4.5605,4.5586,4.5586,4.5586,4.5586,4.6009,4.7086,4.774,4.8548,4.9625,5.0317,5.0702,5.0702,5.0702,5.0702,5.0702,5.0702,5.0702,5.0702,5.0702,5.0702,5.0702,5.0702,5.0644,5.0548,5.0116,4.9693,4.9183,4.7914,4.6914,4.6089,4.5025,4.4318,4.3879,4.3697,4.4059,4.4793,4.5395,4.5586,4.5586,4.5586,4.5586,4.5586,4.5586,4.5586,4.5586,4.5586,4.5586,4.5586,4.5586,4.5586,4.5586,4.5586,4.5586,4.5586,4.5586,4.5586,4.5586,4.5586,4.5586,4.5586,4.5586,4.5586,4.5586,4.5586,4.5586,4.5568,4.5495,4.5118,4.4849,4.4853,4.428,4.3912,4.3986,4.3772,4.3597,4.3532,4.3497,4.3497,4.3497,4.3497,4.3497,4.3497,4.3497,4.3497,4.3497,4.3497,4.3497,4.3497,4.3497,4.3497,4.3497,4.3497,4.3497,4.2624,4.3104,4.3508,4.5182,4.5586,4.5624,4.5776,4.5796,4.5835,4.588,4.5886,4.5892,4.5892,4.5851,4.5772,4.5642,4.5605,4.5605,4.5586,4.5586,4.5586,4.5586,4.5586,4.624,4.7855,4.8067,4.8798,5.0471,5.0644,5.0702,5.0702,5.0702,5.0702,5.0702,5.0702,5.0702,5.0702,5.0702,5.0702,5.0702,5.0702,5.0491,5.0125,4.9661,4.9218,4.8779,4.7508,4.6525,4.5782,4.495,4.4189,4.3569,4.3826,4.4412,4.5093,4.5472,4.5586,4.5586,4.5586,4.5586,4.5586,4.5586,4.5586,4.5586,4.5586,4.5586,4.5586,4.5586,4.5586,4.5586,4.5586,4.5586,4.5586,4.5586,4.5586,4.5586,4.5586,4.5586,4.5586,4.5586,4.5586,4.5586,4.5586,4.5586,4.5495,4.518,4.5362,4.5182,4.4186,4.4612,4.4713,4.4058,4.3986,4.3836,4.3513,4.3497,4.3497,4.3497,4.3497,4.3497,4.3497,4.3497,4.3497,4.3497,4.3497,4.3497,4.3497,4.3497,4.3497,4.3497,4.3497,4.3497,4.2624,4.314,4.3544,4.5199,4.5643,4.5757,4.5834,4.5853,4.5875,4.5881,4.5958,4.599,4.5924,4.6026,4.6026,4.5776,4.5757,4.5738,4.5605,4.5586,4.5586,4.5586,4.5586,4.6047,4.724,4.7817,4.8606,4.9798,5.0375,5.0702,5.0702,5.0702,5.0702,5.0702,5.0702,5.0702,5.0702,5.0702,5.0433,4.9894,5.0433,5.0337,4.9663,4.9471,4.8741,4.7604,4.7103,4.62,4.5015,4.4715,4.4189,4.3545,4.4135,4.4527,4.4857,4.5393,4.5586,4.5586,4.5586,4.5586,4.5586,4.5586,4.5586,4.5586,4.5586,4.5586,4.5586,4.5586,4.5586,4.5586,4.5586,4.5586,4.5586,4.5586,4.5586,4.5586,4.5586,4.5586,4.5586,4.5586,4.5586,4.5586,4.5586,4.5586,4.5568,4.5419,4.5342,4.5222,4.5014,4.4877,4.4682,4.4401,4.3974,4.3646,4.3513,4.3497,4.3497,4.3497,4.3497,4.3497,4.3497,4.3497,4.3497,4.3497,4.3497,4.3497,4.3497,4.3497,4.3497,4.3497,4.3497,4.3497,4.2659,4.3198,4.3651,4.5283,4.5761,4.5853,4.595,4.5925,4.592,4.6014,4.6017,4.6008,4.596,4.6032,4.6022,4.5835,4.5789,4.5757,4.5605,4.5586,4.5586,4.5586,4.5586,4.5932,4.6817,4.7413,4.8067,4.8933,4.9529,4.9875,4.9875,4.9875,4.9875,4.9875,4.9875,4.9875,4.9875,4.9875,4.9587,4.901,4.9586,4.9567,4.8991,4.8721,4.7989,4.6889,4.6602,4.5776,4.4612,4.4603,4.4244,4.3708,4.4353,4.4647,4.4837,4.5393,4.5586,4.5586,4.5586,4.5586,4.5586,4.5586,4.5586,4.5586,4.5586,4.5586,4.5586,4.5586,4.5586,4.5586,4.5586,4.5586,4.5586,4.5586,4.5586,4.5586,4.5586,4.5586,4.5586,4.5586,4.5586,4.5586,4.5586,4.5586,4.5586,4.5586,4.54,4.5302,4.5419,4.5033,4.4657,4.4447,4.3943,4.3631,4.3532,4.3497,4.3497,4.3497,4.3497,4.3497,4.3497,4.3497,4.3497,4.3497,4.3497,4.3497,4.3497,4.3497,4.3497,4.3497,4.3497,4.3497,4.2733,4.3291,4.3794,4.5473,4.5893,4.595,4.6065,4.6003,4.5988,4.6243,4.6093,4.5942,4.607,4.5823,4.5648,4.5776,4.5703,4.5586,4.5586,4.5586,4.5586,4.5586,4.5586,4.5932,4.6797,4.6913,4.724,4.8029,4.8105,4.8105,4.8105,4.8105,4.8105,4.8105,4.8105,4.8105,4.8105,4.8087,4.8106,4.8087,4.8103,4.8103,4.8049,4.7277,4.6889,4.6814,4.5969,4.522,4.4593,4.4584,4.4354,4.4044,4.4428,4.4795,4.5143,4.547,4.5586,4.5586,4.5586,4.5586,4.5586,4.5586,4.5586,4.5586,4.5586,4.5586,4.5586,4.5586,4.5586,4.5586,4.5586,4.5586,4.5586,4.5586,4.5586,4.5586,4.5586,4.5586,4.5586,4.5586,4.5586,4.5586,4.5586,4.5586,4.5586,4.5586,4.5586,4.5495,4.5159,4.5096,4.483,4.4087,4.3998,4.3849,4.3513,4.3497,4.3497,4.3497,4.3497,4.3497,4.3497,4.3497,4.3497,4.3497,4.3497,4.3497,4.3497,4.3497,4.3497,4.3497,4.3497,4.3497,4.2043,4.2866,4.3675,4.4772,4.5544,4.6046,4.6084,4.607,4.61,4.6248,4.6162,4.6056,4.6087,4.6032,4.5926,4.5819,4.577,4.5719,4.5605,4.5586,4.5586,4.5586,4.5586,4.5701,4.5951,4.6547,4.7009,4.724,4.7778,4.8105,4.8105,4.8105,4.8105,4.8105,4.8105,4.8105,4.8105,4.8105,4.7818,4.726,4.726,4.7259,4.7258,4.7006,4.6448,4.5605,4.5355,4.4837,4.4172,4.3927,4.3897,4.4044,4.4428,4.4795,4.5143,4.547,4.5586,4.5586,4.5586,4.5586,4.5586,4.5586,4.5586,4.5586,4.5586,4.5586,4.5586,4.5586,4.5586,4.5586,4.5586,4.5586,4.5586,4.5586,4.5586,4.5586,4.5586,4.5586,4.5586,4.5586,4.5586,4.5586,4.5586,4.5586,4.5586,4.5586,4.5586,4.5568,4.5457,4.5243,4.4919,4.4455,4.4175,4.3849,4.3513,4.3497,4.3497,4.3497,4.3497,4.3497,4.3497,4.3497,4.3497,4.3497,4.3497,4.3497,4.3497,4.3497,4.3497,4.3497,4.3497,4.3497,4.2271,4.3072,4.3812,4.5036,4.5759,4.618,4.618,4.6181,4.6199,4.6284,4.6201,4.6113,4.6171,4.6099,4.5969,4.5868,4.5815,4.5757,4.5605,4.5586,4.5586,4.5586,4.5586,4.5586,4.5586,4.6086,4.6374,4.6374,4.6836,4.7105,4.7105,4.7105,4.7105,4.7105,4.7105,4.7105,4.7105,4.7105,4.6855,4.6374,4.6376,4.6374,4.639,4.639,4.5988,4.528,4.5014,4.4554,4.3964,4.3632,4.3697,4.4039,4.4445,4.4801,4.5143,4.547,4.5586,4.5586,4.5586,4.5586,4.5586,4.5586,4.5586,4.5586,4.5586,4.5586,4.5586,4.5586,4.5586,4.5586,4.5586,4.5586,4.5586,4.5586,4.5586,4.5586,4.5586,4.5586,4.5586,4.5586,4.5586,4.5586,4.5586,4.5586,4.5586,4.5586,4.5586,4.555,4.5419,4.5222,4.4919,4.4401,4.4146,4.3849,4.3513,4.3497,4.3497,4.3497,4.3497,4.3497,4.3497,4.3497,4.3497,4.3497,4.3497,4.3497,4.3497,4.3497,4.3497,4.3497,4.3497,4.3497,4.2992,4.3575,4.4098,4.5762,4.6244,4.6314,4.6314,4.629,4.6308,4.6308,4.619,4.6147,4.6264,4.6072,4.5886,4.5902,4.5834,4.5738,4.5605,4.5586,4.5586,4.5586,4.5586,4.5586,4.5586,4.5586,4.5586,4.5586,4.5586,4.5586,4.5586,4.5586,4.5586,4.5586,4.5586,4.5586,4.5586,4.5586,4.5586,4.5586,4.5586,4.5586,4.5586,4.5586,4.5566,4.5513,4.4849,4.4336,4.3989,4.3679,4.3752,4.4085,4.4481,4.4857,4.5182,4.549,4.5586,4.5586,4.5586,4.5586,4.5586,4.5586,4.5586,4.5586,4.5586,4.5586,4.5586,4.5586,4.5586,4.5586,4.5586,4.5586,4.5586,4.5586,4.5586,4.5586,4.5586,4.5586,4.5586,4.5586,4.5586,4.5586,4.5586,4.5586,4.5586,4.5586,4.5586,4.5495,4.518,4.5159,4.4877,4.4175,4.4058,4.3912,4.3563,4.3513,4.3497,4.3497,4.3497,4.3497,4.3497,4.3497,4.3497,4.3497,4.3497,4.3497,4.3497,4.3497,4.3497,4.3497,4.3497,4.3497,4.2245,4.309,4.3889,4.4989,4.5792,4.6296,4.6296,4.6301,4.6308,4.6308,4.6189,4.6118,4.6137,4.5969,4.5819,4.5832,4.5719,4.5624,4.5586,4.5586,4.5586,4.5586,4.5586,4.5586,4.5586,4.5586,4.5586,4.5586,4.5586,4.5586,4.5586,4.5586,4.5586,4.5586,4.5586,4.5586,4.5586,4.5586,4.5586,4.5586,4.5586,4.5586,4.5586,4.5586,4.5451,4.5167,4.4445,4.4062,4.3989,4.3934,4.4099,4.4487,4.4865,4.5201,4.549,4.5566,4.5586,4.5586,4.5586,4.5586,4.5586,4.5586,4.5586,4.5586,4.5586,4.5586,4.5586,4.5586,4.5586,4.5586,4.5586,4.5586,4.5586,4.5586,4.5586,4.5586,4.5586,4.5586,4.5586,4.5586,4.5586,4.5586,4.5586,4.5586,4.5586,4.5586,4.5586,4.5568,4.5495,4.5495,4.5342,4.49,4.4631,4.429,4.3943,4.3646,4.3497,4.3497,4.3497,4.3497,4.3497,4.3497,4.3497,4.3497,4.3497,4.3497,4.3497,4.3497,4.3497,4.3497,4.3497,4.3497,4.2527,4.328,4.3975,4.5289,4.5957,4.6308,4.6308,4.6308,4.6308,4.6308,4.6236,4.618,4.6111,4.6007,4.5911,4.5815,4.5738,4.568,4.5605,4.5586,4.5586,4.5586,4.5586,4.5586,4.5586,4.5586,4.5586,4.5586,4.5586,4.5586,4.5586,4.5586,4.5586,4.5586,4.5586,4.5586,4.5586,4.5586,4.5586,4.5586,4.5586,4.5586,4.5586,4.5586,4.5413,4.5089,4.4702,4.4445,4.4299,4.4299,4.4501,4.4858,4.5035,4.5297,4.5586,4.5586,4.5586,4.5586,4.5586,4.5586,4.5586,4.5586,4.5586,4.5586,4.5586,4.5586,4.5586,4.5586,4.5586,4.5586,4.5586,4.5586,4.5586,4.5586,4.5586,4.5586,4.5586,4.5586,4.5586,4.5586,4.5586,4.5586,4.5586,4.5586,4.5586,4.5586,4.5586,4.5586,4.5586,4.5586,4.5476,4.5137,4.48,4.4527,4.4308,4.3804,4.3563,4.3726,4.3597,4.3497,4.3497,4.3497,4.3497,4.3497,4.3497,4.3497,4.3497,4.3497,4.3497,4.3497,4.3497,4.3497,4.3099,4.3867,4.4492,4.5937,4.6308,4.6308,4.6308,4.6308,4.6308,4.6308,4.6268,4.6206,4.609,4.6039,4.5969,4.5796,4.5776,4.5738,4.5605,4.5586,4.5586,4.5586,4.5586,4.5586,4.5586,4.5586,4.5586,4.5586,4.5586,4.5586,4.5586,4.5586,4.5586,4.5586,4.5586,4.5586,4.5586,4.5586,4.5586,4.5586,4.5586,4.5586,4.5586,4.5586,4.5451,4.5182,4.5143,4.4928,4.4705,4.4705,4.4851,4.5124,4.5163,4.5355,4.5586,4.5586,4.5586,4.5586,4.5586,4.5586,4.5586,4.5586,4.5586,4.5586,4.5586,4.5586,4.5586,4.5586,4.5586,4.5586,4.5586,4.5586,4.5586,4.5586,4.5586,4.5586,4.5586,4.5586,4.5586,4.5586,4.5586,4.5586,4.5586,4.5586,4.5586,4.5586,4.5586,4.5586,4.5586,4.5586,4.5495,4.5222,4.4896,4.4701,4.4701,4.4065,4.3791,4.3986,4.3758,4.3563,4.3479,4.3497,4.3497,4.3497,4.3497,4.3497,4.3497,4.3497,4.3497,4.3497,4.3497,4.3497,4.3069,4.4746,4.6016,4.623,4.6308,4.6308,4.6308,4.6308,4.6308,4.6308,4.6117,4.5944,4.592,4.578,4.5643,4.5624,4.5624,4.5605,4.5586,4.5586,4.5586,4.5586,4.5586,4.5586,4.5586,4.5586,4.5586,4.5586,4.5586,4.5586,4.5586,4.5586,4.5586,4.5586,4.5586,4.5586,4.5586,4.5586,4.5586,4.5586,4.5586,4.5586,4.5586,4.5586,4.5566,4.5509,4.524,4.5072,4.5035,4.5035,4.5055,4.5143,4.5413,4.5547,4.5586,4.5586,4.5586,4.5586,4.5586,4.5586,4.5586,4.5586,4.5586,4.5586,4.5586,4.5586,4.5586,4.5586,4.5586,4.5586,4.5586,4.5586,4.5586,4.5586,4.5586,4.5586,4.5586,4.5586,4.5586,4.5586,4.5586,4.5586,4.5586,4.5586,4.5586,4.5586,4.5586,4.5586,4.5586,4.5586,4.5586,4.555,4.5243,4.503,4.503,4.4682,4.4318,4.4016,4.3955,4.3804,4.3513,4.3497,4.3497,4.3497,4.3497,4.3497,4.3497,4.3497,4.3497,4.3497,4.3497,4.3497,4.3124,4.4941,4.6308,4.6308,4.6308,4.6308,4.6308,4.6308,4.6308,4.6308,4.615,4.5982,4.5905,4.5796,4.5699,4.5605,4.5586,4.5586,4.5586,4.5586,4.5586,4.5586,4.5586,4.5586,4.5586,4.5586,4.5586,4.5586,4.5586,4.5586,4.5586,4.5586,4.5586,4.5586,4.5586,4.5586,4.5586,4.5586,4.5586,4.5586,4.5586,4.5586,4.5586,4.5586,4.5586,4.5586,4.5432,4.5374,4.5374,4.5374,4.5374,4.5393,4.5528,4.5586,4.5586,4.5586,4.5586,4.5586,4.5586,4.5586,4.5586,4.5586,4.5586,4.5586,4.5586,4.5586,4.5586,4.5586,4.5586,4.5586,4.5586,4.5586,4.5586,4.5586,4.5586,4.5586,4.5586,4.5586,4.5586,4.5586,4.5586,4.5586,4.5586,4.5586,4.5586,4.5586,4.5586,4.5586,4.5586,4.5586,4.5586,4.5586,4.5302,4.518,4.5362,4.4896,4.4606,4.4612,4.4428,4.4165,4.3804,4.3772,4.3693,4.3479,4.3497,4.3497,4.3497,4.3497,4.3497,4.3497,4.3497,4.3497,4.3259,4.4952,4.6308,4.6308,4.6308,4.6308,4.6308,4.6308,4.6308,4.6308,4.6196,4.6065,4.5965,4.5873,4.5757,4.5605,4.5586,4.5586,4.5586,4.5586,4.5586,4.5586,4.5586,4.5586,4.5586,4.5586,4.5586,4.5586,4.5586,4.5586,4.5586,4.5586,4.5586,4.5586,4.5586,4.5586,4.5586,4.5586,4.5586,4.5586,4.5586,4.5586,4.5586,4.5586,4.5586,4.5586,4.5586,4.5586,4.5586,4.5586,4.5586,4.5586,4.5586,4.5586,4.5586,4.5586,4.5586,4.5586,4.5586,4.5586,4.5586,4.5586,4.5586,4.5586,4.5586,4.5586,4.5586,4.5586,4.5586,4.5586,4.5586,4.5586,4.5586,4.5586,4.5586,4.5586,4.5586,4.5586,4.5586,4.5586,4.5586,4.5586,4.5586,4.5586,4.5586,4.5586,4.5586,4.5586,4.5586,4.5586,4.5586,4.5586,4.5381,4.5322,4.5586,4.514,4.4919,4.5096,4.4872,4.4535,4.4175,4.4058,4.3881,4.3612,4.3548,4.3497,4.3497,4.3497,4.3497,4.3497,4.3497,4.3497,4.3543,4.4927,4.6308,4.6308,4.6308,4.6308,4.6308,4.6308,4.6308,4.6308,4.6191,4.6089,4.6078,4.593,4.5757,4.5605,4.5586,4.5586,4.5586,4.5586,4.5586,4.5586,4.5586,4.5586,4.5586,4.5586,4.5586,4.5586,4.5586,4.5586,4.5586,4.5586,4.5586,4.5586,4.5586,4.5586,4.5586,4.5586,4.5586,4.5586,4.5586,4.5586,4.5586,4.5586,4.5586,4.5586,4.5586,4.5586,4.5586,4.5586,4.5586,4.5586,4.5586,4.5586,4.5586,4.5586,4.5586,4.5586,4.5586,4.5586,4.5586,4.5586,4.5586,4.5586,4.5586,4.5586,4.5586,4.5586,4.5586,4.5586,4.5586,4.5586,4.5586,4.5586,4.5586,4.5586,4.5586,4.5586,4.5586,4.5586,4.5586,4.5586,4.5586,4.5586,4.5586,4.5586,4.5586,4.5586,4.5586,4.5586,4.5586,4.5586,4.5586,4.5586,4.5586,4.5568,4.5419,4.5118,4.5074,4.4919,4.458,4.4204,4.3986,4.3986,4.3679,4.3497,4.3497,4.3497,4.3497,4.3497,4.3497,4.3497,4.3565,4.4923,4.6308,4.6308,4.6308,4.6308,4.6308,4.6308,4.6308,4.6308,4.6269,4.6207,4.6123,4.5944,4.5776,4.5738,4.5643,4.5586,4.5586,4.5586,4.5586,4.5586,4.5586,4.5586,4.5586,4.5586,4.5586,4.5586,4.5586,4.5586,4.5586,4.5586,4.5586,4.5586,4.5586,4.5586,4.5586,4.5586,4.5586,4.5586,4.5586,4.5586,4.5586,4.5586,4.5586,4.5586,4.5586,4.5586,4.5586,4.5586,4.5586,4.5586,4.5586,4.5586,4.5586,4.5586,4.5586,4.5586,4.5586,4.5586,4.5586,4.5586,4.5586,4.5586,4.5586,4.5586,4.5586,4.5586,4.5586,4.5586,4.5586,4.5586,4.5586,4.5586,4.5586,4.5586,4.5586,4.5586,4.5586,4.5586,4.5586,4.5586,4.5586,4.5586,4.5586,4.5586,4.5586,4.5586,4.5586,4.5586,4.5586,4.5586,4.5586,4.5586,4.5586,4.5586,4.555,4.5419,4.5419,4.5161,4.4606,4.4474,4.4165,4.3712,4.3563,4.3497,4.3497,4.3497,4.3497,4.3497,4.3497,4.3497,4.3878,4.5098,4.623,4.6289,4.6308,4.6308,4.6308,4.6308,4.6308,4.6308,4.6308,4.6269,4.6172,4.6021,4.5867,4.5808,4.5738,4.5643,4.5605,4.5586,4.5586,4.5586,4.5586,4.5586,4.5586,4.5586,4.5586,4.5586,4.5586,4.5586,4.5586,4.5586,4.5586,4.5586,4.5586,4.5586,4.5586,4.5586,4.5586,4.5586,4.5586,4.5586,4.5586,4.5586,4.5586,4.5586,4.5586,4.5586,4.5586,4.5586,4.5586,4.5586,4.5586,4.5586,4.5586,4.5586,4.5586,4.5586,4.5586,4.5586,4.5586,4.5586,4.5586,4.5586,4.5586,4.5586,4.5586,4.5586,4.5586,4.5586,4.5586,4.5586,4.5586,4.5586,4.5586,4.5586,4.5586,4.5586,4.5586,4.5586,4.5586,4.5586,4.5586,4.5586,4.5586,4.5586,4.5586,4.5586,4.5586,4.5586,4.5586,4.5586,4.5586,4.5586,4.5586,4.5586,4.5586,4.5586,4.5495,4.5243,4.48,4.4527,4.4165,4.3679,4.3582,4.3497,4.3497,4.3497,4.3497,4.3497,4.3497,4.3497,0.0,0.0,0.0,4.6269,4.6289,4.6289,4.6289,4.6289,4.6308,4.6308,4.6308,4.6308,4.6308,4.6191,4.6042,4.5827,4.5796,4.5757,4.5605,4.5586,4.5586,4.5586,4.5586,4.5586,4.5586,4.5586,4.5586,4.5586,4.5586,4.5586,4.5586,4.5586,4.5586,4.5586,4.5586,4.5586,4.5586,4.5586,4.5586,4.5586,4.5586,4.5586,4.5586,4.5586,4.5586,4.5586,4.5586,4.5586,4.5586,4.5586,4.5586,4.5586,4.5586,4.5586,4.5586,4.5586,4.5586,4.5586,4.5586,4.5586,4.5586,4.5586,4.5586,4.5586,4.5586,4.5586,4.5586,4.5586,4.5586,4.5586,4.5586,4.5586,4.5586,4.5586,4.5586,4.5586,4.5586,4.5586,4.5586,4.5586,4.5586,4.5586,4.5586,4.5586,4.5586,4.5586,4.5586,4.5586,4.5586,4.5586,4.5586,4.5586,4.5586,4.5586,4.5586,4.5586,4.5586,4.5586,4.5283,4.5096,4.5074,4.4401,4.4016,4.3986,4.3679,4.3497,4.3497,4.3497,4.3497,4.3497,4.3497,4.3497,4.4505,0.0,0.0,0.0,0.0,0.0,4.6131,4.6152,4.6172,4.6289,4.6308,4.6308,4.6308,4.6269,4.6198,4.6047,4.5892,4.5757,4.5605,4.5586,4.5586,4.5586,4.5586,4.5586,4.5586,4.5586,4.5586,4.5586,4.5586,4.5586,4.5586,4.5586,4.5586,4.5586,4.5586,4.5586,4.5586,4.5586,4.5586,4.5586,4.5586,4.5586,4.5586,4.5586,4.5586,4.5586,4.5586,4.5586,4.5586,4.5586,4.5586,4.5586,4.5586,4.5586,4.5586,4.5586,4.5586,4.5586,4.5586,4.5586,4.5586,4.5586,4.5586,4.5586,4.5586,4.5586,4.5586,4.5586,4.5586,4.5586,4.5586,4.5586,4.5586,4.5586,4.5586,4.5586,4.5586,4.5586,4.5586,4.5586,4.5586,4.5586,4.5586,4.5586,4.5586,4.5586,4.5586,4.5586,4.5586,4.5586,4.5586,4.5586,4.5586,4.5586,4.5586,4.5586,4.5586,4.5586,4.5513,4.5243,4.4776,4.4553,4.4194,4.3646,4.3548,4.3497,4.3497,4.3497,4.3497,4.3497,4.3497,4.3497,4.493,4.5433,4.5866,4.5886,0.0,0.0,4.608,4.6144,4.6211,4.6289,4.6308,4.6308,4.6308,4.6308,4.6267,4.6123,4.5995,4.5873,4.5719,4.5624,4.5586,4.5586,4.5586,4.5586,4.5586,4.5586,4.5586,4.5586,4.5586,4.5586,4.5586,4.5586,4.5586,4.5586,4.5586,4.5586,4.5586,4.5586,4.5586,4.5586,4.5586,4.5586,4.5586,4.5586,4.5586,4.5586,4.5586,4.5586,4.5586,4.5586,4.5586,4.5586,4.5586,4.5586,4.5586,4.5586,4.5586,4.5586,4.5586,4.5586,4.5586,4.5586,4.5586,4.5586,4.5586,4.5586,4.5586,4.5586,4.5586,4.5586,4.5586,4.5586,4.5586,4.5586,4.5586,4.5586,4.5586,4.5586,4.5586,4.5586,4.5586,4.5586,4.5586,4.5586,4.5586,4.5586,4.5586,4.5586,4.5586,4.5586,4.5586,4.5586,4.5586,4.5586,4.5586,4.5586,4.5586,4.5586,4.5342,4.5011,4.4624,4.4308,4.3931,4.3532,4.3497,4.3497,4.3497,4.3497,4.3497,4.3497,4.3497,4.3497,4.5545,4.5776,4.5796,4.5853,4.5969,0.0,4.6075,4.6169,4.6268,4.6289,4.6308,4.6308,4.6308,4.6286,4.6245,4.6133,4.6105,4.6007,4.5834,4.5699,4.5605,4.5586,4.5586,4.5586,4.5586,4.5586,4.5586,4.5586,4.5586,4.5586,4.5586,4.5586,4.5586,4.5586,4.5586,4.5586,4.5586,4.5586,4.5586,4.5586,4.5586,4.5586,4.5586,4.5586,4.5586,4.5586,4.5586,4.5586,4.5586,4.5586,4.5586,4.5586,4.5586,4.5586,4.5586,4.5586,4.5586,4.5586,4.5586,4.5586,4.5586,4.5586,4.5586,4.5586,4.5586,4.5586,4.5586,4.5586,4.5586,4.5586,4.5586,4.5586,4.5586,4.5586,4.5586,4.5586,4.5586,4.5586,4.5586,4.5586,4.5586,4.5586,4.5586,4.5586,4.5586,4.5586,4.5586,4.5586,4.5586,4.5586,4.5586,4.5586,4.5586,4.5586,4.5586,4.5586,4.5586,4.5586,4.5033,4.4682,4.4657,4.4035,4.3646,4.3631,4.3631,4.3631,4.3631,4.3548,4.3497,4.3497,4.3497,4.3497,4.5586,4.5624,4.5624,4.5643,4.568,0.0,4.5914,4.5957,4.6039,4.6268,4.6308,4.6308,4.6308,4.6212,4.6169,4.6245,4.6085,4.5911,4.5815,4.5776,4.5719,4.5605,4.5586,4.5586,4.5586,4.5586,4.5586,4.5586,4.5586,4.5586,4.5586,4.5586,4.5586,4.5586,4.5586,4.5586,4.5586,4.5586,4.5586,4.5586,4.5586,4.5586,4.5586,4.5586,4.5586,4.5586,4.5586,4.5586,4.5586,4.5586,4.5586,4.5586,4.5586,4.5586,4.5586,4.5586,4.5586,4.5586,4.5586,4.5586,4.5586,4.5586,4.5586,4.5586,4.5586,4.5586,4.5586,4.5586,4.5586,4.5586,4.5586,4.5586,4.5586,4.5586,4.5586,4.5586,4.5586,4.5586,4.5586,4.5586,4.5586,4.5586,4.5586,4.5586,4.5586,4.5586,4.5586,4.5586,4.5586,4.5586,4.5586,4.5586,4.5586,4.5586,4.5586,4.5586,4.5586,4.5586,4.5495,4.5283,4.5011,4.4853,4.4657,4.4392,4.4392,4.4392,4.4392,4.3791,4.3497,4.3497,4.3497,4.3497,4.5586,4.5586,4.5586,4.5586,4.5643,0.0,0.0,4.5927,4.6046,4.6171,4.625,4.6308,4.6308,4.6202,4.6117,4.6192,4.6079,4.5969,4.5853,4.5815,4.5757,4.5605,4.5586,4.5586,4.5586,4.5586,4.5586,4.5586,4.5586,4.5586,4.5586,4.5586,4.5586,4.5586,4.5586,4.5586,4.5586,4.5586,4.5586,4.5586,4.5586,4.5586,4.5586,4.5586,4.5586,4.5586,4.5586,4.5586,4.5586,4.5586,4.5586,4.5586,4.5586,4.5586,4.5586,4.5586,4.5586,4.5586,4.5586,4.5586,4.5586,4.5586,4.5586,4.5586,4.5586,4.5586,4.5586,4.5586,4.5586,4.5586,4.5586,4.5586,4.5586,4.5586,4.5586,4.5586,4.5586,4.5586,4.5586,4.5586,4.5586,4.5586,4.5586,4.5586,4.5586,4.5586,4.5586,4.5586,4.5586,4.5586,4.5586,4.5586,4.5586,4.5586,4.5586,4.5586,4.5586,4.5586,4.5438,4.5282,4.5096,4.4943,4.4757,4.4606,4.458,4.458,4.458,4.4242,4.3962,4.3758,4.3563,4.3597,4.5586,4.5586,4.5586,4.5586,4.568,4.5776,0.0,0.0,0.0,4.6065,4.6145,4.6223,4.6223,4.6124,4.6046,4.6065,4.6046,4.6007,4.5911,4.5834,4.5757,4.5643,4.5605,4.5586,4.5586,4.5586,4.5586,4.5586,4.5586,4.5586,4.5586,4.5586,4.5586,4.5586,4.5586,4.5586,4.5586,4.5586,4.5586,4.5586,4.5586,4.5586,4.5586,4.5586,4.5586,4.5586,4.5586,4.5586,4.5586,4.5586,4.5586,4.5586,4.5586,4.5586,4.5586,4.5586,4.5586,4.5586,4.5586,4.5586,4.5586,4.5586,4.5586,4.5586,4.5586,4.5586,4.5586,4.5586,4.5586,4.5586,4.5586,4.5586,4.5586,4.5586,4.5586,4.5586,4.5586,4.5586,4.5586,4.5586,4.5586,4.5586,4.5586,4.5586,4.5586,4.5586,4.5586,4.5586,4.5586,4.5586,4.5586,4.5586,4.5586,4.5586,4.5586,4.5586,4.5586,4.5586,4.5342,4.5201,4.5201,4.4943,4.4781,4.4781,4.4781,4.4781,4.4781,4.4751,4.4501,4.4087,4.3836,4.3868,4.5586,4.5586,4.5586,4.5586,4.5605,4.5643,4.5776,0.0,4.5838,4.5918,0.0,4.5959,4.5959,0.0,0.0,4.5911,4.5873,4.5834,4.5815,4.5796,4.5796,4.5776,4.568,4.5586,4.5586,4.5586,4.5586,4.5586,4.5586,4.5586,4.5586,4.5586,4.5586,4.5586,4.5586,4.5586,4.5586,4.5586,4.5586,4.5586,4.5586,4.5586,4.5586,4.5586,4.5586,4.5586,4.5586,4.5586,4.5586,4.5586,4.5586,4.5586,4.5586,4.5586,4.5586,4.5586,4.5586,4.5586,4.5586,4.5586,4.5586,4.5586,4.5586,4.5586,4.5586,4.5586,4.5586,4.5586,4.5586,4.5586,4.5586,4.5586,4.5586,4.5586,4.5586,4.5586,4.5586,4.5586,4.5586,4.5586,4.5586,4.5586,4.5586,4.5586,4.5586,4.5586,4.5586,4.5586,4.5586,4.5586,4.5586,4.5586,4.5586,4.5586,4.5586,4.5586,4.5586,4.5586,4.5568,4.5531,4.5531,4.5513,4.5495,4.5495,4.5495,4.5495,4.5495,4.5201,4.4872,4.4527,4.4501,4.4501,4.5586,4.5586,4.5586,4.5586,4.5586,4.5605,4.568,4.5738,4.5808,4.5844,0.0,0.0,0.0,0.0,0.0,0.0,4.5815,4.5796,4.5796,4.5796,4.5776,4.5699,4.5624,4.5586,4.5586,4.5586,4.5586,4.5586,4.5586,4.5586,4.5586,4.5586,4.5586,4.5586,4.5586,4.5586,4.5586,4.5586,4.5586,4.5586,4.5586,4.5586,4.5586,4.5586,4.5586,4.5586,4.5586,4.5586,4.5586,4.5586,4.5586,4.5586,4.5586,4.5586,4.5586,4.5586,4.5586,4.5586,4.5586,4.5586,4.5586,4.5586,4.5586,4.5586,4.5586,4.5586,4.5586,4.5586,4.5586,4.5586,4.5586,4.5586,4.5586,4.5586,4.5586,4.5586,4.5586,4.5586,4.5586,4.5586,4.5586,4.5586,4.5586,4.5586,4.5586,4.5586,4.5586,4.5586,4.5586,4.5586,4.5586,4.5586,4.5586,4.5586,4.5586,4.5586,4.5586,4.5586,4.5586,4.5586,4.5586,4.5586,4.5586,4.5586,4.5586,4.5586,4.5586,4.5476,4.5322,4.5161,4.4781,4.4707,4.5586,4.5586,4.5586,4.5586,4.5586,4.5586,4.5586,4.568,4.5757,4.5757,4.5776,0.0,0.0,0.0,4.5757,4.5757,0.0,4.5757,4.5757,4.5757,4.5719,4.5643,4.5605,4.5586,4.5586,4.5586,4.5605,4.5643,4.5643,4.5643,4.5643,4.568,4.568,4.5643,4.5643,4.5643,4.5643,4.5605,4.5586,4.5586,4.5586,4.5586,4.5586,4.5586,4.5586,4.5586,4.5586,4.5586,4.5586,4.5586,4.5586,4.5586,4.5586,4.5586,4.5586,4.5586,4.5586,4.5586,4.5586,4.5586,4.5586,4.5586,4.5586,4.5586,4.5586,4.5586,4.5586,4.5586,4.5586,4.5586,4.5586,4.5586,4.5586,4.5586,4.5586,4.5586,4.5586,4.5586,4.5586,4.5586,4.5586,4.5586,4.5586,4.5586,4.5586,4.5586,4.5586,4.5586,4.5586,4.5586,4.5586,4.5586,4.5586,4.5586,4.5586,4.5586,4.5586,4.5586,4.5586,4.5586,4.5586,4.5586,4.5586,4.5586,4.5586,4.5586,4.5586,4.5586,4.5586,4.5586,4.5096,4.4988,4.5586,4.5586,4.5586,4.5586,4.5586,4.5586,4.5586,4.5586,4.5605,4.5605,4.5605,4.5605,4.5605,4.5605,4.5605,4.5605,4.5605,0.0,0.0,4.5605,4.5643,4.5776,4.568,4.5586,4.5586,4.5586,4.5643,4.5776,4.5796,4.5796,4.5796,4.5853,4.5853,4.5796,4.5796,4.5796,4.5796,4.5643,4.5586,4.5586,4.5586,4.5586,4.5586,4.5586,4.5586,4.5586,4.5586,4.5586,4.5586,4.5586,4.5586,4.5586,4.5586,4.5586,4.5586,4.5586,4.5586,4.5586,4.5586,4.5586,4.5586,4.5586,4.5586,4.5586,4.5586,4.5586,4.5586,4.5586,4.5586,4.5586,4.5586,4.5586,4.5586,4.5586,4.5586,4.5586,4.5586,4.5586,4.5586,4.5586,4.5586,4.5586,4.5586,4.5586,4.5586,4.5586,4.5586,4.5586,4.5586,4.5586,4.5586,4.5586,4.5586,4.5586,4.5586,4.5586,4.5586,4.5586,4.5586,4.5586,4.5586,4.5586,4.5586,4.5586,4.5586,4.5586,4.5586,4.5586,4.5586,4.5586,4.5586,4.5568,4.5586,4.5586,4.5586,4.5586,4.5586,4.5586,4.5586,4.5586,4.5586,4.5586,4.5586,4.5586,4.5586,4.5586,4.5586,4.5586,4.5586,4.5586,0.0,4.5586,4.5605,4.5643,4.5624,4.5586,4.5586,4.568,4.5757,4.5796,4.5832,4.5877,4.5877,4.5893,4.5891,4.5871,4.5877,4.5843,4.5796,4.5796,4.5776,4.5738,4.5738,4.5738,4.5738,4.5624,4.5586,4.5586,4.5586,4.5586,4.5586,4.5586,4.5586,4.5586,4.5586,4.5586,4.5586,4.5586,4.5586,4.5586,4.5586,4.5586,4.5586,4.5586,4.5586,4.5586,4.5586,4.5586,4.5586,4.5586,4.5586,4.5586,4.5586,4.5586,4.5586,4.5586,4.5586,4.5586,4.5586,4.5586,4.5586,4.5586,4.5586,4.5586,4.5586,4.5586,4.5586,4.5586,4.5586,4.5586,4.5586,4.5586,4.5586,4.5586,4.5586,4.5586,4.5586,4.5586,4.5586,4.5586,4.5586,4.5586,4.5586,4.5586,4.5586,4.5586,4.5586,4.5586,4.5586,4.5586,4.5586,4.5586,4.5586,4.5586,4.5586,4.5586,4.5605,4.5643,4.568,4.568,4.568,4.568,4.568,4.568,4.568,4.568,4.5699,4.5699,4.568,4.568,4.5624,4.5586,0.0,4.5586,4.5586,4.5586,4.5586,4.5605,4.568,4.5757,4.5816,4.5902,4.5956,4.5976,4.5976,4.6013,4.6018,4.5976,4.5976,4.5945,4.5906,4.5905,4.5885,4.5847,4.5847,4.5841,4.5834,4.5757,4.5699,4.568,4.568,4.5624,4.5586,4.5586,4.5586,4.5586,4.5586,4.5586,4.5586,4.5586,4.5586,4.5586,4.5586,4.5586,4.5586,4.5586,4.5586,4.5586,4.5586,4.5586,4.5586,4.5586,4.5586,4.5586,4.5586,4.5586,4.5586,4.5586,4.5586,4.5586,4.5586,4.5586,4.5586,4.5586,4.5586,4.5586,4.5586,4.5586,4.5586,4.5586,4.5586,4.5586,4.5586,4.5586,4.5586,4.5586,4.5586,4.5586,4.5586,4.5586,4.5586,4.5586,4.5586,4.5586,4.5586,4.5586,4.5586,4.5586,4.5586,4.5586,4.5586,4.5586,4.5586,4.5586,4.5586,4.5586]},{"header":{"parameterUnit":"m.s-1","parameterCategory":1,"la1":30.6,"la2":29.2853,"lo1":-89.7004,"lo2":-87.6739,"dy":0.0162,"dx":0.0183,"nx":112,"ny":82,"refTime":"2023-08-21T18:00:00:Z","depth":0,"parameterNumber":3,"parameterNumberName":"V-component_of_WINDS"},"data":[0.0,0.0,0.0,0.0,0.0,0.0,0.0,0.0,0.0,0.0,0.0,0.0,0.0,0.0,0.0,0.0,0.0,0.0,0.0,0.0,0.0,0.0,0.0,0.0,0.0,0.0,0.0,0.0,0.0,0.0,0.0,0.0,0.0,0.0,0.0,0.0,0.0,0.0,0.0,0.0,0.0,0.0,0.0,0.0,0.0,0.0,0.0,0.0,0.0,0.0,0.0,0.0,0.0,0.0,0.0,0.0,0.0,0.0,0.0,0.0,0.0,0.0,0.0,0.0,0.0,0.0,0.0,0.0,0.0,0.0,0.0,0.0,0.0,0.0,0.0,0.0,0.0,0.0,0.0,0.0,0.0,0.0,0.0,0.0,0.0,0.0,0.0,0.0,0.0,0.0,-0.8012,-0.8012,-0.8917,-1.0271,-1.215,-1.2305,-1.2305,-1.2305,0.0,0.0,0.0,0.0,0.0,0.0,0.0,0.0,0.0,0.0,0.0,0.0,0.0,0.0,0.0,0.0,0.0,0.0,0.0,0.0,0.0,0.0,0.0,0.0,0.0,0.0,0.0,0.0,0.0,0.0,0.0,0.0,0.0,0.0,0.0,0.0,0.0,0.0,0.0,0.0,0.0,0.0,0.0,0.0,0.0,0.0,0.0,0.0,0.0,0.0,0.0,0.0,0.0,0.0,0.0,0.0,0.0,0.0,0.0,0.0,0.0,0.0,0.0,0.0,0.0,0.0,0.0,0.0,0.0,0.0,0.0,0.0,0.0,0.0,0.0,0.0,0.0,0.0,0.0,0.0,0.0,0.0,0.0,0.0,0.0,0.0,0.0,0.0,0.0,0.0,0.0,0.0,0.0,0.0,0.0,0.0,0.0,0.0,0.0,0.0,0.0,0.0,0.0,0.0,-0.9069,-0.9069,-0.9965,-1.1019,-1.2224,-1.2305,-1.2305,-1.2305,0.0,0.0,0.0,0.0,0.0,0.0,0.0,0.0,0.0,0.0,0.0,0.0,0.0,0.0,0.0,0.0,0.0,0.0,0.0,0.0,0.0,0.0,0.0,0.0,0.0,0.0,0.0,0.0,0.0,0.0,0.0,0.0,0.0,0.0,0.0,0.0,0.0,0.0,0.0,0.0,0.0,0.0,0.0,0.0,0.0,0.0,0.0,0.0,0.0,0.0,0.0,0.0,0.0,0.0,0.0,0.0,0.0,0.0,0.0,0.0,0.0,0.0,0.0,0.0,0.0,0.0,0.0,0.0,0.0,0.0,0.0,0.0,0.0,0.0,0.0,0.0,0.0,0.0,0.0,0.0,0.0,0.0,0.0,0.0,0.0,0.0,0.0,0.0,0.0,0.0,0.0,0.0,0.0,0.0,0.0,0.0,0.0,0.0,0.0,0.0,0.0,0.0,0.0,-0.9216,-0.9296,-0.9296,-1.019,-1.1236,-1.2224,-1.2305,-1.2305,-1.2305,-1.2305,0.0,0.0,0.0,0.0,0.0,0.0,0.0,0.0,0.0,0.0,0.0,0.0,0.0,0.0,0.0,0.0,0.0,0.0,0.0,0.0,0.0,0.0,0.0,0.0,0.0,0.0,0.0,0.0,0.0,0.0,0.0,0.0,0.0,0.0,0.0,0.0,0.0,0.0,0.0,0.0,0.0,0.0,0.0,0.0,0.0,0.0,0.0,0.0,0.0,0.0,0.0,0.0,0.0,0.0,0.0,0.0,0.0,0.0,0.0,0.0,0.0,0.0,0.0,0.0,0.0,0.0,0.0,0.0,0.0,0.0,0.0,0.0,0.0,0.0,0.0,0.0,0.0,0.0,0.0,0.0,0.0,0.0,0.0,0.0,0.0,0.0,0.0,0.0,0.0,0.0,0.0,0.0,0.0,0.0,0.0,0.0,0.0,0.0,0.0,0.0,0.0,0.0,-0.8618,-0.9069,-0.9301,-1.019,-1.1236,-1.2224,-1.2305,-1.2305,-1.2305,-1.2519,0.0,0.0,0.0,0.0,0.0,0.0,0.0,0.0,0.0,0.0,0.0,0.0,0.0,0.0,0.0,0.0,0.0,0.0,0.0,0.0,0.0,0.0,0.0,0.0,0.0,0.0,0.0,0.0,0.0,0.0,0.0,0.0,0.0,0.0,0.0,0.0,0.0,0.0,0.0,0.0,0.0,0.0,0.0,0.0,0.0,0.0,0.0,0.0,0.0,0.0,0.0,0.0,0.0,0.0,0.0,0.0,0.0,0.0,0.0,0.0,0.0,0.0,0.0,0.0,0.0,0.0,0.0,0.0,0.0,0.0,0.0,0.0,0.0,0.0,0.0,0.0,0.0,0.0,0.0,0.0,0.0,0.0,0.0,0.0,0.0,0.0,0.0,0.0,0.0,0.0,0.0,0.0,0.0,0.0,0.0,0.0,0.0,0.0,0.0,0.0,0.0,0.0,-0.8466,-0.8237,-0.9226,-1.019,-1.1236,-1.2224,-1.2305,-1.2305,-1.2305,-1.3098,0.0,0.0,0.0,0.0,0.0,0.0,0.0,0.0,0.0,0.0,0.0,0.0,0.0,0.0,0.0,0.0,0.0,0.0,0.0,0.0,0.0,0.0,0.0,0.0,0.0,0.0,0.0,0.0,0.0,0.0,0.0,0.0,0.0,0.0,0.0,0.0,0.0,0.0,0.0,0.0,0.0,0.0,0.0,0.0,0.0,0.0,0.0,0.0,0.0,0.0,0.0,0.0,0.0,0.0,0.0,0.0,0.0,0.0,0.0,0.0,0.0,0.0,0.0,0.0,0.0,0.0,0.0,0.0,0.0,0.0,0.0,0.0,0.0,0.0,0.0,0.0,0.0,0.0,0.0,0.0,0.0,0.0,0.0,0.0,0.0,0.0,0.0,0.0,0.0,0.0,0.0,0.0,0.0,0.0,0.0,0.0,0.0,0.0,0.0,0.0,0.0,0.0,-0.9518,-0.9588,-0.9296,-1.0795,-1.1922,-1.2305,-1.2305,-1.2305,-1.2305,0.0,0.0,0.0,0.0,0.0,0.0,0.0,0.0,0.0,0.0,0.0,0.0,0.0,0.0,0.0,0.0,0.0,0.0,0.0,0.0,0.0,0.0,0.0,0.0,0.0,0.0,0.0,0.0,0.0,0.0,0.0,0.0,0.0,0.0,0.0,0.0,0.0,0.0,0.0,0.0,0.0,0.0,0.0,0.0,0.0,0.0,0.0,0.0,0.0,0.0,0.0,0.0,0.0,0.0,0.0,0.0,0.0,0.0,0.0,0.0,0.0,0.0,0.0,0.0,0.0,0.0,0.0,0.0,0.0,0.0,0.0,0.0,0.0,0.0,0.0,0.0,0.0,0.0,0.0,0.0,0.0,0.0,0.0,0.0,0.0,0.0,0.0,0.0,0.0,0.0,0.0,0.0,0.0,0.0,0.0,0.0,0.0,0.0,0.0,0.0,0.0,0.0,-0.9372,-0.9588,-0.9739,-0.9372,-1.0795,-1.1922,-1.2305,-1.2305,-1.2445,-1.2739,0.0,0.0,0.0,0.0,0.0,0.0,0.0,0.0,0.0,0.0,0.0,0.0,0.0,0.0,0.0,0.0,0.0,0.0,0.0,0.0,0.0,0.0,0.0,0.0,0.0,0.0,0.0,0.0,0.0,0.0,0.0,0.0,0.0,0.0,0.0,0.0,0.0,0.0,0.0,0.0,0.0,0.0,0.0,0.0,0.0,0.0,0.0,0.0,0.0,0.0,0.0,0.0,0.0,0.0,0.0,0.0,0.0,0.0,0.0,0.0,0.0,0.0,0.0,0.0,0.0,0.0,0.0,0.0,0.0,0.0,0.0,0.0,0.0,0.0,0.0,0.0,0.0,0.0,0.0,0.0,0.0,0.0,0.0,0.0,0.0,0.0,0.0,0.0,0.0,0.0,0.0,0.0,0.0,0.0,0.0,0.0,0.0,0.0,0.0,0.0,0.0,0.0,-0.9296,-0.8466,-0.8237,-0.9221,-1.019,-1.1242,-1.2224,-1.2305,-1.2739,0.0,0.0,0.0,0.0,0.0,0.0,0.0,0.0,0.0,0.0,0.0,0.0,0.0,0.0,0.0,0.0,0.0,0.0,0.0,0.0,0.0,0.0,0.0,0.0,0.0,0.0,0.0,0.0,0.0,0.0,0.0,0.0,0.0,0.0,0.0,0.0,0.0,0.0,0.0,0.0,0.0,0.0,0.0,0.0,0.0,0.0,0.0,0.0,0.0,0.0,0.0,0.0,0.0,0.0,0.0,0.0,0.0,0.0,0.0,0.0,0.0,0.0,0.0,0.0,0.0,0.0,0.0,0.0,0.0,0.0,0.0,0.0,0.0,0.0,0.0,0.0,0.0,0.0,0.0,0.0,0.0,0.0,0.0,0.0,0.0,0.0,0.0,0.0,0.0,0.0,0.0,0.0,0.0,0.0,0.0,0.0,0.0,0.0,0.0,0.0,0.0,0.0,0.0,-1.0265,-0.9518,-0.9221,-1.0265,-1.1242,-1.1996,-1.2305,-1.2305,-1.2739,-1.3673,0.0,0.0,0.0,0.0,0.0,0.0,0.0,0.0,0.0,0.0,0.0,0.0,0.0,0.0,0.0,0.0,0.0,0.0,0.0,0.0,0.0,0.0,0.0,0.0,0.0,0.0,0.0,0.0,0.0,0.0,0.0,0.0,0.0,0.0,0.0,0.0,0.0,0.0,0.0,0.0,0.0,0.0,0.0,0.0,0.0,0.0,0.0,0.0,0.0,0.0,0.0,0.0,0.0,0.0,0.0,0.0,0.0,0.0,0.0,0.0,0.0,0.0,0.0,0.0,0.0,0.0,0.0,0.0,0.0,0.0,0.0,0.0,0.0,0.0,0.0,0.0,0.0,0.0,0.0,0.0,0.0,0.0,0.0,0.0,0.0,0.0,0.0,0.0,0.0,0.0,0.0,0.0,0.0,0.0,0.0,0.0,0.0,0.0,0.0,0.0,0.0,0.0,-1.0714,-1.0265,-1.0115,-1.0708,-1.1694,-1.2305,-1.2305,-1.2305,-1.2739,-1.3673,0.0,0.0,0.0,0.0,0.0,0.0,0.0,0.0,0.0,0.0,0.0,0.0,0.0,0.0,0.0,0.0,0.0,0.0,0.0,0.0,0.0,0.0,0.0,0.0,0.0,0.0,0.0,0.0,0.0,0.0,0.0,0.0,0.0,0.0,0.0,0.0,0.0,0.0,0.0,0.0,0.0,0.0,0.0,0.0,0.0,0.0,0.0,0.0,0.0,0.0,0.0,0.0,0.0,0.0,0.0,0.0,0.0,0.0,0.0,0.0,0.0,0.0,0.0,0.0,0.0,0.0,0.0,0.0,0.0,0.0,0.0,0.0,0.0,0.0,0.0,0.0,0.0,0.0,0.0,0.0,0.0,0.0,0.0,0.0,0.0,0.0,0.0,0.0,0.0,0.0,0.0,0.0,0.0,0.0,0.0,0.0,0.0,0.0,0.0,0.0,0.0,0.0,-1.0938,-1.0858,-1.0858,-1.0938,-1.1774,-1.2305,-1.2305,-1.2305,-1.2739,-1.3673,0.0,0.0,0.0,0.0,0.0,0.0,0.0,0.0,0.0,0.0,0.0,0.0,0.0,0.0,0.0,0.0,0.0,0.0,0.0,0.0,0.0,0.0,0.0,0.0,0.0,0.0,0.0,0.0,0.0,0.0,0.0,0.0,0.0,0.0,0.0,0.0,0.0,0.0,0.0,0.0,0.0,0.0,0.0,0.0,0.0,0.0,0.0,0.0,0.0,0.0,0.0,0.0,0.0,0.0,0.0,0.0,0.0,0.0,0.0,0.0,-0.8313,-0.8389,0.0,0.0,0.0,0.0,0.0,0.0,0.0,0.0,0.0,0.0,0.0,0.0,0.0,0.0,0.0,0.0,0.0,0.0,0.0,0.0,0.0,0.0,0.0,0.0,0.0,0.0,0.0,0.0,0.0,0.0,0.0,0.0,0.0,0.0,0.0,0.0,0.0,0.0,0.0,0.0,-1.1848,-1.1316,-1.1087,-1.1922,-1.215,-1.2305,-1.2305,-1.2305,-1.2739,-1.3673,-1.389,0.0,0.0,0.0,0.0,0.0,0.0,0.0,0.0,0.0,0.0,0.0,0.0,0.0,0.0,0.0,0.0,0.0,0.0,0.0,0.0,0.0,0.0,0.0,0.0,0.0,0.0,0.0,0.0,0.0,0.0,0.0,0.0,0.0,0.0,0.0,0.0,0.0,0.0,0.0,0.0,0.0,0.0,0.0,0.0,0.0,0.0,0.0,0.0,0.0,0.0,0.0,0.0,0.0,0.0,0.0,0.0,0.0,0.0,0.0,-0.7708,-0.7553,0.0,0.0,0.0,0.0,0.0,0.0,0.0,0.0,0.0,0.0,0.0,0.0,0.0,0.0,0.0,0.0,0.0,0.0,0.0,0.0,0.0,0.0,0.0,0.0,0.0,0.0,0.0,0.0,0.0,0.0,0.0,0.0,0.0,0.0,0.0,0.0,0.0,0.0,0.0,0.0,-1.2224,-1.1842,-1.1694,-1.2224,-1.2305,-1.2305,-1.2305,-1.2305,-1.2519,-1.3025,-1.3455,0.0,0.0,0.0,0.0,0.0,0.0,0.0,0.0,0.0,0.0,0.0,0.0,0.0,0.0,0.0,0.0,0.0,0.0,0.0,0.0,0.0,0.0,0.0,0.0,0.0,0.0,0.0,0.0,0.0,0.0,0.0,0.0,0.0,0.0,0.0,0.0,0.0,0.0,0.0,0.0,0.0,0.0,0.0,0.0,0.0,0.0,0.0,0.0,0.0,0.0,0.0,0.0,0.0,-0.6411,-0.6556,-0.6806,-0.8243,-0.8697,-0.8302,-0.7383,-0.6939,-0.6909,-0.7718,0.0,0.0,0.0,0.0,0.0,0.0,0.0,0.0,0.0,0.0,0.0,0.0,0.0,0.0,0.0,0.0,0.0,0.0,0.0,0.0,0.0,0.0,-0.9069,-0.9221,-0.8542,-0.8089,-0.9069,0.0,0.0,0.0,0.0,0.0,0.0,0.0,0.0,0.0,0.0,0.0,-1.2305,-1.2305,-1.2305,-1.2305,-1.2305,-1.2305,-1.2305,-1.2305,-1.2305,-1.2305,-1.3025,-1.3528,0.0,0.0,0.0,0.0,0.0,0.0,0.0,0.0,0.0,0.0,0.0,0.0,0.0,0.0,0.0,0.0,0.0,0.0,0.0,0.0,0.0,0.0,0.0,0.0,0.0,0.0,0.0,0.0,0.0,0.0,0.0,0.0,-0.6912,-0.8669,0.0,0.0,0.0,0.0,0.0,0.0,0.0,0.0,0.0,0.0,0.0,0.0,0.0,-0.7073,-0.7085,-0.7103,-0.7031,-0.7031,-0.7013,-0.7046,-0.713,-0.9337,-0.9862,-0.9094,-0.9475,0.0,-0.9086,-0.9071,0.0,0.0,0.0,0.0,0.0,0.0,0.0,0.0,0.0,0.0,0.0,0.0,0.0,0.0,0.0,0.0,0.0,0.0,0.0,0.0,0.0,0.0,-0.8237,-0.9074,-0.8542,-0.8089,-0.9069,-0.9296,-0.9372,-0.9448,-0.9523,-0.982,0.0,0.0,0.0,0.0,0.0,0.0,-1.2305,-1.2305,-1.2305,-1.2305,-1.2305,-1.2305,-1.2305,-1.2305,-1.2305,-1.2305,-1.2445,-1.2879,-1.3673,-1.3818,0.0,0.0,0.0,0.0,0.0,0.0,0.0,0.0,0.0,0.0,0.0,0.0,0.0,0.0,0.0,0.0,0.0,0.0,0.0,0.0,0.0,0.0,0.0,0.0,0.0,0.0,0.0,0.0,0.0,-0.7395,-0.7509,-0.7589,-0.8401,-0.8949,0.0,0.0,0.0,0.0,0.0,0.0,0.0,0.0,0.0,-0.9487,-0.7637,-0.7986,-1.0675,-1.0713,-1.0783,-1.1051,-1.1044,-1.1042,-1.1047,-1.214,-1.1865,-1.0674,-1.0985,-1.1013,-1.0858,-1.0712,-1.1163,-1.2023,0.0,0.0,0.0,0.0,-1.2552,-1.245,-1.1751,-1.1465,-1.1465,-1.1465,0.0,0.0,0.0,0.0,0.0,0.0,0.0,-1.1539,-1.0938,-1.0185,-0.9437,-0.9296,-0.8993,-0.8765,-0.9226,-0.9296,-0.9448,-1.0045,-1.0115,-1.049,-1.1471,-1.162,0.0,0.0,0.0,-1.2305,-1.2305,-1.2305,-1.2305,-1.2305,-1.2305,-1.2305,-1.2305,-1.2305,-1.2305,-1.2305,-1.2305,-1.2445,-1.2879,-1.3455,-1.4099,0.0,0.0,0.0,0.0,0.0,0.0,0.0,0.0,0.0,0.0,0.0,0.0,0.0,0.0,0.0,0.0,0.0,0.0,0.0,0.0,0.0,0.0,0.0,0.0,0.0,0.0,0.0,0.0,-0.8576,-0.8014,-0.6497,-0.7234,-0.7427,0.0,0.0,0.0,0.0,0.0,0.0,-1.0939,-1.2998,-1.25,-0.9041,-0.8873,-1.055,-1.4063,-1.4074,-1.4072,-1.4079,-1.4117,-1.413,-1.413,-1.413,-1.3458,-1.2398,-1.2385,-1.2439,-1.2444,-1.1879,-1.1828,-1.2154,-1.2883,-1.3213,-1.318,-1.2953,-1.2866,-1.2755,-1.1758,-1.1374,-1.1374,-1.1374,-1.1401,-1.1409,-1.2096,0.0,0.0,0.0,0.0,-1.215,-1.1391,-1.1013,-1.0714,-1.0196,-0.9895,-0.9744,-1.0045,-1.0051,-1.0121,-1.034,-1.0415,-1.0714,-1.1768,-1.1922,0.0,-1.2224,-1.2305,-1.2305,-1.2305,-1.2305,-1.2305,-1.2305,-1.2305,-1.2305,-1.2305,-1.2305,-1.2305,-1.2305,-1.2305,-1.2305,-1.2305,-1.2952,-1.3455,-1.3673,0.0,0.0,0.0,0.0,0.0,0.0,0.0,0.0,0.0,0.0,0.0,0.0,0.0,0.0,0.0,0.0,0.0,0.0,0.0,0.0,0.0,0.0,0.0,0.0,0.0,0.0,0.0,0.0,0.0,-0.656,-0.9661,0.0,0.0,0.0,0.0,-0.7619,-0.7331,-0.735,-0.736,-1.1617,-1.3991,-1.3796,-1.3711,-1.39,-1.4097,-1.4115,-1.4082,-1.4082,-1.4095,-1.4102,-1.4102,-1.4102,-1.4102,-1.4004,-1.399,-1.3977,-1.3847,-1.2363,-1.2234,-1.3127,-1.3213,-1.3213,-1.3206,-1.3193,-1.3186,-1.3186,-1.3087,-1.3081,-1.3081,-1.3081,-1.2882,-1.2665,-1.2392,-1.2305,0.0,0.0,-1.2305,-1.2298,-1.2224,-1.1539,-1.1013,-1.1922,-1.1391,-1.1013,-1.1922,-1.215,-1.1626,-0.975,-0.9372,-0.9669,-1.0714,0.0,-1.1236,-1.215,-1.2305,-1.2305,-1.2305,-1.2305,-1.2305,-1.2305,-1.2305,-1.2305,-1.2305,-1.2305,-1.2305,-1.2305,-1.2305,-1.2305,-1.2305,-1.2378,-1.2806,-1.3673,-1.3745,0.0,0.0,0.0,0.0,0.0,0.0,0.0,0.0,0.0,0.0,0.0,0.0,0.0,0.0,0.0,0.0,0.0,0.0,0.0,0.0,0.0,0.0,0.0,0.0,0.0,0.0,0.0,0.0,-0.8488,-0.8479,0.0,-0.6923,-0.8109,-0.8443,-0.721,-0.9877,-1.1578,-1.1601,-1.3199,-1.4095,-1.4135,-1.4135,-1.4135,-1.4135,-1.4102,-1.4088,-1.4088,-1.4088,-1.4088,-1.4088,-1.4088,-1.4088,-1.4088,-1.4088,-1.4088,-1.4068,-1.3515,-1.3437,-1.3774,-1.3774,-1.3774,-1.3748,-1.3561,-1.3487,-1.346,-1.3273,-1.3213,-1.3213,-1.3213,-1.3133,-1.3026,-1.2919,-1.2886,-1.2886,-1.2886,-1.2886,-1.2886,-1.2886,-1.2647,-1.2408,-1.2809,-1.2647,-1.2408,-1.2809,-1.2732,-1.2434,-1.1663,-1.1371,-1.1323,-1.1694,-1.1768,-1.1922,-1.2224,-1.2305,-1.2305,-1.2305,-1.2305,-1.2305,-1.2305,-1.2305,-1.2305,-1.2305,-1.2305,-1.2305,-1.2305,-1.2305,-1.2305,-1.2305,-1.2305,-1.2445,-1.2806,-1.2806,-1.3738,0.0,0.0,0.0,0.0,0.0,0.0,0.0,0.0,0.0,0.0,0.0,0.0,0.0,0.0,0.0,0.0,0.0,0.0,0.0,0.0,0.0,0.0,0.0,0.0,0.0,-0.9452,-0.8931,-0.9645,-0.7887,-0.6723,-0.7054,-0.7133,-0.7107,-0.7084,-1.1466,-1.4097,-1.4097,-1.409,-1.4064,-1.4088,-1.4088,-1.4088,-1.4088,-1.4088,-1.4088,-1.4088,-1.4088,-1.4088,-1.4088,-1.4088,-1.4088,-1.4088,-1.4088,-1.4088,-1.4088,-1.4088,-1.4088,-1.4088,-1.4088,-1.4088,-1.4062,-1.3868,-1.3794,-1.3768,-1.3574,-1.3507,-1.3487,-1.3387,-1.3353,-1.334,-1.324,-1.3213,-1.3213,-1.3213,-1.3213,-1.3213,-1.3213,-1.3213,-1.3213,-1.3213,-1.3213,-1.3213,-1.3213,-1.3053,-1.2906,-1.2906,-1.2579,-1.2305,-1.2305,-1.2305,-1.2305,-1.2305,-1.2305,-1.2305,-1.2305,-1.2305,-1.2305,-1.2305,-1.2305,-1.2305,-1.2305,-1.2305,-1.2305,-1.2305,-1.2305,-1.2305,-1.2305,-1.2592,-1.2732,-1.2732,-1.3091,-1.3875,-1.5234,0.0,0.0,0.0,0.0,0.0,0.0,0.0,0.0,0.0,0.0,0.0,0.0,0.0,0.0,0.0,0.0,0.0,0.0,0.0,0.0,0.0,0.0,0.0,-0.9505,-0.9178,-0.9052,-0.9597,-0.8159,-0.7099,-0.7083,-0.7215,-0.7288,-0.7343,-1.1492,-1.409,-1.4088,-1.4088,-1.4088,-1.4088,-1.4088,-1.4088,-1.4088,-1.4088,-1.4088,-1.4088,-1.4088,-1.4088,-1.4088,-1.4088,-1.4088,-1.4088,-1.4088,-1.4088,-1.4088,-1.4088,-1.4088,-1.4088,-1.4088,-1.4088,-1.4088,-1.4088,-1.4088,-1.4088,-1.4088,-1.4088,-1.4041,-1.3748,-1.3661,-1.3607,-1.332,-1.324,-1.324,-1.324,-1.324,-1.324,-1.324,-1.324,-1.324,-1.324,-1.324,-1.324,-1.324,-1.3233,-1.3227,-1.3227,-1.2739,-1.2331,-1.2331,-1.2331,-1.2331,-1.2331,-1.2318,0.0,-1.2318,-1.2311,-1.2305,-1.2305,-1.2305,-1.2305,-1.2305,-1.2305,-1.2305,-1.2305,-1.2305,-1.2305,-1.2305,-1.3171,-1.3673,-1.3673,-1.4665,-1.5163,-1.5163,0.0,0.0,0.0,0.0,0.0,0.0,0.0,0.0,0.0,0.0,0.0,0.0,0.0,0.0,0.0,0.0,0.0,0.0,0.0,0.0,0.0,-0.9719,-0.8751,-0.8729,-0.81,-0.8039,-0.9429,-0.813,-0.7065,-0.708,-1.0168,-1.2187,-1.2151,-1.337,-1.409,-1.4088,-1.4088,-1.4088,-1.4088,-1.4088,-1.4088,-1.4088,-1.4088,-1.4088,-1.4088,-1.4088,-1.4088,-1.4088,-1.4088,-1.4088,-1.4088,-1.4088,-1.4088,-1.4088,-1.4088,-1.4088,-1.4088,-1.4088,-1.4088,-1.4088,-1.4088,-1.4088,-1.4088,-1.4088,-1.4088,-1.4075,-1.3988,-1.3968,-1.3948,-1.3868,-1.3848,-1.3848,-1.3848,-1.3848,-1.3848,-1.3848,-1.3848,-1.3848,-1.3848,-1.3848,-1.3848,-1.3848,-1.3674,-1.3527,-1.3527,-1.322,-1.2959,-1.2959,-1.2959,-1.2959,-1.2959,-1.2766,-1.2625,-1.2625,-1.2438,-1.2305,-1.2305,-1.2305,-1.2305,-1.2305,-1.2305,-1.2305,-1.2305,-1.2305,-1.2305,-1.2305,-1.2519,-1.2666,-1.2666,-1.3593,-1.4099,0.0,0.0,0.0,0.0,0.0,0.0,0.0,0.0,0.0,0.0,0.0,0.0,0.0,0.0,0.0,0.0,0.0,0.0,0.0,0.0,0.0,0.0,-1.0351,-0.9538,-0.9334,-0.8471,-0.8273,-0.9401,-0.9213,-0.936,-1.001,-1.2514,-1.4097,-1.4083,-1.4077,-1.4142,-1.4088,-1.4088,-1.4088,-1.4088,-1.4088,-1.4088,-1.4088,-1.4088,-1.4088,-1.4088,-1.4088,-1.4088,-1.4088,-1.4088,-1.4088,-1.4088,-1.4088,-1.4088,-1.4088,-1.4088,-1.4088,-1.4088,0.0,0.0,0.0,0.0,-1.4088,-1.4088,-1.4088,-1.4088,-1.4088,-1.4088,-1.4088,-1.4088,-1.4088,-1.4088,-1.4088,-1.4088,-1.4088,-1.4088,-1.4088,-1.4088,-1.4088,-1.4088,-1.4088,-1.4088,-1.4088,-1.3948,-1.3828,-1.3828,-1.3694,0.0,-1.3581,-1.3373,-1.3213,-1.3213,-1.306,-1.2939,-1.2939,-1.2792,-1.2685,-1.2685,-1.2565,-1.2485,-1.2485,-1.2371,0.0,0.0,0.0,-1.2445,-1.2879,-1.2879,0.0,0.0,0.0,-1.3673,-1.3673,-1.3882,0.0,0.0,-1.4665,-1.4386,0.0,0.0,0.0,0.0,0.0,0.0,0.0,0.0,0.0,0.0,0.0,0.0,0.0,0.0,0.0,0.0,-1.1381,-1.0611,-1.0783,-0.9836,-0.9305,-0.9775,-1.088,-1.2158,-1.3671,-1.3959,-1.411,-1.4108,-1.4102,-1.4108,-1.4128,-1.4135,0.0,0.0,0.0,-1.409,-1.409,-1.409,-1.409,-1.409,-1.409,-1.409,-1.409,-1.409,-1.409,-1.409,-1.409,-1.409,-1.409,-1.409,-1.409,-1.4083,-1.4108,-1.4088,-1.4088,-1.4088,-1.4088,-1.4088,-1.4088,0.0,0.0,-1.4088,-1.4088,-1.4088,-1.4088,-1.4088,-1.4088,-1.4088,-1.4088,-1.4088,-1.4088,-1.4088,-1.4088,-1.4088,-1.4088,-1.4088,-1.4088,-1.4088,-1.4088,-1.4088,-1.4088,-1.4088,-1.4088,-1.3654,-1.3307,-1.3307,-1.328,-1.326,-1.326,-1.3233,-1.3213,-1.3213,-1.2966,0.0,-1.2876,-1.2559,-1.2392,-1.2351,-1.2318,-1.2659,-1.3528,-1.3528,-1.3528,-1.3528,-1.3528,-1.3528,-1.3528,-1.2739,-1.2739,-1.3528,-1.445,-1.4378,0.0,0.0,0.0,0.0,0.0,0.0,0.0,0.0,0.0,0.0,0.0,0.0,0.0,0.0,0.0,-1.2328,-1.1381,-1.0956,-1.1809,-1.0956,-1.0605,-1.1627,-1.0661,-1.0575,-1.206,-1.3354,-1.413,-1.4117,-1.4103,-1.4078,-1.413,-1.4143,-1.406,-1.4084,-1.4091,-1.4091,-1.4091,-1.4091,-1.4091,-1.4091,-1.4091,0.0,-1.4091,-1.4091,-1.4091,-1.4091,-1.4091,-1.4091,-1.4091,-1.4091,-1.4091,-1.4141,-1.4078,-1.4088,-1.4088,-1.4088,-1.4088,-1.4088,-1.4088,-1.4088,-1.4088,-1.4088,-1.4088,-1.4088,-1.4088,-1.4088,0.0,-1.4088,-1.4088,-1.4088,-1.4088,-1.4088,-1.4088,-1.4088,-1.4088,-1.4088,-1.4088,-1.4088,-1.4088,-1.4088,-1.4088,-1.4088,-1.4088,-1.3995,-1.3921,-1.3921,-1.3714,-1.3561,-1.3561,-1.3353,-1.3213,-1.3213,-1.316,-1.312,-1.312,-1.3066,-1.2926,-1.2755,-1.2438,-1.2378,-1.2592,-1.2592,-1.2592,-1.2592,-1.2592,-1.2592,-1.2592,-1.2372,-1.2372,-1.2592,-1.2806,-1.2732,0.0,0.0,0.0,0.0,0.0,0.0,0.0,0.0,0.0,0.0,0.0,-1.4088,-1.4088,0.0,-1.3203,-1.3203,-1.2248,-1.1638,-1.2237,-1.1295,-1.1042,-1.2151,-1.093,-1.0221,-1.0641,-1.2233,-1.315,-1.2805,-1.386,-1.4441,-1.4141,-1.4641,-1.4912,-1.4957,-1.4957,-1.4957,-1.4957,-1.4957,-1.4957,-1.4957,-1.4957,-1.4957,-1.4957,-1.4957,-1.4957,-1.4957,-1.4957,-1.4957,-1.4957,-1.4957,-1.4957,-1.493,-1.4933,-1.4629,-1.4091,-1.4135,-1.4088,-1.4088,-1.4088,-1.4088,-1.4088,-1.4088,-1.4088,-1.4088,-1.4088,-1.4088,-1.4088,-1.4088,-1.4088,-1.4088,-1.4088,-1.4088,-1.4088,-1.4088,-1.4088,-1.4088,-1.4088,-1.4088,-1.4088,-1.4088,-1.4088,-1.4088,-1.4088,-1.4088,-1.4088,-1.4088,-1.3961,-1.3868,-1.3868,-1.3741,-1.3647,-1.3647,-1.3514,-1.3427,-1.3427,-1.3293,-1.314,-1.2986,-1.2692,-1.2525,-1.2525,-1.2378,-1.2305,-1.2305,-1.2305,-1.2305,-1.2305,-1.2305,-1.2305,-1.2305,-1.2305,-1.2305,0.0,0.0,0.0,0.0,0.0,0.0,0.0,-1.6034,-1.5137,-1.425,-1.4088,-1.4088,-1.4088,-1.4088,-1.4088,-1.4088,-1.3294,-1.2674,-1.2674,-1.1682,-1.1365,-1.2318,-1.1365,-1.0482,-0.984,-1.1087,-1.1932,-1.1816,-1.39,-1.4913,-1.4437,-1.5341,-1.5791,-1.584,-1.5756,-1.5756,-1.5756,-1.5756,-1.5756,-1.5756,-1.5756,-1.5756,-1.5756,-1.5756,-1.5756,-1.5756,-1.5756,-1.5756,-1.5756,-1.5756,-1.5756,-1.584,-1.5784,-1.5212,-1.4454,-1.4263,-1.4255,-1.4255,-1.4255,-1.4255,-1.4255,-1.4255,-1.4255,-1.4249,-1.4188,-1.4168,-1.4162,-1.4102,-1.4088,-1.4088,-1.4088,-1.4088,-1.4088,-1.4088,-1.4088,-1.4088,-1.4088,-1.4088,-1.4088,-1.4088,-1.4088,-1.4088,-1.4088,-1.4088,-1.4088,-1.4088,-1.4088,-1.4088,-1.4088,-1.4088,-1.4088,-1.4088,-1.3874,-1.3728,-1.3728,-1.3467,-1.3293,-1.3293,-1.3006,-1.2916,-1.2916,-1.2605,-1.2452,-1.2392,-1.2385,-1.2365,-1.2305,-1.2305,-1.2305,-1.2305,-1.2305,-1.2305,-2.0566,-1.9107,-1.7253,-1.6273,-1.522,-1.4496,0.0,-1.4328,-1.425,-1.4088,-1.4088,-1.4088,-1.4088,-1.4088,-1.4088,-1.4088,-1.3997,-1.3906,-1.3906,-1.3151,-1.2581,-1.2762,-1.1701,-1.0992,-1.0899,-1.0505,-1.098,-1.2581,-1.4598,-1.57,-1.5647,-1.5759,-1.5783,-1.5833,-1.5839,-1.5839,-1.5839,-1.5839,-1.5839,-1.5839,-1.5839,-1.5839,-1.5839,-1.5839,-1.5839,-1.5839,-1.5839,-1.5839,-1.5839,-1.5839,-1.5839,-1.5812,-1.5769,-1.5739,-1.5565,-1.4867,-1.4658,-1.4658,-1.4856,-1.4863,-1.4863,-1.4863,-1.4863,-1.4816,-1.4549,-1.4476,-1.4422,-1.4162,-1.4088,-1.4088,-1.4088,-1.4088,-1.4088,-1.4088,-1.4088,-1.4088,-1.4088,-1.4088,-1.4088,-1.4088,-1.4088,-1.4088,-1.4088,-1.4088,-1.4088,-1.4088,-1.4088,-1.4088,-1.4088,-1.4088,-1.4088,-1.4088,-1.4055,-1.4041,-1.4041,-1.3768,-1.3594,-1.3594,-1.332,-1.316,-1.316,-1.3126,-1.2979,-1.2775,-1.2775,-1.2565,-1.2305,-1.2305,-1.2305,-1.2305,-1.2305,-1.2305,-1.9027,-1.798,-1.7009,-1.5944,-1.5379,-1.5054,-1.5054,-1.5054,-1.481,-1.425,-1.4088,-1.4088,-1.4088,-1.4088,-1.4088,-1.4088,-1.3696,-1.3355,-1.3355,-1.2603,-1.2035,-1.2035,-1.2354,-1.2296,-1.1418,-1.1865,-1.2466,-1.3338,-1.4862,-1.5785,-1.5759,-1.5765,-1.5812,-1.5825,-1.5832,-1.5832,-1.5832,-1.5832,-1.5832,-1.5832,-1.5832,-1.5832,-1.5832,-1.5832,-1.5832,-1.5832,-1.5832,-1.5832,-1.5832,-1.5832,-1.5832,-1.5818,-1.5806,-1.5765,-1.5798,-1.5443,-1.5163,-1.4963,-1.4963,-1.4963,-1.4963,-1.4963,-1.4963,-1.4943,-1.4816,-1.4776,-1.4756,-1.4629,-1.4596,-1.4556,-1.4382,-1.4342,-1.4295,-1.4128,-1.4088,-1.4088,-1.4088,-1.4088,-1.4088,-1.4088,-1.4088,-1.4088,-1.4088,-1.4088,-1.4088,-1.4088,-1.4088,-1.4088,-1.4088,-1.4088,-1.4088,-1.4088,-1.4088,-1.4088,-1.4088,-1.3975,-1.3901,-1.3901,-1.3621,-1.346,-1.346,-1.33,-1.3153,-1.3019,-1.3019,-1.2866,-1.2559,-1.2559,-1.2472,-1.2305,-1.2305,-1.2305,-1.831,-1.7504,-1.7009,-1.5944,-1.5455,-1.5296,-1.5296,-1.5296,-1.5054,-1.425,-1.4088,-1.4115,-1.4195,-1.4208,-1.4235,-1.4315,-1.3779,-1.3364,-1.3364,-1.296,-1.2567,-1.2567,-1.3543,-1.3818,-1.2777,-1.3689,-1.4278,-1.4278,-1.5227,-1.5832,-1.5832,-1.5832,-1.5832,-1.5832,-1.5832,-1.5832,-1.5832,-1.5832,-1.5832,-1.5832,-1.5832,-1.5832,-1.5832,-1.5832,-1.5832,-1.5832,-1.5832,-1.5832,-1.5832,-1.5832,-1.5832,-1.5832,-1.5832,-1.5832,-1.5785,-1.578,-1.5616,-1.5308,-1.5204,-1.5204,-1.5204,-1.5204,-1.5204,-1.519,-1.511,-1.5084,-1.5064,-1.4983,-1.4963,-1.4917,-1.4696,-1.4643,-1.4589,-1.4376,-1.4329,-1.4329,-1.4329,-1.4269,-1.4208,-1.4208,-1.4142,-1.4088,-1.4088,-1.4088,-1.4088,-1.4088,-1.4088,-1.4088,-1.4088,-1.4088,-1.4088,-1.4088,-1.4088,-1.4088,-1.4088,-1.4088,-1.4088,-1.4088,-1.3881,-1.3768,-1.3768,-1.3561,-1.3414,-1.3333,-1.3327,-1.318,-1.2872,-1.2872,-1.2766,-1.2552,-1.2465,-1.2425,-1.9274,-1.8149,-1.7009,-1.5944,-1.4894,-1.4173,-1.4173,-1.4173,-1.4173,-1.4088,-1.4088,-1.4175,-1.4456,-1.4502,-1.4603,-1.489,-1.4943,-1.495,-1.495,-1.5106,-1.5285,-1.5285,-1.5544,-1.5717,-1.5704,-1.5717,-1.5724,-1.5724,-1.5825,-1.5832,-1.5832,-1.5832,-1.5832,-1.5832,-1.5832,-1.5832,-1.5832,-1.5832,-1.5832,-1.5832,-1.5832,-1.5832,-1.5832,-1.5832,-1.5832,-1.5832,-1.5832,-1.5832,-1.5832,-1.5832,-1.5832,-1.5832,-1.5832,-1.5832,-1.5825,-1.5812,-1.5805,-1.5805,-1.5805,-1.5805,-1.5805,-1.5805,-1.5805,-1.5752,-1.5471,-1.5384,-1.5324,-1.5044,-1.4963,-1.4963,-1.495,-1.495,-1.495,-1.4937,-1.4937,-1.4937,-1.4937,-1.471,-1.4502,-1.4502,-1.4282,-1.4088,-1.4088,-1.4088,-1.4088,-1.4088,-1.4088,-1.4088,-1.4088,-1.4088,-1.4088,-1.4088,-1.4088,-1.4088,-1.4088,-1.4088,-1.4088,-1.4088,-1.4082,-1.4075,-1.4075,-1.4068,-1.3928,-1.3552,-1.3627,-1.3487,-1.32,-1.32,-1.3193,-1.3173,-1.2872,-1.2808,-1.7326,-1.6519,-1.5951,-1.4894,-1.4328,-1.4135,-1.4329,-1.4376,-1.4429,-1.4629,-1.4669,-1.4703,-1.4796,-1.4816,-1.4843,-1.495,-1.5124,-1.5251,-1.5251,-1.5504,-1.5389,-1.452,-1.4506,-1.4172,-1.3301,-1.398,-1.4854,-1.573,-1.5045,-1.4949,-1.573,-1.5832,-1.5832,-1.5832,-1.5832,-1.5832,-1.5832,-1.5832,-1.5832,-1.5832,-1.5832,-1.5832,-1.5832,-1.5832,-1.5832,-1.5832,-1.5832,-1.5832,-1.5832,-1.5832,-1.5832,-1.5832,-1.5832,-1.5832,-1.5832,-1.5832,-1.5832,-1.5832,-1.5832,-1.5832,-1.5832,-1.5832,-1.5832,-1.5812,-1.5712,-1.5685,-1.5665,-1.5565,-1.5538,-1.5491,-1.5297,-1.5251,-1.5204,-1.501,-1.4963,-1.4963,-1.4963,-1.4883,-1.4816,-1.4816,-1.4576,-1.4376,-1.4376,-1.4215,-1.4088,-1.4088,-1.4088,-1.4088,-1.4088,-1.4088,-1.4088,-1.4088,-1.4088,-1.4088,-1.4088,-1.4088,-1.4088,-1.4088,-1.4088,-1.4088,-1.4088,-1.4088,-1.4041,-1.3941,-1.3941,-1.3794,-1.35,-1.35,-1.34,-1.3206,-1.3106,-1.3053,-1.6191,-1.5696,-1.5484,-1.4457,-1.4242,-1.4322,-1.4616,-1.4676,-1.4736,-1.4923,-1.4963,-1.4997,-1.5104,-1.5117,-1.515,-1.5257,-1.5431,-1.5551,-1.5551,-1.5321,-1.4854,-1.3974,-1.3494,-1.2818,-1.1945,-1.2721,-1.3686,-1.5045,-1.4364,-1.4459,-1.573,-1.5832,-1.5832,-1.5832,-1.5832,-1.5832,-1.5832,-1.5832,-1.5832,-1.5832,-1.5832,-1.5832,-1.5832,-1.5832,-1.5832,-1.5832,-1.5832,-1.5832,-1.5832,-1.5832,-1.5832,-1.5832,-1.5832,-1.5832,-1.5832,-1.5832,-1.5832,-1.5832,-1.5832,-1.5832,-1.5832,-1.5832,-1.5832,-1.5832,-1.5832,-1.5832,-1.5832,-1.5832,-1.5832,-1.5785,-1.5598,-1.5551,-1.5504,-1.5317,-1.5277,-1.5277,-1.5277,-1.519,-1.5117,-1.5117,-1.4883,-1.4676,-1.4676,-1.4436,-1.4208,-1.4102,-1.4088,-1.4088,-1.4088,-1.4088,-1.4088,-1.4088,-1.4088,-1.4088,-1.4088,-1.4088,-1.4088,-1.4088,-1.4088,-1.4088,-1.4088,-1.4088,-1.4088,-1.4088,-1.4088,-1.3995,-1.3801,-1.3801,-1.3707,-1.352,-1.3414,-1.3367,-1.5944,-1.5628,-1.5474,-1.4702,-1.4529,-1.4623,-1.4917,-1.4983,-1.499,-1.5003,-1.501,-1.5097,-1.5364,-1.5418,-1.5504,-1.5785,-1.5832,-1.5832,-1.5832,-1.4657,-1.3878,-1.3782,-1.2619,-1.175,-1.175,-1.1755,-1.2334,-1.3584,-1.3776,-1.4459,-1.573,-1.5832,-1.5832,-1.5832,-1.5832,-1.5832,-1.5832,-1.5832,-1.5832,-1.5832,-1.5832,-1.5832,-1.5832,-1.5832,-1.5832,-1.5832,-1.5832,-1.5832,-1.5832,-1.5832,-1.5832,-1.5832,-1.5832,-1.5832,-1.5832,-1.5832,-1.5832,-1.5832,-1.5832,-1.5832,-1.5832,-1.5832,-1.5832,-1.5832,-1.5832,-1.5832,-1.5832,-1.5832,-1.5832,-1.5832,-1.5832,-1.5832,-1.5832,-1.5832,-1.5832,-1.5832,-1.5832,-1.5611,-1.5418,-1.5418,-1.5184,-1.4983,-1.497,-1.473,-1.4442,-1.4155,-1.4108,-1.4108,-1.4088,-1.4088,-1.4088,-1.4088,-1.4088,-1.4088,-1.4088,-1.4088,-1.4088,-1.4088,-1.4088,-1.4088,-1.4088,-1.4088,-1.4088,-1.4088,-1.4088,-1.4088,-1.4088,-1.4088,-1.4088,-1.4082,-1.3801,-1.3667,-1.4817,-1.4654,-1.4761,-1.4583,-1.4689,-1.4923,-1.5217,-1.5284,-1.5344,-1.5565,-1.5611,-1.5631,-1.5705,-1.5718,-1.5745,-1.5818,-1.5832,-1.5832,-1.5832,-1.4657,-1.3488,-1.2528,-1.1263,-1.0096,-0.9118,-0.9899,-1.0583,-1.097,-1.2807,-1.4459,-1.573,-1.5832,-1.5832,-1.5832,-1.5832,-1.5832,-1.5832,-1.5832,-1.5832,-1.5832,-1.5832,-1.5832,-1.5832,-1.5832,-1.5832,-1.5832,-1.5832,-1.5832,-1.5832,-1.5832,-1.5832,-1.5832,-1.5832,-1.5832,-1.5832,-1.5832,-1.5832,-1.5832,-1.5832,-1.5832,-1.5832,-1.5832,-1.5832,-1.5832,-1.5832,-1.5832,-1.5832,-1.5832,-1.5832,-1.5832,-1.5832,-1.5832,-1.5832,-1.5832,-1.5832,-1.5832,-1.5832,-1.5772,-1.5718,-1.5718,-1.5484,-1.5217,-1.4997,-1.4903,-1.475,-1.4456,-1.4409,-1.4335,-1.4115,-1.4088,-1.4088,-1.4088,-1.4088,-1.4088,-1.4088,-1.4088,-1.4088,-1.4088,-1.4088,-1.4088,-1.4088,-1.4088,-1.4088,-1.4088,-1.4088,-1.4088,-1.4088,-1.4088,-1.4088,-1.4088,-1.4008,-1.3975,-1.425,-1.4302,-1.4549,-1.4683,-1.4937,-1.5231,-1.5518,-1.5585,-1.5631,-1.5798,-1.5832,-1.5832,-1.5832,-1.5832,-1.5832,-1.5832,-1.5832,-1.5832,-1.5832,-1.4657,-1.3392,-1.2042,-1.0779,-0.9509,-0.8137,-0.9217,-1.0194,-1.0779,-1.2716,-1.4166,-1.4949,-1.5534,-1.5832,-1.5832,-1.5843,-1.5763,-1.5778,-1.5778,-1.5778,-1.5778,-1.5778,-1.5816,-1.5807,-1.5807,-1.5836,-1.5832,-1.5832,-1.5832,-1.5832,-1.5832,-1.5832,-1.5832,-1.5832,-1.5832,-1.5832,-1.5832,-1.5832,-1.5629,-1.4506,-1.41,-1.4303,-1.5425,-1.5832,-1.573,-1.514,-1.4949,-1.4854,-1.4274,-1.4465,-1.4949,-1.4949,-1.5343,-1.5832,-1.5832,-1.5832,-1.5832,-1.5832,-1.5832,-1.5832,-1.5832,-1.5698,-1.5491,-1.5204,-1.5157,-1.505,-1.4763,-1.4603,-1.4462,-1.4295,-1.4168,-1.4088,-1.4088,-1.4088,-1.4088,-1.4088,-1.4088,-1.4088,-1.4088,-1.4088,-1.4088,-1.4088,-1.4088,-1.4088,-1.4088,-1.4088,-1.4088,-1.4088,-1.4088,-1.4088,-1.4088,-1.4088,-1.4088,-1.4135,-1.4355,-1.4649,-1.495,-1.5237,-1.5518,-1.5772,-1.5832,-1.5832,-1.5832,-1.5832,-1.5832,-1.5832,-1.5832,-1.5832,-1.5832,-1.5832,-1.5832,-1.5832,-1.4561,-1.3199,-1.2042,-1.0583,-0.9316,-0.8137,-0.9217,-1.0391,-1.1263,-1.2909,-1.3974,-1.4166,-1.5242,-1.5845,-1.5783,-1.5959,-1.6006,-1.6027,-1.6027,-1.6027,-1.6027,-1.6027,-1.6017,-1.5999,-1.5882,-1.5835,-1.5783,-1.5783,-1.5763,-1.5832,-1.5832,-1.5832,-1.5832,-1.5832,-1.5832,-1.5832,-1.5832,-1.5838,-1.5445,-1.3211,-1.2001,-1.1798,-1.4423,-1.5248,-1.5051,-1.3974,-1.3584,-1.3392,-1.2237,-1.2721,-1.3584,-1.3584,-1.4561,-1.554,-1.554,-1.5635,-1.5832,-1.5832,-1.5832,-1.5832,-1.5832,-1.5832,-1.5752,-1.5498,-1.5451,-1.5357,-1.5064,-1.4803,-1.4623,-1.4583,-1.4289,-1.4088,-1.4088,-1.4088,-1.4088,-1.4088,-1.4088,-1.4088,-1.4088,-1.4088,-1.4088,-1.4088,-1.4088,-1.4088,-1.4088,-1.4088,-1.4088,-1.4088,-1.4088,-1.4088,-1.4088,-1.4088,-1.4088,-1.4382,-1.4663,-1.4957,-1.5251,-1.5538,-1.5765,-1.5818,-1.5832,-1.5832,-1.5832,-1.5832,-1.5832,-1.5832,-1.5832,-1.5832,-1.5832,-1.5832,-1.5832,-1.5832,-1.3788,-1.2139,-1.1945,-0.9801,-0.8237,-0.8038,-0.9217,-0.9608,-0.8726,-1.1935,-1.4364,-1.5439,-1.5635,-1.583,-1.5751,-1.681,-1.7334,-1.7275,-1.7275,-1.7275,-1.7275,-1.7275,-1.7255,-1.72,-1.6288,-1.5802,-1.5758,-1.5758,-1.5833,-1.5832,-1.5832,-1.5832,-1.5832,-1.5832,-1.5832,-1.5832,-1.5832,-1.579,-1.5767,-1.5255,-1.2266,-0.915,-1.1701,-1.2624,-1.2528,-1.2334,-1.2237,-1.2237,-1.1945,-1.2042,-1.2237,-1.2237,-1.3204,-1.4262,-1.4262,-1.5045,-1.5832,-1.5832,-1.5832,-1.5832,-1.5832,-1.5832,-1.5812,-1.5765,-1.5752,-1.5658,-1.5364,-1.5277,-1.5157,-1.4917,-1.4422,-1.4088,-1.4088,-1.4088,-1.4088,-1.4088,-1.4088,-1.4088,-1.4088,-1.4088,-1.4088,-1.4088,-1.4088,-1.4088,-1.4088,-1.4088,-1.4088,-1.4088,-1.4088,-1.4088,-1.4088,-1.4088,-1.4088,-1.4482,-1.485,-1.5224,-1.5357,-1.5611,-1.5832,-1.5832,-1.5832,-1.5832,-1.5832,-1.5832,-1.5832,-1.5832,-1.5832,-1.5832,-1.5832,-1.5242,-1.5045,-1.573,-1.3596,-1.1945,-1.1945,-1.0194,-0.8726,-0.8038,-0.8627,-0.9019,-0.9019,-1.0769,-1.2216,-1.3058,-1.4824,-1.6117,-1.6714,-1.7286,-1.7558,-1.7627,-1.7627,-1.7627,-1.7627,-1.7592,-1.762,-1.7625,-1.7007,-1.676,-1.671,-1.6051,-1.5776,-1.5832,-1.5832,-1.5832,-1.5832,-1.5832,-1.5832,-1.5838,-1.5797,-1.5754,-1.5383,-1.264,-1.0112,-0.8217,-0.9473,-1.0774,-1.175,-1.1072,-1.0877,-1.0779,-1.0092,-1.0386,-1.0877,-1.0877,-1.1848,-1.3006,-1.368,-1.4848,-1.5832,-1.5832,-1.5832,-1.5832,-1.5832,-1.5832,-1.5832,-1.5832,-1.5832,-1.5785,-1.5645,-1.5491,-1.5344,-1.5204,-1.481,-1.4482,-1.4329,-1.4309,-1.4249,-1.4102,-1.4088,-1.4088,-1.4088,-1.4088,-1.4088,-1.4088,-1.4088,-1.4088,-1.4088,-1.4088,-1.4088,-1.4088,-1.4088,-1.4088,-1.4088,-1.4088,-1.4088,-1.4596,-1.4997,-1.5411,-1.5471,-1.5658,-1.5832,-1.5832,-1.5832,-1.5832,-1.5832,-1.5832,-1.5832,-1.5832,-1.5832,-1.5832,-1.5832,-1.4949,-1.4561,-1.5337,-1.3397,-1.1755,-1.156,-1.0386,-0.9118,-0.8137,-0.8038,-0.8432,-0.9509,-0.9529,-1.0229,-1.1605,-1.4465,-1.5954,-1.5785,-1.6899,-1.7613,-1.7582,-1.7582,-1.7582,-1.7582,-1.7576,-1.6989,-1.578,-1.7049,-1.7592,-1.7563,-1.6334,-1.5804,-1.5754,-1.577,-1.5832,-1.5832,-1.5832,-1.5838,-1.5777,-1.5767,-1.5076,-1.3551,-0.9441,-0.7963,-0.798,-0.8024,-0.941,-1.0872,-0.9899,-0.9608,-0.9312,-0.8336,-0.8726,-0.9608,-0.9608,-1.0681,-1.2237,-1.359,-1.4459,-1.4956,-1.4956,-1.5146,-1.5439,-1.5439,-1.5635,-1.5832,-1.5832,-1.5832,-1.5832,-1.5832,-1.5631,-1.5491,-1.5491,-1.5291,-1.5037,-1.4736,-1.4649,-1.4522,-1.4295,-1.4215,-1.4182,-1.4182,-1.4122,-1.4088,-1.4088,-1.4088,-1.4088,-1.4088,-1.4088,-1.4088,-1.4088,-1.4088,-1.4088,-1.4088,-1.4088,-1.4088,-1.485,-1.5157,-1.5464,-1.5725,-1.5812,-1.5832,-1.5832,-1.5832,-1.5832,-1.5832,-1.5832,-1.5832,-1.5832,-1.5832,-1.5832,-1.5832,-1.573,-1.5242,-1.4268,-1.2818,-1.1458,-1.0293,-0.9019,-0.8137,-0.8038,-0.8038,-0.8038,-0.8137,-0.8206,-1.0309,-1.5071,-1.6131,-1.4531,-0.9804,-1.4796,-1.7583,-1.7582,-1.7582,-1.7582,-1.7582,-1.7595,-1.4824,-0.9914,-1.5146,-1.7642,-1.7553,-1.6343,-1.5795,-1.5836,-1.578,-1.5832,-1.5832,-1.5832,-1.5797,-1.5787,-1.5794,-1.284,-0.8648,-0.8153,-0.7987,-0.8031,-0.8038,-0.8137,-0.8333,-0.8233,-0.8137,-0.8137,-0.8038,-0.8137,-0.8137,-0.8137,-0.9998,-1.2237,-1.359,-1.3108,-1.2237,-1.2237,-1.3204,-1.407,-1.407,-1.5045,-1.5832,-1.5832,-1.5832,-1.5832,-1.5832,-1.5805,-1.5792,-1.5792,-1.5765,-1.5638,-1.5351,-1.5084,-1.491,-1.489,-1.4636,-1.4482,-1.4482,-1.4229,-1.4088,-1.4088,-1.4088,-1.4088,-1.4088,-1.4088,-1.4088,-1.4088,-1.4088,-1.4088,-1.4088,-1.4088,-1.4088,-1.4103,-1.4739,-1.5685,-1.5798,-1.5832,-1.5832,-1.5832,-1.5832,-1.5832,-1.5832,-1.5832,-1.5832,-1.5832,-1.5832,-1.5832,-1.5832,-1.5146,-1.4459,-1.3974,-1.2134,-1.0583,-1.0096,-0.8825,-0.8038,-0.8038,-0.8038,-0.8038,-0.8038,-0.8129,-0.8987,-1.1003,-1.1663,-1.0996,-0.8977,-1.4511,-1.7576,-1.7589,-1.7556,-1.7556,-1.7589,-1.7609,-1.6347,-1.4142,-1.2891,-1.2364,-1.236,-1.1887,-1.3254,-1.5795,-1.577,-1.579,-1.5838,-1.5803,-1.5761,-1.539,-1.2237,-0.9739,-0.796,-0.7994,-0.8021,-0.8038,-0.8038,-0.8038,-0.8038,-0.8038,-0.8038,-0.8038,-0.8038,-0.8038,-0.8038,-0.8038,-0.941,-1.0877,-1.1453,-1.175,-1.2139,-1.2909,-1.3488,-1.4166,-1.4854,-1.5439,-1.5832,-1.5832,-1.5832,-1.5832,-1.5832,-1.5832,-1.5832,-1.5832,-1.5832,-1.5785,-1.5671,-1.5398,-1.5157,-1.4977,-1.4856,-1.4783,-1.4783,-1.4676,-1.4616,-1.4616,-1.4442,-1.4349,-1.4349,-1.4175,-1.4088,-1.4088,-1.4088,-1.4088,-1.4088,-1.4088,-1.4088,-1.3026,-1.3643,-1.4663,-1.4663,-1.4663,-1.4758,-1.5146,-1.4949,-1.4758,-1.5146,-1.4949,-1.4663,-1.4663,-1.4663,-1.4663,-1.4663,-1.3878,-1.3199,-1.2807,-1.1161,-0.9903,-0.941,-0.8531,-0.8038,-0.8038,-0.8038,-0.8058,-0.8106,-0.813,-0.8177,-0.8114,-0.8655,-0.8928,-0.8908,-1.452,-1.7648,-1.7642,-1.7583,-1.673,-1.5007,-1.6807,-1.6744,-1.4843,-1.077,-0.8953,-0.8931,-0.8884,-1.0625,-1.3596,-1.5114,-1.5827,-1.579,-1.5767,-1.4852,-1.3006,-0.9335,-0.7963,-0.7984,-0.8024,-0.8038,-0.8038,-0.8038,-0.8038,-0.8038,-0.8038,-0.8038,-0.8038,-0.8038,-0.8038,-0.8137,-0.8531,-0.9019,-0.9509,-0.9899,-1.0391,-1.097,-1.1935,-1.2517,-1.3102,-1.437,-1.4956,-1.5343,-1.573,-1.5832,-1.5832,-1.5832,-1.5832,-1.5832,-1.5832,-1.5832,-1.5832,-1.5832,-1.5645,-1.5444,-1.5237,-1.5137,-1.509,-1.509,-1.501,-1.4963,-1.4963,-1.4763,-1.4649,-1.4649,-1.4449,-1.4349,-1.4349,-1.4255,-1.4215,-1.4215,-1.4128,-1.4088,-1.1812,-1.1763,-1.1945,-1.1945,-1.1945,-1.2334,-1.359,-1.2909,-1.2334,-1.3686,-1.2813,-1.1945,-1.1945,-1.1945,-1.1945,-1.1945,-1.1945,-1.1458,-1.0194,-0.9998,-0.9509,-0.8137,-0.8038,-0.8038,-0.8038,-0.8038,-0.8102,-0.8255,-0.8079,-0.8114,-0.8477,-0.8742,-0.8903,-0.8944,-1.4603,-1.758,-1.7562,-1.7649,-1.4656,-0.9061,-1.4884,-1.4601,-0.8955,-0.8918,-0.8879,-0.8934,-0.8901,-0.8639,-0.8474,-1.3707,-1.5752,-1.58,-1.58,-1.2684,-0.807,-0.8031,-0.7991,-0.8038,-0.8038,-0.8038,-0.8038,-0.8038,-0.8038,-0.8038,-0.8038,-0.8038,-0.8038,-0.8038,-0.8038,-0.8333,-0.9608,-0.9019,-0.8333,-0.9706,-0.9019,-0.8038,-0.8038,-0.9118,-1.0386,-1.1653,-1.3006,-1.4364,-1.554,-1.5832,-1.5832,-1.5832,-1.5832,-1.5832,-1.5832,-1.5832,-1.5832,-1.5832,-1.5825,-1.5818,-1.5818,-1.5558,-1.5391,-1.5391,-1.5124,-1.4963,-1.4963,-1.4963,-1.4957,-1.4957,-1.4957,-1.4957,-1.495,-1.4663,-1.4516,-1.4509,-1.4222,-1.4088,-1.07,-1.0986,-1.1945,-1.1945,-1.1945,-1.2042,-1.2431,-1.2237,-1.2042,-1.2431,-1.2237,-1.1945,-1.1945,-1.1945,-1.1945,-1.1945,-1.1945,-1.1463,-1.0194,-0.9998,-0.9509,-0.8137,-0.8038,-0.8038,-0.8038,-0.8038,-0.8002,-0.8047,-0.8294,-0.8441,-0.881,-0.8855,-0.8906,-0.8948,-1.0736,-1.3557,-1.758,-1.7648,-1.6631,-1.4893,-1.6744,-1.6643,-1.4837,-1.4843,-1.263,-0.8937,-0.8897,-0.8748,-0.8698,-0.9924,-1.2583,-1.5807,-1.5796,-1.2646,-0.7976,-0.7977,-0.8024,-0.8038,-0.8038,-0.8038,-0.8038,-0.8038,-0.8038,-0.8038,-0.8038,-0.8038,-0.8038,-0.8038,-0.8038,-0.8137,-0.8531,-0.8333,-0.8137,-0.8531,-0.8333,-0.8237,-0.9217,-0.9702,-1.0391,-1.1658,-1.2237,-1.2915,-1.4268,-1.4459,-1.4752,-1.5635,-1.5832,-1.5832,-1.5832,-1.5832,-1.5832,-1.5832,-1.5832,-1.5832,-1.5832,-1.5745,-1.5691,-1.5691,-1.5605,-1.5558,-1.5558,-1.5364,-1.5257,-1.5257,-1.5064,-1.4963,-1.4963,-1.487,-1.4823,-1.4823,-1.473,-1.4689,-0.9328,-0.9665,-1.0386,-1.0386,-1.0386,-1.0583,-1.1072,-1.0779,-1.0583,-1.1068,-1.0779,-1.0386,-1.0386,-1.0386,-1.0386,-1.0386,-1.0386,-1.019,-0.9312,-0.9217,-0.8924,-0.8137,-0.8038,-0.8038,-0.8038,-0.8038,-0.8026,-0.8227,-0.8431,-0.868,-0.89,-0.8889,-0.892,-0.8876,-0.8849,-1.0611,-1.431,-1.4272,-1.538,-1.7562,-1.7595,-1.7595,-1.7562,-1.7587,-1.5646,-1.2082,-0.9869,-0.8945,0.0,-0.8235,-1.1123,-1.5776,-1.5809,-1.264,-0.7976,-0.7974,-0.8021,-0.8038,-0.8038,-0.8038,-0.8038,-0.8038,-0.8038,-0.8038,-0.8038,-0.8038,-0.8038,-0.8038,-0.8038,-0.8038,-0.8038,-0.8038,-0.8038,-0.8038,-0.8038,-0.8233,-0.9019,-0.9217,-0.9608,-1.0974,-1.117,-1.1556,-1.2909,-1.3584,-1.4166,-1.4949,-1.5534,-1.5832,-1.5832,-1.5832,-1.5832,-1.5832,-1.5832,-1.5832,-1.5832,-1.5832,-1.5832,-1.5832,-1.5832,-1.5832,-1.5832,-1.5658,-1.5558,-1.5558,-1.5384,-1.5291,-1.5291,-1.5177,-1.507,-1.4963,-1.4963,-1.4963,0.0,-0.7916,-0.8038,-0.8038,-0.8038,-0.8333,-0.9608,-0.8924,0.0,-0.9608,-0.8821,-0.8038,-0.8038,-0.8038,-0.8038,-0.8038,-0.8038,-0.8038,-0.8038,-0.8038,-0.8038,-0.8038,-0.8038,-0.8038,-0.8038,-0.8052,-0.8174,-0.8459,-0.8598,-0.8735,-0.8923,-0.894,-0.894,-0.894,-0.8876,-0.892,-0.8858,-0.9337,-1.2214,-1.7589,-1.7199,-1.7205,-1.7582,-1.7593,-1.741,-1.6705,-1.127,-0.8872,-0.8905,-0.825,-1.1075,-1.5784,-1.5763,-1.2802,-0.8477,-0.8133,-0.7991,-0.8038,-0.8038,-0.8038,-0.8038,-0.8038,-0.8038,-0.8038,-0.8038,-0.8038,-0.8038,-0.8038,-0.8038,-0.8038,-0.8038,-0.8038,-0.8038,-0.8038,-0.8038,-0.8038,-0.8038,-0.8038,-0.8333,-0.9608,-0.9903,-1.0293,-1.1556,-1.2813,-1.368,-1.3878,-1.4949,-1.573,-1.5825,-1.5832,-1.5832,-1.5832,-1.5832,-1.5832,-1.5832,-1.5832,-1.5832,-1.5832,-1.5832,-1.5832,-1.5832,-1.5832,-1.5832,-1.5832,-1.5832,-1.5832,-1.5832,-1.5558,-1.5291,-1.5023,-1.5023,-1.5023,-0.7732,0.0,-0.8038,-0.8038,-0.8038,-0.8038,0.0,-0.8233,-0.8137,-0.8432,-0.8237,-0.8038,-0.8038,-0.8038,-0.8038,-0.8038,-0.8038,-0.8038,-0.8038,-0.8038,-0.8038,-0.8038,-0.8038,-0.8038,-0.8038,-0.8147,-0.8289,-0.8357,-0.8481,-0.8737,-0.8927,-0.894,-0.894,-0.894,-0.8923,-0.8906,-0.8889,-1.3287,-1.6193,-1.752,-1.3121,-1.3316,-1.76,-1.7633,-1.5184,-1.0849,-0.9523,-0.8939,-0.8804,-0.8294,-1.1121,-1.5791,-1.5765,-1.5008,-1.3442,-0.9461,-0.7991,-0.8038,-0.8038,-0.8038,-0.8038,-0.8038,-0.8038,-0.8038,-0.8038,-0.8038,-0.8038,-0.8038,-0.8038,-0.8038,-0.8038,-0.8038,-0.8038,-0.8038,-0.8038,-0.8038,-0.8038,-0.8038,-0.8137,-0.8432,-0.8432,-0.8924,-1.0194,-1.0676,-1.1648,-1.3584,-1.4166,-1.4657,-1.5635,-1.5832,-1.5832,-1.5832,-1.5832,-1.5832,-1.5832,-1.5832,-1.5832,-1.5832,-1.5832,-1.5832,-1.5832,-1.5832,-1.5832,-1.5832,-1.5832,-1.5832,-1.5832,-1.5758,-1.5691,-1.5625,-1.5625,-1.5625,-0.758,-0.7814,-0.8038,-0.8038,-0.8038,-0.8038,-0.8038,-0.8038,-0.8038,-0.8038,-0.8038,-0.8038,-0.8038,-0.8048,-0.7952,-0.8041,-0.8048,-0.7952,-0.8041,-0.8038,-0.8038,-0.8038,-0.8038,-0.8038,-0.8038,-0.818,-0.8326,-0.8364,-0.8515,-0.8669,-0.893,-0.894,-0.894,-0.894,-0.894,-0.8923,-0.8893,-1.2055,-1.3655,-1.3546,-1.0446,-1.0542,-1.3573,-1.363,-1.1932,-0.8941,-0.8872,-0.8855,-0.8902,-0.8206,-0.9658,-1.2462,-1.4902,-1.5796,-1.5149,-0.993,-0.7967,-0.8038,-0.8038,-0.8038,-0.8038,-0.8038,-0.8038,-0.8038,-0.8038,-0.8038,-0.8038,-0.8038,-0.8038,-0.8038,-0.8038,-0.8038,-0.8038,-0.8038,-0.8038,-0.8038,-0.8038,-0.8038,-0.8038,-0.8038,-0.8038,-0.8233,-0.892,-0.9608,-1.0485,-1.1935,-1.3102,-1.4166,-1.4848,-1.5439,-1.5832,-1.5832,-1.5832,-1.5832,-1.5832,-1.5832,-1.5832,-1.5832,-1.5832,-1.5832,-1.5832,-1.5832,-1.5832,-1.5832,-1.5832,-1.5832,-1.5832,-1.5832,-1.5832,-1.5832,-1.5832,-1.5832,-0.7556,-0.7797,-0.8011,-0.8035,-0.8038,-0.8038,-0.8038,-0.8038,-0.8038,-0.8038,-0.8038,-0.8041,-0.8045,-0.7959,-0.7962,-0.764,-0.7852,-0.7962,-0.8041,-0.8038,-0.8038,-0.8038,-0.8038,-0.8048,-0.8072,-0.8214,-0.8364,-0.8506,-0.8659,-0.8801,-0.893,-0.894,-0.894,-0.894,-0.894,-0.891,-0.8852,-0.8852,-0.8852,-0.8852,-0.8903,-0.89,-0.8944,-0.8896,-0.9352,-1.0183,-0.9241,-0.8888,-0.8769,-0.8194,-0.8506,-0.9652,-1.4028,-1.58,-1.5143,-0.9888,-0.8038,-0.8038,-0.8038,-0.8038,-0.8038,-0.8038,-0.8038,-0.8038,-0.8038,-0.8038,-0.8038,-0.8038,-0.8038,-0.8038,-0.8038,-0.8038,-0.8038,-0.8038,-0.8038,-0.8038,-0.8038,-0.8038,-0.8038,-0.8038,-0.8038,-0.8038,-0.8038,-0.892,-0.9801,-1.0194,-1.2037,-1.3488,-1.407,-1.4949,-1.554,-1.5737,-1.5832,-1.5832,-1.5832,-1.5832,-1.5832,-1.5832,-1.5832,-1.5832,-1.5832,-1.5832,-1.5832,-1.5832,-1.5832,-1.5832,-1.5832,-1.5832,-1.5832,-1.5832,-1.5832,-1.5832,-0.7556,-0.7719,-0.7879,-0.8007,-0.8038,-0.8038,-0.8038,-0.8038,-0.8038,-0.8038,-0.8038,-0.8045,-0.7965,-0.7955,-0.7537,-0.6024,-0.7033,-0.8041,-0.8038,-0.8038,-0.8038,-0.8038,-0.8038,-0.8092,-0.8221,-0.8367,-0.8513,-0.8665,-0.8818,-0.8913,-0.8937,-0.894,-0.894,-0.894,-0.894,-0.8933,-0.8923,-0.8923,-0.8923,-0.8923,-0.8913,-0.8882,-0.8948,-0.8886,-1.1625,-1.6023,-1.1095,-0.8587,-0.8176,-0.8014,-1.0582,-1.4647,-1.5466,-1.5763,-1.5143,-0.9888,-0.8038,-0.8038,-0.8038,-0.8038,-0.8038,-0.8038,-0.8038,-0.8038,-0.8038,-0.8038,-0.8038,-0.8038,-0.8038,-0.8038,-0.8038,-0.8038,-0.8038,-0.8038,-0.8038,-0.8038,-0.8038,-0.8038,-0.8038,-0.8038,-0.8038,-0.8038,-0.8038,-0.8137,-0.9019,-1.1263,-1.1068,-1.1745,-1.5045,-1.4752,-1.4555,-1.5635,-1.5832,-1.5832,-1.5832,-1.5832,-1.5832,-1.5832,-1.5832,-1.5832,-1.5832,-1.5832,-1.5832,-1.5832,-1.5832,-1.5832,-1.5832,-1.5832,-1.5832,-1.5832,-1.5832,-1.5832,-0.7536,-0.7648,-0.7753,-0.798,-0.8038,-0.8041,-0.7955,-0.7959,-0.7959,-0.7959,-0.7959,-0.7962,-0.7972,-0.6842,-0.6027,-0.6748,-0.7453,-0.7952,-0.8041,-0.8038,-0.8038,-0.8038,-0.8038,-0.8099,-0.8255,-0.8397,-0.8547,-0.8699,-0.8852,-0.894,-0.894,-0.894,-0.894,-0.894,-0.894,-0.894,-0.894,-0.894,-0.894,-0.894,-0.894,-0.892,-0.9003,-1.2211,-1.3317,-1.2733,-1.0036,-0.8539,-0.8255,-1.1097,-1.3607,-1.5794,-1.583,-1.5827,-1.5155,-0.9976,-0.7994,-0.8038,-0.8038,-0.8038,-0.8038,-0.8038,-0.8038,-0.8038,-0.8038,-0.8038,-0.8038,-0.8038,-0.8038,-0.8038,-0.8038,-0.8038,-0.8038,-0.8038,-0.8038,-0.8038,-0.8038,-0.8038,-0.8038,-0.8038,-0.8038,-0.8038,-0.8038,-0.8038,-0.8432,-0.9604,-1.0485,-1.1458,-1.2522,-1.3974,-1.4854,-1.4752,-1.5439,-1.5832,-1.5832,-1.5832,-1.5832,-1.5832,-1.5832,-1.5832,-1.5832,-1.5832,-1.5832,-1.5832,-1.5832,-1.5832,-1.5832,-1.5832,-1.5832,-1.5832,-1.5832,-1.5832,-0.7516,-0.76,-0.7672,-0.7967,-0.8038,-0.8045,-0.7969,-0.7972,-0.7869,-0.7156,-0.7566,-0.7975,-0.7975,-0.6342,-0.5632,-0.7669,-0.7972,-0.7959,-0.8041,-0.8038,-0.8038,-0.8038,-0.8038,-0.8113,-0.8303,-0.8418,-0.856,-0.875,-0.8872,-0.894,-0.894,-0.894,-0.894,-0.894,-0.894,-0.894,-0.894,-0.894,-0.894,-0.894,-0.894,-0.893,-0.9027,-1.3546,-1.3083,-0.8894,-0.8772,-0.8378,-0.8438,-1.3658,-1.5803,-1.5754,-1.5797,-1.5063,-1.3481,-0.9442,-0.8038,-0.8038,-0.8038,-0.8038,-0.8038,-0.8038,-0.8038,-0.8038,-0.8038,-0.8038,-0.8038,-0.8038,-0.8038,-0.8038,-0.8038,-0.8038,-0.8038,-0.8038,-0.8038,-0.8038,-0.8038,-0.8038,-0.8038,-0.8038,-0.8038,-0.8038,-0.8038,-0.8038,-0.8137,-0.8432,-0.9899,-1.0974,-1.0872,-1.3011,-1.4268,-1.3974,-1.4752,-1.5439,-1.5737,-1.5832,-1.5832,-1.5832,-1.5832,-1.5832,-1.5832,-1.5832,-1.5832,-1.5832,-1.5832,-1.5832,-1.5832,-1.5832,-1.5832,-1.5832,-1.5832,-1.5832,-0.7516,-0.76,-0.7672,-0.7967,-0.8038,-0.8045,-0.7969,-0.7972,-0.726,-0.4822,-0.6245,-0.7989,-0.7989,-0.7879,-0.7762,-0.7945,-0.8041,-0.8041,-0.8038,-0.8038,-0.8038,-0.8038,-0.8038,-0.8153,-0.8438,-0.8476,-0.8604,-0.8899,-0.893,-0.894,-0.894,-0.894,-0.894,-0.894,-0.894,-0.894,-0.894,-0.894,-0.894,-0.894,-0.894,-0.8903,-0.8951,-0.9316,-0.9344,-0.8821,-0.827,-0.7994,-0.8382,-1.3635,-1.5757,-1.575,-1.5843,-1.284,-0.8561,-0.812,-0.8038,-0.8038,-0.8038,-0.8038,-0.8038,-0.8038,-0.8038,-0.8038,-0.8038,-0.8038,-0.8038,-0.8038,-0.8038,-0.8038,-0.8038,-0.8038,-0.8038,-0.8038,-0.8038,-0.8038,-0.8038,-0.8038,-0.8038,-0.8038,-0.8038,-0.8038,-0.8038,-0.8038,-0.8432,-0.9706,-0.892,-0.9604,-1.3193,-1.1745,-1.1356,-1.368,-1.3974,-1.4561,-1.573,-1.5832,-1.5832,-1.5832,-1.5832,-1.5832,-1.5832,-1.5832,-1.5832,-1.5832,-1.5832,-1.5832,-1.5832,-1.5832,-1.5832,-1.5832,-1.5832,-1.5832,-0.7516,-0.751,-0.758,-0.7868,-0.8048,-0.7965,-0.7979,-0.6751,-0.5227,-0.4216,-0.483,-0.6055,-0.7685,-0.8012,-0.8012,-0.7969,-0.7965,-0.7962,-0.8041,-0.8038,-0.8038,-0.8038,-0.8038,-0.8119,-0.833,-0.8431,-0.857,-0.8781,-0.8882,-0.894,-0.894,-0.894,-0.894,-0.894,-0.894,-0.894,-0.894,-0.894,-0.8893,-0.891,-0.8893,-0.8876,-0.8869,-0.8946,-0.8704,-0.8287,-0.8094,-0.8042,-0.8445,-1.3671,-1.5757,-1.5527,-1.224,-0.9769,-0.801,-0.8004,-0.8038,-0.8038,-0.8038,-0.8038,-0.8038,-0.8038,-0.8038,-0.8038,-0.8038,-0.8038,-0.8038,-0.8038,-0.8038,-0.8038,-0.8038,-0.8038,-0.8038,-0.8038,-0.8038,-0.8038,-0.8038,-0.8038,-0.8038,-0.8038,-0.8038,-0.8038,-0.8038,-0.8038,-0.8137,-0.8726,-0.9019,-0.9509,-1.0186,-1.0774,-1.1556,-1.2522,-1.4076,-1.5242,-1.573,-1.5832,-1.5832,-1.5832,-1.5832,-1.5832,-1.5832,-1.5832,-1.5832,-1.5832,-1.5832,-1.5832,-1.5832,-1.5832,-1.5832,-1.5832,-1.5832,-1.5832,-0.7426,-0.752,-0.7305,-0.6869,-0.735,-0.7982,-0.7999,-0.5944,-0.4219,-0.5039,-0.4634,-0.4329,-0.5338,-0.6879,-0.7805,-0.726,-0.7662,-0.7965,-0.8041,-0.8038,-0.8038,-0.8038,-0.8038,-0.8099,-0.8255,-0.836,-0.8476,-0.8628,-0.8733,-0.8794,-0.8794,-0.8794,-0.8794,-0.8794,-0.8794,-0.8794,-0.8794,-0.8794,-0.8855,-0.8862,-0.8743,-0.874,-0.8859,-0.8701,-0.8354,-0.7952,-0.8008,-0.7969,-0.8369,-1.3636,-1.5776,-1.5478,-1.1884,-0.949,-0.8007,-0.8004,-0.8038,-0.8038,-0.8038,-0.8038,-0.8038,-0.8038,-0.8038,-0.8038,-0.8038,-0.8038,-0.8038,-0.8038,-0.8038,-0.8038,-0.8038,-0.8038,-0.8038,-0.8038,-0.8038,-0.8038,-0.8038,-0.8038,-0.8038,-0.8038,-0.8038,-0.8038,-0.8038,-0.8038,-0.8038,-0.8038,-0.8825,-0.9217,-0.8726,-1.019,-1.1653,-1.2431,-1.4172,-1.5343,-1.5737,-1.5832,-1.5832,-1.5832,-1.5832,-1.5832,-1.5832,-1.5832,-1.5832,-1.5832,-1.5832,-1.5832,-1.5832,-1.5832,-1.5832,-1.5832,-1.5832,-1.5832,-0.7343,-0.7439,-0.7034,-0.4579,-0.6042,-0.7999,-0.8019,-0.5954,-0.4732,-0.7428,-0.5864,-0.3213,-0.0603,-0.4412,-0.7434,-0.5722,-0.683,-0.8038,-0.8038,-0.8038,-0.8038,-0.8038,-0.8038,-0.8099,-0.8252,-0.8272,-0.833,-0.8469,-0.8482,-0.8482,-0.8482,-0.8482,-0.8482,-0.8482,-0.8482,-0.8482,-0.8482,-0.8587,-0.8699,-0.8912,-0.8266,-0.8266,-0.8905,-0.823,-0.7952,-0.8044,-0.8002,-0.7974,-0.8366,-1.3631,-1.5816,-1.5813,-1.5842,-1.2634,-0.796,-0.8018,-0.8038,-0.8038,-0.8038,-0.8038,-0.8038,-0.8038,-0.8038,-0.8038,-0.8038,-0.8038,-0.8038,-0.8038,-0.8038,-0.8038,-0.8038,-0.8038,-0.8038,-0.8038,-0.8038,-0.8038,-0.8038,-0.8038,-0.8038,-0.8038,-0.8038,-0.8038,-0.8038,-0.8038,-0.8038,-0.8038,-0.8038,-0.8432,-0.9805,-0.9998,-1.097,-1.3584,-1.3872,-1.4459,-1.573,-1.5832,-1.5832,-1.5832,-1.5832,-1.5832,-1.5832,-1.5832,-1.5832,-1.5832,-1.5832,-1.5832,-1.5832,-1.5832,-1.5832,-1.5832,-1.5832,-1.5832,-0.7319,-0.612,-0.4687,-0.4114,-0.5996,-0.8016,-0.8022,-0.74,-0.5967,-0.3031,-0.475,-0.6575,-0.5761,-0.6879,-0.7788,-0.7359,-0.7659,-0.7959,-0.8041,-0.8038,-0.8038,-0.8038,-0.8038,-0.8058,-0.8102,-0.8208,-0.8289,-0.833,-0.8425,-0.8482,-0.8482,-0.8482,-0.8482,-0.8482,-0.8482,-0.8482,-0.8482,-0.8482,-0.8539,-0.844,-0.844,-0.8333,-0.8227,-0.8077,-0.7981,-0.8041,-0.7997,-0.8007,-0.8386,-1.364,-1.5761,-1.5813,-1.5842,-1.2634,-0.796,-0.8018,-0.8038,-0.8038,-0.8038,-0.8038,-0.8038,-0.8038,-0.8038,-0.8038,-0.8038,-0.8038,-0.8038,-0.8038,-0.8038,-0.8038,-0.8038,-0.8038,-0.8038,-0.8038,-0.8038,-0.8038,-0.8038,-0.8038,-0.8038,-0.8038,-0.8038,-0.8038,-0.8038,-0.8038,-0.8038,-0.8038,-0.8038,-0.8137,-0.8528,-0.941,-1.0681,-1.2328,-1.3295,-1.4459,-1.573,-1.5832,-1.5832,-1.5832,-1.5832,-1.5832,-1.5832,-1.5832,-1.5832,-1.5832,-1.5832,-1.5832,-1.5832,-1.5832,-1.5832,-1.5832,-1.5832,-1.5832,-0.7263,-0.4812,-0.22,-0.236,-0.5214,-0.8039,-0.8039,-0.6388,-0.394,-0.0707,-0.2522,-0.4847,-0.4853,-0.566,-0.6768,-0.7779,-0.7975,-0.7965,-0.8041,-0.8038,-0.8038,-0.8038,-0.8038,-0.8038,-0.8038,-0.8126,-0.8177,-0.8177,-0.8258,-0.8306,-0.8306,-0.8306,-0.8306,-0.8306,-0.8306,-0.8306,-0.8306,-0.8306,-0.8262,-0.8177,-0.8282,-0.8177,-0.7971,-0.7971,-0.8006,-0.8086,-1.0186,-1.1109,-1.137,-1.4493,-1.5797,-1.5595,-1.3482,-1.0756,-0.796,-0.8018,-0.8038,-0.8038,-0.8038,-0.8038,-0.8038,-0.8038,-0.8038,-0.8038,-0.8038,-0.8038,-0.8038,-0.8038,-0.8038,-0.8038,-0.8038,-0.8038,-0.8038,-0.8038,-0.8038,-0.8038,-0.8038,-0.8038,-0.8038,-0.8038,-0.8038,-0.8038,-0.8038,-0.8038,-0.8038,-0.8038,-0.8038,-0.8237,-0.8726,-0.9509,-1.0681,-1.2522,-1.3392,-1.4459,-1.573,-1.5832,-1.5832,-1.5832,-1.5832,-1.5832,-1.5832,-1.5832,-1.5832,-1.5832,-1.5832,-1.5832,-1.5832,-1.5832,-1.5832,-1.5832,-1.5832,-1.5832,-0.7098,-0.3908,-0.0577,-0.01,-0.3639,-0.7232,-0.7232,-0.3542,0.0,0.0,-0.0403,-0.0705,-0.0707,-0.2717,-0.5127,-0.7578,-0.7979,-0.7962,-0.8041,-0.8038,-0.8038,-0.8038,-0.8038,-0.8038,-0.8038,-0.8038,-0.8038,-0.8038,-0.8038,-0.8038,-0.8038,-0.8038,-0.8038,-0.8038,-0.8038,-0.8038,-0.8038,-0.8038,-0.8038,-0.8038,-0.8038,-0.8038,-0.8038,-0.8038,-0.8035,-0.8333,-1.3498,-1.5809,-1.5794,-1.579,-1.5817,-1.5287,-1.0065,-0.801,-0.7967,-0.8021,-0.8038,-0.8038,-0.8038,-0.8038,-0.8038,-0.8038,-0.8038,-0.8038,-0.8038,-0.8038,-0.8038,-0.8038,-0.8038,-0.8038,-0.8038,-0.8038,-0.8038,-0.8038,-0.8038,-0.8038,-0.8038,-0.8038,-0.8038,-0.8038,-0.8038,-0.8038,-0.8038,-0.8038,-0.8038,-0.8038,-0.8038,-0.8432,-0.9706,-0.9805,-1.0774,-1.3295,-1.368,-1.4268,-1.5534,-1.573,-1.5832,-1.5832,-1.5832,-1.5832,-1.5832,-1.5832,-1.5832,-1.5832,-1.5832,-1.5832,-1.5832,-1.5832,-1.5832,-1.5832,-1.5832,-1.5832,-0.7069,-0.6344,-0.471,-0.0982,-0.0899,-0.1718,-0.1718,-0.0808,0.0,0.0,-0.3331,-0.6276,-0.6279,-0.6768,-0.7359,-0.7875,-0.7959,-0.8045,-0.8038,-0.8038,-0.8038,-0.8038,-0.8038,-0.8038,-0.8038,-0.8038,-0.8038,-0.8038,-0.8038,-0.8038,-0.8038,-0.8038,-0.8038,-0.8038,-0.8038,-0.8038,-0.8038,-0.8038,-0.8038,-0.8038,-0.8038,-0.8038,-0.8038,-0.8038,-0.8014,-0.8269,-1.3482,-1.582,-1.5794,-1.5774,-1.5833,-1.5318,-1.0049,-0.797,-0.8021,-0.8035,-0.8038,-0.8038,-0.8038,-0.8038,-0.8038,-0.8038,-0.8038,-0.8038,-0.8038,-0.8038,-0.8038,-0.8038,-0.8038,-0.8038,-0.8038,-0.8038,-0.8038,-0.8038,-0.8038,-0.8038,-0.8038,-0.8038,-0.8038,-0.8038,-0.8038,-0.8038,-0.8038,-0.8038,-0.8038,-0.8038,-0.8038,-0.8137,-0.8432,-0.8432,-0.9019,-1.0676,-1.175,-1.2909,-1.4172,-1.5242,-1.5832,-1.5832,-1.5832,-1.5832,-1.5832,-1.5832,-1.5832,-1.5832,-1.5832,-1.5832,-1.5832,-1.5832,-1.5832,-1.5832,-1.5832,-1.5832,-0.4001,-0.3691,-0.3075,-0.0593,0.0,0.0,0.0,0.0,0.0,0.0,-0.2221,-0.4956,-0.751,-0.8009,-0.7992,-0.7975,-0.7962,-0.7952,-0.8041,-0.8038,-0.8038,-0.8038,-0.8038,-0.8038,-0.8038,-0.8038,-0.8038,-0.8038,-0.8038,-0.8038,-0.8038,-0.8038,-0.8038,-0.8038,-0.8038,-0.8038,-0.8038,-0.8038,-0.8038,-0.8038,-0.8038,-0.8038,-0.8038,-0.8038,-0.8007,-0.8153,-1.0835,-1.3482,-1.5796,-1.5796,-1.4352,-1.181,-0.906,-0.7987,-0.8038,-0.8038,-0.8038,-0.8038,-0.8038,-0.8038,-0.8038,-0.8038,-0.8038,-0.8038,-0.8038,-0.8038,-0.8038,-0.8038,-0.8038,-0.8038,-0.8038,-0.8038,-0.8038,-0.8038,-0.8038,-0.8038,-0.8038,-0.8038,-0.8038,-0.8038,-0.8038,-0.8038,-0.8038,-0.8038,-0.8038,-0.8038,-0.8038,-0.8038,-0.8038,-0.8038,-0.8531,-0.9903,-1.117,-1.2139,-1.2915,-1.4657,-1.5534,-1.4949,-1.5439,-1.5832,-1.5832,-1.5832,-1.5832,-1.5832,-1.5832,-1.5832,-1.5832,-1.5832,-1.5832,-1.5832,-1.5832,-1.5832,-0.0752,0.0,0.0,0.0,0.0,0.0,0.0,0.0,0.0,0.0,-0.0404,-0.2017,-0.6478,-0.7704,-0.8002,-0.7972,-0.7969,-0.7962,-0.8041,-0.8038,-0.8038,-0.8038,-0.8038,-0.8038,-0.8038,-0.8038,-0.8038,-0.8038,-0.8038,-0.8038,-0.8038,-0.8038,-0.8038,-0.8038,-0.8038,-0.8038,-0.8038,-0.8038,-0.8038,-0.8038,-0.8038,-0.8038,-0.8038,-0.8038,-0.8014,-0.7967,-0.796,-1.0476,-1.4418,-1.4418,-1.1913,-0.7957,-0.7963,-0.7997,-0.8038,-0.8038,-0.8038,-0.8038,-0.8038,-0.8038,-0.8038,-0.8038,-0.8038,-0.8038,-0.8038,-0.8038,-0.8038,-0.8038,-0.8038,-0.8038,-0.8038,-0.8038,-0.8038,-0.8038,-0.8038,-0.8038,-0.8038,-0.8038,-0.8038,-0.8038,-0.8038,-0.8038,-0.8038,-0.8038,-0.8038,-0.8038,-0.8038,-0.8038,-0.8038,-0.8038,-0.8432,-0.9509,-1.0779,-1.156,-1.156,-1.3788,-1.4758,-1.3974,-1.4854,-1.5534,-1.5825,-1.5832,-1.5832,-1.5832,-1.5832,-1.5832,-1.5832,-1.5832,-1.5832,-1.5832,-1.5832,-1.5832,-0.1222,0.0,0.0,0.0,0.0,0.0,0.0,0.0,0.0,0.0,-0.1812,-0.3717,-0.4422,-0.6434,-0.8048,-0.8045,-0.8045,-0.8041,-0.8038,-0.8038,-0.8038,-0.8038,-0.8038,-0.8038,-0.8038,-0.8038,-0.8038,-0.8038,-0.8038,-0.8038,-0.8038,-0.8038,-0.8038,-0.8038,-0.8038,-0.8038,-0.8038,-0.8038,-0.8038,-0.8038,-0.8038,-0.8038,-0.8038,-0.8038,-0.8035,-0.8024,-0.7977,-0.8354,-0.906,-0.906,-0.8656,-0.796,-0.8007,-0.8031,-0.8038,-0.8038,-0.8038,-0.8038,-0.8038,-0.8038,-0.8038,-0.8038,-0.8038,-0.8038,-0.8038,-0.8038,-0.8038,-0.8038,-0.8038,-0.8038,-0.8038,-0.8038,-0.8038,-0.8038,-0.8038,-0.8038,-0.8038,-0.8038,-0.8038,-0.8038,-0.8038,-0.8038,-0.8038,-0.8038,-0.8038,-0.8038,-0.8038,-0.8038,-0.8038,-0.8038,-0.8038,-0.8237,-0.941,-1.0293,-1.0293,-1.1556,-1.2813,-1.3878,-1.407,-1.4657,-1.573,-1.5832,-1.5832,-1.5832,-1.5832,-1.5832,-1.5832,-1.5832,-1.5832,-1.5832,-1.5832,-1.5832,-0.1318,0.0,0.0,0.0,0.0,0.0,0.0,0.0,0.0,0.0,-0.3328,-0.6258,-0.6247,-0.7253,-0.7955,-0.8041,-0.8038,-0.8038,-0.8038,-0.8038,-0.8038,-0.8038,-0.8038,-0.8038,-0.8038,-0.8038,-0.8038,-0.8038,-0.8038,-0.8038,-0.8038,-0.8038,-0.8038,-0.8038,-0.8038,-0.8038,-0.8038,-0.8038,-0.8038,-0.8038,-0.8038,-0.8038,-0.8038,-0.8038,-0.8038,-0.8038,-0.8011,-0.8001,-0.8001,-0.8001,-0.8001,-0.8004,-0.8028,-0.8038,-0.8038,-0.8038,-0.8038,-0.8038,-0.8038,-0.8038,-0.8038,-0.8038,-0.8038,-0.8038,-0.8038,-0.8038,-0.8038,-0.8038,-0.8038,-0.8038,-0.8038,-0.8038,-0.8038,-0.8038,-0.8038,-0.8038,-0.8038,-0.8038,-0.8038,-0.8038,-0.8038,-0.8038,-0.8038,-0.8038,-0.8038,-0.8038,-0.8038,-0.8038,-0.8038,-0.8038,-0.8038,-0.8038,-0.9217,-0.9706,-0.892,-1.0779,-1.1848,-1.1745,-1.2425,-1.3397,-1.4657,-1.4752,-1.5045,-1.5825,-1.5832,-1.5832,-1.5832,-1.5832,-1.5832,-1.5832,-1.5832,-1.5832,-0.2646,-0.0883,0.0,0.0,0.0,0.0,0.0,0.0,0.0,0.0,-0.323,-0.6372,-0.7795,-0.7985,-0.7965,-0.8041,-0.8038,-0.8038,-0.8038,-0.8038,-0.8038,-0.8038,-0.8038,-0.8038,-0.8038,-0.8038,-0.8038,-0.8038,-0.8038,-0.8038,-0.8038,-0.8038,-0.8038,-0.8038,-0.8038,-0.8038,-0.8038,-0.8038,-0.8038,-0.8038,-0.8038,-0.8038,-0.8038,-0.8038,-0.8038,-0.8038,-0.8038,-0.8038,-0.8038,-0.8038,-0.8038,-0.8038,-0.8038,-0.8038,-0.8038,-0.8038,-0.8038,-0.8038,-0.8038,-0.8038,-0.8038,-0.8038,-0.8038,-0.8038,-0.8038,-0.8038,-0.8038,-0.8038,-0.8038,-0.8038,-0.8038,-0.8038,-0.8038,-0.8038,-0.8038,-0.8038,-0.8038,-0.8038,-0.8038,-0.8038,-0.8038,-0.8038,-0.8038,-0.8038,-0.8038,-0.8038,-0.8038,-0.8038,-0.8038,-0.8038,-0.8038,-0.8038,-0.8924,-0.9118,-0.8038,-0.9801,-1.0681,-0.9998,-1.0877,-1.2037,-1.3295,-1.368,-1.4364,-1.5337,-1.5635,-1.5832,-1.5832,-1.5832,-1.5832,-1.5832,-1.5832,-1.5832,-0.6216,-0.3437,0.0,0.0,0.0,0.0,0.0,0.0,0.0,0.0,-0.0202,-0.2012,-0.7092,-0.7995,-0.7965,-0.8041,-0.8038,-0.8038,-0.8038,-0.8038,-0.8038,-0.8038,-0.8038,-0.8038,-0.8038,-0.8038,-0.8038,-0.8038,-0.8038,-0.8038,-0.8038,-0.8038,-0.8038,-0.8038,-0.8038,-0.8038,-0.8038,-0.8038,-0.8038,-0.8038,-0.8038,-0.8038,-0.8038,-0.8038,-0.8038,-0.8038,-0.8038,-0.8038,-0.8038,-0.8038,-0.8038,-0.8038,-0.8038,-0.8038,-0.8038,-0.8038,-0.8038,-0.8038,-0.8038,-0.8038,-0.8038,-0.8038,-0.8038,-0.8038,-0.8038,-0.8038,-0.8038,-0.8038,-0.8038,-0.8038,-0.8038,-0.8038,-0.8038,-0.8038,-0.8038,-0.8038,-0.8038,-0.8038,-0.8038,-0.8038,-0.8038,-0.8038,-0.8038,-0.8038,-0.8038,-0.8038,-0.8038,-0.8038,-0.8038,-0.8038,-0.8038,-0.8038,-0.8038,-0.8038,-0.8038,-0.8137,-0.8726,-0.9899,-1.0096,-1.0681,-1.1945,-1.3199,-1.3974,-1.3974,-1.5146,-1.5832,-1.5832,-1.5832,-1.5832,-1.5832,-1.5832,-1.5832,-0.276,-0.1274,0.0,0.0,0.0,0.0,0.0,0.0,0.0,0.0,0.0,-0.0605,-0.2518,-0.5641,-0.7969,-0.7962,-0.8048,-0.8038,-0.8038,-0.8038,-0.8038,-0.8038,-0.8038,-0.8038,-0.8038,-0.8038,-0.8038,-0.8038,-0.8038,-0.8038,-0.8038,-0.8038,-0.8038,-0.8038,-0.8038,-0.8038,-0.8038,-0.8038,-0.8038,-0.8038,-0.8038,-0.8038,-0.8038,-0.8038,-0.8038,-0.8038,-0.8038,-0.8038,-0.8038,-0.8038,-0.8038,-0.8038,-0.8038,-0.8038,-0.8038,-0.8038,-0.8038,-0.8038,-0.8038,-0.8038,-0.8038,-0.8038,-0.8038,-0.8038,-0.8038,-0.8038,-0.8038,-0.8038,-0.8038,-0.8038,-0.8038,-0.8038,-0.8038,-0.8038,-0.8038,-0.8038,-0.8038,-0.8038,-0.8038,-0.8038,-0.8038,-0.8038,-0.8038,-0.8038,-0.8038,-0.8038,-0.8038,-0.8038,-0.8038,-0.8038,-0.8038,-0.8038,-0.8038,-0.8038,-0.8038,-0.8038,-0.8237,-0.8726,-0.8726,-0.9702,-1.1848,-1.2334,-1.3397,-1.5051,-1.5534,-1.5832,-1.5832,-1.5832,-1.5832,-1.5832,-1.5832,-1.5832,-0.0862,0.0,0.0,0.0,0.0,0.0,0.0,0.0,0.0,0.0,0.0,0.0,0.0,-0.2916,-0.5937,-0.7666,-0.7962,-0.8048,-0.8041,-0.8038,-0.8038,-0.8038,-0.8038,-0.8038,-0.8038,-0.8038,-0.8038,-0.8038,-0.8038,-0.8038,-0.8038,-0.8038,-0.8038,-0.8038,-0.8038,-0.8038,-0.8038,-0.8038,-0.8038,-0.8038,-0.8038,-0.8038,-0.8038,-0.8038,-0.8038,-0.8038,-0.8038,-0.8038,-0.8038,-0.8038,-0.8038,-0.8038,-0.8038,-0.8038,-0.8038,-0.8038,-0.8038,-0.8038,-0.8038,-0.8038,-0.8038,-0.8038,-0.8038,-0.8038,-0.8038,-0.8038,-0.8038,-0.8038,-0.8038,-0.8038,-0.8038,-0.8038,-0.8038,-0.8038,-0.8038,-0.8038,-0.8038,-0.8038,-0.8038,-0.8038,-0.8038,-0.8038,-0.8038,-0.8038,-0.8038,-0.8038,-0.8038,-0.8038,-0.8038,-0.8038,-0.8038,-0.8038,-0.8038,-0.8038,-0.8038,-0.8038,-0.8038,-0.8038,-0.8432,-0.941,-1.117,-1.2139,-1.3397,-1.5146,-1.554,-1.5832,-1.5832,-1.5832,-1.5832,-1.5832,-1.5832,-1.5832,0.0,0.0,0.0,-0.0101,-0.0101,-0.0101,-0.0,0.0,0.0,0.0,0.0,0.0,0.0,0.0,-0.1708,-0.7054,-0.7972,-0.7965,-0.8041,-0.8038,-0.8038,-0.8038,-0.8038,-0.8038,-0.8038,-0.8038,-0.8038,-0.8038,-0.8038,-0.8038,-0.8038,-0.8038,-0.8038,-0.8038,-0.8038,-0.8038,-0.8038,-0.8038,-0.8038,-0.8038,-0.8038,-0.8038,-0.8038,-0.8038,-0.8038,-0.8038,-0.8038,-0.8038,-0.8038,-0.8038,-0.8038,-0.8038,-0.8038,-0.8038,-0.8038,-0.8038,-0.8038,-0.8038,-0.8038,-0.8038,-0.8038,-0.8038,-0.8038,-0.8038,-0.8038,-0.8038,-0.8038,-0.8038,-0.8038,-0.8038,-0.8038,-0.8038,-0.8038,-0.8038,-0.8038,-0.8038,-0.8038,-0.8038,-0.8038,-0.8038,-0.8038,-0.8038,-0.8038,-0.8038,-0.8038,-0.8038,-0.8038,-0.8038,-0.8038,-0.8038,-0.8038,-0.8038,-0.8038,-0.8038,-0.8038,-0.8038,-0.8038,-0.8038,-0.9213,-0.9998,-1.0096,-1.2522,-1.3878,-1.3974,-1.5146,-1.5832,-1.5832,-1.5832,-1.5832,-1.5832,-1.5832,-1.5832,-0.5958,0.0,0.0,0.0,0.0,0.0,-0.0403,0.0,0.0,0.0,0.0,0.0,0.0,0.0,-0.1109,-0.4535,-0.6756,-0.7965,-0.8041,-0.8038,-0.8038,-0.8038,-0.8038,-0.8038,-0.8038,-0.8038,-0.8038,-0.8038,-0.8038,-0.8038,-0.8038,-0.8038,-0.8038,-0.8038,-0.8038,-0.8038,-0.8038,-0.8038,-0.8038,-0.8038,-0.8038,-0.8038,-0.8038,-0.8038,-0.8038,-0.8038,-0.8038,-0.8038,-0.8038,-0.8038,-0.8038,-0.8038,-0.8038,-0.8038,-0.8038,-0.8038,-0.8038,-0.8038,-0.8038,-0.8038,-0.8038,-0.8038,-0.8038,-0.8038,-0.8038,-0.8038,-0.8038,-0.8038,-0.8038,-0.8038,-0.8038,-0.8038,-0.8038,-0.8038,-0.8038,-0.8038,-0.8038,-0.8038,-0.8038,-0.8038,-0.8038,-0.8038,-0.8038,-0.8038,-0.8038,-0.8038,-0.8038,-0.8038,-0.8038,-0.8038,-0.8038,-0.8038,-0.8038,-0.8038,-0.8038,-0.8038,-0.8038,-0.8038,-0.8333,-0.941,-1.1268,-1.2042,-1.3301,-1.5242,-1.5635,-1.5832,-1.5832,-1.5832,-1.5832,-1.5832,-1.5832,-1.5832,-0.7821,-0.679,-0.5632,-0.5634,0.0,0.0,-0.3728,-0.1611,0.0,0.0,0.0,0.0,0.0,0.0,-0.0505,-0.2115,-0.5546,-0.7985,-0.7959,-0.8045,-0.8038,-0.8038,-0.8038,-0.8038,-0.8038,-0.8038,-0.8038,-0.8038,-0.8038,-0.8038,-0.8038,-0.8038,-0.8038,-0.8038,-0.8038,-0.8038,-0.8038,-0.8038,-0.8038,-0.8038,-0.8038,-0.8038,-0.8038,-0.8038,-0.8038,-0.8038,-0.8038,-0.8038,-0.8038,-0.8038,-0.8038,-0.8038,-0.8038,-0.8038,-0.8038,-0.8038,-0.8038,-0.8038,-0.8038,-0.8038,-0.8038,-0.8038,-0.8038,-0.8038,-0.8038,-0.8038,-0.8038,-0.8038,-0.8038,-0.8038,-0.8038,-0.8038,-0.8038,-0.8038,-0.8038,-0.8038,-0.8038,-0.8038,-0.8038,-0.8038,-0.8038,-0.8038,-0.8038,-0.8038,-0.8038,-0.8038,-0.8038,-0.8038,-0.8038,-0.8038,-0.8038,-0.8038,-0.8038,-0.8038,-0.8038,-0.8038,-0.8038,-0.8038,-0.9019,-1.0288,-1.1853,-1.2915,-1.4274,-1.5737,-1.5832,-1.5832,-1.5832,-1.5832,-1.5832,-1.5832,-1.5832,-1.5832,-0.7928,-0.7969,-0.7972,-0.7982,-0.8002,0.0,-0.7607,-0.3836,-0.0404,-0.0101,0.0,0.0,0.0,-0.0505,-0.0706,-0.0101,-0.4541,-0.8009,-0.7979,-0.7955,-0.8041,-0.8038,-0.8038,-0.8038,-0.8038,-0.8038,-0.8038,-0.8038,-0.8038,-0.8038,-0.8038,-0.8038,-0.8038,-0.8038,-0.8038,-0.8038,-0.8038,-0.8038,-0.8038,-0.8038,-0.8038,-0.8038,-0.8038,-0.8038,-0.8038,-0.8038,-0.8038,-0.8038,-0.8038,-0.8038,-0.8038,-0.8038,-0.8038,-0.8038,-0.8038,-0.8038,-0.8038,-0.8038,-0.8038,-0.8038,-0.8038,-0.8038,-0.8038,-0.8038,-0.8038,-0.8038,-0.8038,-0.8038,-0.8038,-0.8038,-0.8038,-0.8038,-0.8038,-0.8038,-0.8038,-0.8038,-0.8038,-0.8038,-0.8038,-0.8038,-0.8038,-0.8038,-0.8038,-0.8038,-0.8038,-0.8038,-0.8038,-0.8038,-0.8038,-0.8038,-0.8038,-0.8038,-0.8038,-0.8038,-0.8038,-0.8038,-0.8038,-0.8038,-1.019,-1.1556,-1.1653,-1.3884,-1.5242,-1.5343,-1.5343,-1.5343,-1.5343,-1.5635,-1.5832,-1.5832,-1.5832,-1.5832,-0.8038,-0.8045,-0.8045,-0.8048,-0.7952,0.0,-0.5231,-0.4021,-0.2614,-0.0404,0.0,0.0,0.0,-0.3536,-0.5056,-0.0706,-0.4539,-0.7992,-0.7975,-0.7969,-0.7959,-0.8041,-0.8038,-0.8038,-0.8038,-0.8038,-0.8038,-0.8038,-0.8038,-0.8038,-0.8038,-0.8038,-0.8038,-0.8038,-0.8038,-0.8038,-0.8038,-0.8038,-0.8038,-0.8038,-0.8038,-0.8038,-0.8038,-0.8038,-0.8038,-0.8038,-0.8038,-0.8038,-0.8038,-0.8038,-0.8038,-0.8038,-0.8038,-0.8038,-0.8038,-0.8038,-0.8038,-0.8038,-0.8038,-0.8038,-0.8038,-0.8038,-0.8038,-0.8038,-0.8038,-0.8038,-0.8038,-0.8038,-0.8038,-0.8038,-0.8038,-0.8038,-0.8038,-0.8038,-0.8038,-0.8038,-0.8038,-0.8038,-0.8038,-0.8038,-0.8038,-0.8038,-0.8038,-0.8038,-0.8038,-0.8038,-0.8038,-0.8038,-0.8038,-0.8038,-0.8038,-0.8038,-0.8038,-0.8038,-0.8038,-0.8038,-0.8038,-0.8038,-0.8432,-0.9213,-1.0288,-1.0872,-1.1653,-1.2624,-1.2624,-1.2624,-1.2624,-1.4758,-1.5832,-1.5832,-1.5832,-1.5832,-0.8038,-0.8038,-0.8038,-0.8038,-0.8048,0.0,0.0,-0.3917,-0.1608,-0.0302,0.0,0.0,0.0,-0.4347,-0.7098,-0.4448,-0.6271,-0.8002,-0.7982,-0.7975,-0.7965,-0.8041,-0.8038,-0.8038,-0.8038,-0.8038,-0.8038,-0.8038,-0.8038,-0.8038,-0.8038,-0.8038,-0.8038,-0.8038,-0.8038,-0.8038,-0.8038,-0.8038,-0.8038,-0.8038,-0.8038,-0.8038,-0.8038,-0.8038,-0.8038,-0.8038,-0.8038,-0.8038,-0.8038,-0.8038,-0.8038,-0.8038,-0.8038,-0.8038,-0.8038,-0.8038,-0.8038,-0.8038,-0.8038,-0.8038,-0.8038,-0.8038,-0.8038,-0.8038,-0.8038,-0.8038,-0.8038,-0.8038,-0.8038,-0.8038,-0.8038,-0.8038,-0.8038,-0.8038,-0.8038,-0.8038,-0.8038,-0.8038,-0.8038,-0.8038,-0.8038,-0.8038,-0.8038,-0.8038,-0.8038,-0.8038,-0.8038,-0.8038,-0.8038,-0.8038,-0.8038,-0.8038,-0.8038,-0.8038,-0.8038,-0.8038,-0.8038,-0.8038,-0.8627,-0.9316,-0.9998,-1.0583,-1.1263,-1.1848,-1.1945,-1.1945,-1.1945,-1.321,-1.4178,-1.4854,-1.5534,-1.5439,-0.8038,-0.8038,-0.8038,-0.8038,-0.7952,-0.7969,0.0,0.0,0.0,-0.0905,-0.0805,-0.0807,-0.0807,-0.4746,-0.8016,-0.8019,-0.8016,-0.8009,-0.7992,-0.7979,-0.7965,-0.8048,-0.8041,-0.8038,-0.8038,-0.8038,-0.8038,-0.8038,-0.8038,-0.8038,-0.8038,-0.8038,-0.8038,-0.8038,-0.8038,-0.8038,-0.8038,-0.8038,-0.8038,-0.8038,-0.8038,-0.8038,-0.8038,-0.8038,-0.8038,-0.8038,-0.8038,-0.8038,-0.8038,-0.8038,-0.8038,-0.8038,-0.8038,-0.8038,-0.8038,-0.8038,-0.8038,-0.8038,-0.8038,-0.8038,-0.8038,-0.8038,-0.8038,-0.8038,-0.8038,-0.8038,-0.8038,-0.8038,-0.8038,-0.8038,-0.8038,-0.8038,-0.8038,-0.8038,-0.8038,-0.8038,-0.8038,-0.8038,-0.8038,-0.8038,-0.8038,-0.8038,-0.8038,-0.8038,-0.8038,-0.8038,-0.8038,-0.8038,-0.8038,-0.8038,-0.8038,-0.8038,-0.8038,-0.8038,-0.8038,-0.8038,-0.8038,-0.8038,-0.9019,-0.9608,-0.9608,-1.0583,-1.1165,-1.1165,-1.1165,-1.1165,-1.1165,-1.1365,-1.2237,-1.3584,-1.4561,-1.4465,-0.8038,-0.8038,-0.8038,-0.8038,-0.8041,-0.8048,-0.7969,0.0,-0.6442,-0.4017,0.0,-0.3516,-0.3516,0.0,0.0,-0.7992,-0.7985,-0.7979,-0.7975,-0.7972,-0.7972,-0.7969,-0.7952,-0.8038,-0.8038,-0.8038,-0.8038,-0.8038,-0.8038,-0.8038,-0.8038,-0.8038,-0.8038,-0.8038,-0.8038,-0.8038,-0.8038,-0.8038,-0.8038,-0.8038,-0.8038,-0.8038,-0.8038,-0.8038,-0.8038,-0.8038,-0.8038,-0.8038,-0.8038,-0.8038,-0.8038,-0.8038,-0.8038,-0.8038,-0.8038,-0.8038,-0.8038,-0.8038,-0.8038,-0.8038,-0.8038,-0.8038,-0.8038,-0.8038,-0.8038,-0.8038,-0.8038,-0.8038,-0.8038,-0.8038,-0.8038,-0.8038,-0.8038,-0.8038,-0.8038,-0.8038,-0.8038,-0.8038,-0.8038,-0.8038,-0.8038,-0.8038,-0.8038,-0.8038,-0.8038,-0.8038,-0.8038,-0.8038,-0.8038,-0.8038,-0.8038,-0.8038,-0.8038,-0.8038,-0.8038,-0.8038,-0.8038,-0.8038,-0.8137,-0.8233,-0.8233,-0.8333,-0.8432,-0.8432,-0.8432,-0.8432,-0.8432,-0.9608,-1.0877,-1.2139,-1.2237,-1.2237,-0.8038,-0.8038,-0.8038,-0.8038,-0.8038,-0.8041,-0.7952,-0.7962,-0.7666,-0.6545,0.0,0.0,0.0,0.0,0.0,0.0,-0.7975,-0.7972,-0.7972,-0.7972,-0.7969,-0.7955,-0.8045,-0.8038,-0.8038,-0.8038,-0.8038,-0.8038,-0.8038,-0.8038,-0.8038,-0.8038,-0.8038,-0.8038,-0.8038,-0.8038,-0.8038,-0.8038,-0.8038,-0.8038,-0.8038,-0.8038,-0.8038,-0.8038,-0.8038,-0.8038,-0.8038,-0.8038,-0.8038,-0.8038,-0.8038,-0.8038,-0.8038,-0.8038,-0.8038,-0.8038,-0.8038,-0.8038,-0.8038,-0.8038,-0.8038,-0.8038,-0.8038,-0.8038,-0.8038,-0.8038,-0.8038,-0.8038,-0.8038,-0.8038,-0.8038,-0.8038,-0.8038,-0.8038,-0.8038,-0.8038,-0.8038,-0.8038,-0.8038,-0.8038,-0.8038,-0.8038,-0.8038,-0.8038,-0.8038,-0.8038,-0.8038,-0.8038,-0.8038,-0.8038,-0.8038,-0.8038,-0.8038,-0.8038,-0.8038,-0.8038,-0.8038,-0.8038,-0.8038,-0.8038,-0.8038,-0.8038,-0.8038,-0.8038,-0.8038,-0.8038,-0.8038,-0.8531,-0.9118,-0.9702,-1.1165,-1.1458,-0.8038,-0.8038,-0.8038,-0.8038,-0.8038,-0.8038,-0.8038,-0.7952,-0.7965,-0.7965,-0.7969,0.0,0.0,0.0,-0.7965,-0.7965,0.0,-0.7965,-0.7965,-0.7965,-0.7959,-0.8048,-0.8041,-0.8038,-0.8038,-0.8038,-0.8041,-0.8048,-0.8048,-0.8048,-0.8048,-0.7952,-0.7952,-0.8048,-0.8048,-0.8048,-0.8048,-0.8041,-0.8038,-0.8038,-0.8038,-0.8038,-0.8038,-0.8038,-0.8038,-0.8038,-0.8038,-0.8038,-0.8038,-0.8038,-0.8038,-0.8038,-0.8038,-0.8038,-0.8038,-0.8038,-0.8038,-0.8038,-0.8038,-0.8038,-0.8038,-0.8038,-0.8038,-0.8038,-0.8038,-0.8038,-0.8038,-0.8038,-0.8038,-0.8038,-0.8038,-0.8038,-0.8038,-0.8038,-0.8038,-0.8038,-0.8038,-0.8038,-0.8038,-0.8038,-0.8038,-0.8038,-0.8038,-0.8038,-0.8038,-0.8038,-0.8038,-0.8038,-0.8038,-0.8038,-0.8038,-0.8038,-0.8038,-0.8038,-0.8038,-0.8038,-0.8038,-0.8038,-0.8038,-0.8038,-0.8038,-0.8038,-0.8038,-0.8038,-0.8038,-0.8038,-0.8038,-0.8038,-0.8038,-0.8038,-0.9998,-1.0386,-0.8038,-0.8038,-0.8038,-0.8038,-0.8038,-0.8038,-0.8038,-0.8038,-0.8041,-0.8041,-0.8041,-0.8041,-0.8041,-0.8041,-0.8041,-0.8041,-0.8041,0.0,0.0,-0.8041,-0.8048,-0.7969,-0.7952,-0.8038,-0.8038,-0.8038,-0.8048,-0.7969,-0.7972,-0.7972,-0.7972,-0.7982,-0.7982,-0.7972,-0.7972,-0.7972,-0.7972,-0.8048,-0.8038,-0.8038,-0.8038,-0.8038,-0.8038,-0.8038,-0.8038,-0.8038,-0.8038,-0.8038,-0.8038,-0.8038,-0.8038,-0.8038,-0.8038,-0.8038,-0.8038,-0.8038,-0.8038,-0.8038,-0.8038,-0.8038,-0.8038,-0.8038,-0.8038,-0.8038,-0.8038,-0.8038,-0.8038,-0.8038,-0.8038,-0.8038,-0.8038,-0.8038,-0.8038,-0.8038,-0.8038,-0.8038,-0.8038,-0.8038,-0.8038,-0.8038,-0.8038,-0.8038,-0.8038,-0.8038,-0.8038,-0.8038,-0.8038,-0.8038,-0.8038,-0.8038,-0.8038,-0.8038,-0.8038,-0.8038,-0.8038,-0.8038,-0.8038,-0.8038,-0.8038,-0.8038,-0.8038,-0.8038,-0.8038,-0.8038,-0.8038,-0.8038,-0.8038,-0.8038,-0.8038,-0.8038,-0.8038,-0.8137,-0.8038,-0.8038,-0.8038,-0.8038,-0.8038,-0.8038,-0.8038,-0.8038,-0.8038,-0.8038,-0.8038,-0.8038,-0.8038,-0.8038,-0.8038,-0.8038,-0.8038,-0.8038,0.0,-0.8038,-0.8041,-0.8048,-0.8045,-0.8038,-0.8038,-0.7952,-0.7965,-0.7972,-0.4716,-0.2706,-0.2706,-0.6042,-0.6348,-0.2806,-0.2706,-0.4414,-0.7972,-0.7972,-0.7969,-0.7962,-0.7962,-0.7962,-0.7962,-0.8045,-0.8038,-0.8038,-0.8038,-0.8038,-0.8038,-0.8038,-0.8038,-0.8038,-0.8038,-0.8038,-0.8038,-0.8038,-0.8038,-0.8038,-0.8038,-0.8038,-0.8038,-0.8038,-0.8038,-0.8038,-0.8038,-0.8038,-0.8038,-0.8038,-0.8038,-0.8038,-0.8038,-0.8038,-0.8038,-0.8038,-0.8038,-0.8038,-0.8038,-0.8038,-0.8038,-0.8038,-0.8038,-0.8038,-0.8038,-0.8038,-0.8038,-0.8038,-0.8038,-0.8038,-0.8038,-0.8038,-0.8038,-0.8038,-0.8038,-0.8038,-0.8038,-0.8038,-0.8038,-0.8038,-0.8038,-0.8038,-0.8038,-0.8038,-0.8038,-0.8038,-0.8038,-0.8038,-0.8038,-0.8038,-0.8038,-0.8038,-0.8038,-0.8038,-0.8038,-0.8038,-0.8041,-0.8048,-0.7952,-0.7952,-0.7952,-0.7952,-0.7952,-0.7952,-0.7952,-0.7952,-0.7955,-0.7955,-0.7952,-0.7952,-0.8045,-0.8038,0.0,-0.8038,-0.8038,-0.8038,-0.8038,-0.8041,-0.7952,-0.7965,-0.7256,-0.5331,-0.1906,0.0,0.0,-0.3318,-0.3521,-0.01,0.0,-0.1705,-0.5129,-0.7065,-0.7062,-0.5122,-0.5122,-0.6137,-0.7979,-0.7965,-0.7955,-0.7952,-0.7952,-0.8045,-0.8038,-0.8038,-0.8038,-0.8038,-0.8038,-0.8038,-0.8038,-0.8038,-0.8038,-0.8038,-0.8038,-0.8038,-0.8038,-0.8038,-0.8038,-0.8038,-0.8038,-0.8038,-0.8038,-0.8038,-0.8038,-0.8038,-0.8038,-0.8038,-0.8038,-0.8038,-0.8038,-0.8038,-0.8038,-0.8038,-0.8038,-0.8038,-0.8038,-0.8038,-0.8038,-0.8038,-0.8038,-0.8038,-0.8038,-0.8038,-0.8038,-0.8038,-0.8038,-0.8038,-0.8038,-0.8038,-0.8038,-0.8038,-0.8038,-0.8038,-0.8038,-0.8038,-0.8038,-0.8038,-0.8038,-0.8038,-0.8038,-0.8038,-0.8038,-0.8038,-0.8038,-0.8038,-0.8038,-0.8038]}]]